     2.11           OBSERVATION DATA    G (GPS)             RINEX VERSION / TYPE
teqc 2010Oct21 OPUS Account 20111028 20:28:24UTC            PGM / RUN BY / DATE
X 1527                                                      MARKER NAME
3081                                                        MARKER NUMBER
CSMIDDLETON NGS                                             OBSERVER / AGENCY
4624K01590 TRIMBLE NETR5 4.41                               REC # / TYPE / VERS
12236910 TRM41249.00 NONE                                   ANT # / TYPE
  -703721.3676 -5595584.2491  2969038.2887                  APPROX POSITION XYZ
        2.0010        0.0000        0.0000                  ANTENNA: DELTA H/E/N
     1     1                                                WAVELENGTH FACT L1/2
     5    L1    L2    C1    P1    P2                        # / TYPES OF OBSERV
    15                                                      LEAP SECONDS
  2011     8    27     0     0    0.0000000     GPS         TIME OF FIRST OBS
                                                            END OF HEADER
 11  8 27  0  0  0.0000000  0  9G04G10G12G17G05G25G09G02G30
 115327871.95118  89866004.90155  21946141.656                    21946151.781
 109744606.77818  85515433.78056  20883683.570                    20883692.914
 112038790.58518  87303020.66917  21320269.625                    21320277.301
 122561296.07317  95502392.08816  23322644.133                    23322654.188
 113909789.47417  88760967.92317  21676289.375                    21676299.406
 125586162.87817  97859430.02516  23898257.086                    23898270.121
 125666844.25016  97922296.16254  23913622.047                    23913636.363
 108570023.28618  84600170.74256  20660162.500                    20660168.738
 126423482.46216  98511871.44553  24057596.555                    24057607.336
 11  8 27  0  0 30.0000000  0  9G04G10G12G17G05G25G09G02G30
 115405977.180 8  89926866.09945  21961004.930                    21961014.262
 109756849.309 8  85524973.43246  20886013.219                    20886022.391
 111984586.058 8  87260783.405 7  21309954.398                    21309962.910
 122615334.237 7  95544499.651 6  23332926.883                    23332938.086
 113825828.526 8  88695543.918 7  21660312.398                    21660322.090
 125489458.047 7  97784075.670 7  23879854.797                    23879866.832
 125746037.266 6  97984004.83144  23928692.063                    23928705.801
 108573998.509 8  84603268.34046  20660918.859                    20660924.734
 126323907.037 6  98434280.31342  24038647.883                    24038658.539
 11  8 27  0  1  0.0000000  0  9G04G10G12G17G05G25G09G02G30
 115484181.536 8  89987804.53845  21975886.734                    21975896.016
 109769720.754 8  85535003.15646  20888462.539                    20888471.480
 111930842.427 7  87218905.284 7  21299727.383                    21299735.320
 122669540.922 7  95586738.544 6  23343242.195                    23343253.320
 113742222.601 8  88630396.548 7  21644402.555                    21644412.375
 125392966.172 7  97708887.242 7  23861492.633                    23861505.703
 125825341.055 6  98045799.82244  23943783.414                    23943797.566
 108578236.307 8  84606570.54246  20661725.195                    20661731.398
 126224583.306 6  98356885.27543  24019747.352                    24019757.512
 11  8 27  0  1 30.0000000  0  9G04G10G12G17G05G25G09G02G30
 115562483.461 8  90048819.01345  21990786.953                    21990796.500
 109783220.932 8  85545522.80146  20891031.609                    20891040.410
 111877561.984 8  87177388.092 7  21289588.805                    21289596.465
 122723916.795 7  95629109.222 6  23353589.516                    23353600.566
 113658974.827 8  88565528.270 7  21628560.789                    21628570.457
 125296690.163 7  97633867.069 7  23843172.047                    23843184.480
 125904752.233 7  98107678.48944  23958893.656                    23958908.688
 108582735.771 8  84610076.63746  20662581.547                    20662587.563
 126125514.295 6  98279688.73043  24000895.180                    24000905.457
 11  8 27  0  2  0.0000000  0  9G04G10G12G17G05G25G09G02G30
 115640881.249 8  90109908.18245  22005705.492                    22005715.230
 109797349.624 8  85556532.19046  20893720.250                    20893729.281
 111824746.888 8  87136233.493 7  21279538.086                    21279546.125
 122778462.076 7  95671611.948 6  23363969.453                    23363979.973
 113576087.550 8  88500940.898 7  21612787.867                    21612797.762
 125200632.589 7  97559017.058 7  23824893.023                    23824905.336
 125984267.873 7  98169638.55743  23974026.328                    23974040.539
 108587495.579 8  84613785.59146  20663487.453                    20663493.805
 126026702.691 7  98202692.69843  23982091.633                    23982101.547
 11  8 27  0  2 30.0000000  0  9G04G10G12G17G05G25G09G02G30
 115719373.002 8  90171070.56245  22020641.961                    22020651.668
 109812106.305 8  85568030.93646  20896527.953                    20896536.715
 111772399.594 8  87095443.423 7  21269576.883                    21269585.219
 122833177.672 7  95714247.389 6  23374382.141                    23374392.637
 113493563.784 8  88436636.760 7  21597083.930                    21597093.738
 125104796.229 7  97484339.437 7  23806655.977                    23806668.563
 126063884.430 6  98231677.24544  23989176.922                    23989191.449
 108592514.892 7  84617696.75046  20664442.727                    20664448.430
 125928151.519 6  98125899.64144  23963338.172                    23963348.867
 11  8 27  0  3  0.0000000  0  9G04G10G12G17G05G25G09G02G30
 115797956.678 7  90232304.57645  22035595.477                    22035605.664
 109827490.058 8  85580018.29346  20899455.734                    20899464.465
 111720521.525 8  87055018.994 7  21259704.641                    21259712.859
 122888063.711 7  95757015.661 6  23384825.836                    23384837.059
 113411405.669 8  88372617.553 7  21581449.398                    21581459.449
 125009183.227 7  97409835.880 7  23788460.953                    23788473.637
 126143598.149 7  98293791.70044  24004345.805                    24004359.969
 108597791.662 8  84621808.54046  20665446.141                    20665452.488
 125829862.926 6  98049311.15543  23944634.352                    23944644.445
 11  8 27  0  3 30.0000000  0  9G04G10G12G17G05G25G09G02G30
 115876630.948 7  90293609.17945  22050567.484                    22050576.648
 109843501.148 8  85592494.48846  20902502.484                    20902511.371
 111669115.521 8  87014962.398 7  21249922.734                    21249930.820
 122943120.870 7  95799917.262 7  23395302.977                    23395314.168
 113329616.547 8  88308885.890 7  21565885.547                    21565895.246
 124913796.885 7  97335508.934 7  23770309.391                    23770321.828
 126223406.327 6  98355979.72843  24019533.133                    24019547.121
 108603325.413 8  84626120.56146  20666499.633                    20666505.941
 125731840.562 7  97972930.14144  23925981.414                    23925991.828
 11  8 27  0  4  0.0000000  0  9G04G10G12G17G05G25G09G02G30
 115955393.525 7  90354982.60545  22065555.539                    22065564.387
 109860138.477 8  85605458.66746  20905668.703                    20905677.441
 111618183.196 8  86975274.900 7  21240230.359                    21240237.996
 122998349.692 7  95842952.587 6  23405812.938                    23405824.016
 113248198.612 8  88245443.438 7  21550392.664                    21550401.906
 124818639.370 7  97261360.274 6  23752201.883                    23752214.105
 126303305.097 6  98418238.31443  24034737.664                    24034751.492
 108609114.405 8  84630631.48546  20667600.992                    20667607.387
 125634086.689 6  97896758.35043  23907379.203                    23907390.191
 11  8 27  0  4 30.0000000  0  9G04G10G12G17G05G25G09G02G30
 116034242.820 7  90416423.58445  22080560.023                    22080569.363
 109877401.871 8  85618910.68046  20908953.414                    20908961.875
 111567726.662 8  86935958.147 7  21230628.781                    21230636.539
 123053750.447 7  95886121.923 6  23416354.984                    23416366.211
 113167155.103 8  88182292.764 7  21534970.656                    21534979.949
 124723713.691 7  97187392.264 6  23734137.727                    23734150.430
 126383291.583 6  98480565.30443  24049957.742                    24049972.426
 108615157.609 8  84635340.49046  20668750.938                    20668757.121
 125536604.449 7  97820798.21043  23888828.969                    23888839.410
 11  8 27  0  5  0.0000000  0  9G04G10G12G17G05G25G09G02G30
 116113177.346 7  90477930.97245  22095580.359                    22095589.668
 109895290.645 8  85632849.98946  20912357.883                    20912366.332
 111517747.876 8  86897013.669 7  21221118.031                    21221126.434
 123109323.846 7  95929425.787 6  23426931.039                    23426941.371
 113086488.044 8  88119435.421 7  21519619.703                    21519629.566
 124629022.330 7  97113606.871 6  23716119.109                    23716130.770
 126463362.465 6  98542958.04443  24065195.625                    24065209.773
 108621454.074 8  84640246.84446  20669949.063                    20669955.398
 125439396.597 6  97745051.89844  23870331.141                    23870341.523
 11  8 27  0  5 30.0000000  0  9G04G10G12G17G05G25G09G02G30
 116192195.216 7  90539503.31845  22110617.023                    22110626.328
 109913804.184 8  85647276.13546  20915880.383                    20915889.438
 111468249.091 8  86858443.219 7  21211698.898                    21211706.840
 123165070.481 7  95972864.641 6  23437539.281                    23437549.781
 113006200.308 8  88056873.647 7  21504341.250                    21504351.078
 124534568.059 7  97040006.193 6  23698144.508                    23698157.340
 126543514.116 7  98605413.73743  24080447.406                    24080461.902
 108628002.321 8  84645349.38746  20671195.539                    20671201.699
 125342466.057 6  97669521.63843  23851885.656                    23851895.234
 11  8 27  0  6  0.0000000  0  9G04G10G12G17G05G25G09G02G30
 116271294.501 7  90601139.12245  22125669.008                    22125678.633
 109932941.448 8  85662188.30046  20919522.766                    20919531.215
 111419232.107 8  86820248.195 7  21202371.008                    21202379.379
 123220990.561 6  96016438.657 6  23448180.602                    23448191.586
 112926294.323 8  87994609.338 7  21489135.789                    21489145.336
 124440353.272 7  96966592.100 6  23680216.336                    23680228.227
 126623743.296 7  98667929.83643  24095715.609                    24095729.172
 108634800.988 8  84650647.07246  20672489.273                    20672495.086
 125245815.177 6  97594209.36543  23833493.086                    23833503.188
 11  8 27  0  6 30.0000000  0  9G04G10G12G17G05G25G09G02G30
 116350473.775 7  90662837.22445  22140736.188                    22140746.172
 109952702.251 8  85677586.33046  20923282.664                    20923291.539
 111370699.417 8  86782430.546 7  21193135.813                    21193143.539
 123277084.773 7  96060148.409 6  23458854.242                    23458866.164
 112846773.319 8  87932645.030 7  21474003.266                    21474012.773
 124346381.069 7  96893367.072 6  23662333.477                    23662345.395
 126704047.125 6  98730504.12243  24110997.031                    24111011.148
 108641849.326 8  84656139.31246  20673830.211                    20673836.195
 125149447.504 6  97519117.74643  23815155.391                    23815164.668
 11  8 27  0  7  0.0000000  0  9G04G10G12G17G05G25G09G02G30
 116429731.317 7  90724596.29745  22155818.625                    22155828.660
 109973085.908 8  85693469.71646  20927161.531                    20927170.188
 111322652.804 8  86744991.665 7  21183992.805                    21184000.863
 123333353.741 7  96103994.273 6  23469562.586                    23469573.059
 112767639.427 7  87870982.349 7  21458944.359                    21458954.016
 124252653.932 7  96820332.979 6  23644498.438                    23644510.164
 126784421.912 6  98793133.69243  24126291.352                    24126305.742
 108649146.110 8  84661825.14346  20675218.953                    20675224.859
 125053365.363 6  97444248.61843  23796871.344                    23796882.238
 11  8 27  0  7 30.0000000  0  9G04G10G12G17G05G25G09G02G30
 116509065.279 7  90786414.93745  22170915.984                    22170925.477
 109994091.686 8  85709837.86446  20931158.781                    20931167.711
 111275094.046 8  86707932.919 7  21174942.281                    21174950.441
 123389797.514 7  96147976.372 6  23480303.164                    23480314.305
 112688895.286 8  87809623.372 7  21443959.734                    21443969.742
 124159174.434 7  96747491.917 6  23626709.711                    23626722.574
 126864864.483 6  98855816.02743  24141599.492                    24141613.816
 108656689.619 8  84667703.22646  20676654.414                    20676660.367
 124957571.691 6  97369604.25943  23778642.922                    23778652.578
 11  8 27  0  8  0.0000000  0  9G04G10G12G17G05G25G09G02G30
 116588474.158 7  90848291.97945  22186026.719                    22186035.754
 110015719.093 8  85726690.39346  20935274.102                    20935283.363
 111228025.400 8  86671256.087 7  21165985.469                    21165993.758
 123446416.951 7  96192095.346 6  23491077.625                    23491088.379
 112610543.565 8  87748570.179 7  21429049.516                    21429059.582
 124065945.446 7  96674846.019 6  23608968.820                    23608980.590
 126945371.864 6  98918548.89443  24156919.789                    24156933.930
 108664479.350 8  84673773.17246  20678136.609                    20678142.578
 124862069.353 6  97295186.91043  23760468.758                    23760478.805
 11  8 27  0  8 30.0000000  0  9G04G10G12G17G05G25G09G02G30
 116667956.222 7  90910226.03345  22201151.430                    22201160.973
 110037967.522 8  85744026.85146  20939508.234                    20939516.867
 111181448.828 8  86634962.692 7  21157122.188                    21157130.867
 123503212.271 7  96236351.402 6  23501885.523                    23501896.859
 112532587.061 7  87687824.956 7  21414215.359                    21414224.773
 123972969.749 7  96602397.518 6  23591275.578                    23591287.934
 127025940.902 6  98981329.73143  24172251.922                    24172266.125
 108672513.887 8  84680033.87646  20679666.016                    20679671.445
 124766861.339 6  97220998.91043  23742350.984                    23742361.770
 11  8 27  0  9  0.0000000  0  9G04G10G12G17G05G25G09G02G30
 116747509.832 7  90972215.82845  22216290.055                    22216299.512
 110060835.922 8  85761846.41346  20943859.664                    20943868.414
 111135365.920 8  86599053.977 7  21148353.227                    21148360.988
 123560184.231 7  96280745.091 6  23512726.742                    23512738.109
 112455028.273 8  87627389.627 7  21399456.258                    21399465.480
 123880249.740 7  96530148.228 6  23573631.000                    23573644.059
 127106567.870 6  99044155.72743  24187593.758                    24187609.332
 108680791.918 8  84686484.30946  20681240.727                    20681246.773
 124671950.202 6  97147042.25743  23724290.328                    23724300.660
 11  8 27  0  9 30.0000000  0  9G04G10G12G17G05G25G09G02G30
 116827133.208 7  91034259.98345  22231442.055                    22231451.797
 110084323.177 8  85780148.19446  20948329.195                    20948338.000
 111089778.588 8  86563531.415 7  21139678.055                    21139685.969
 123617332.968 6  96325276.512 6  23523602.031                    23523613.188
 112377869.657 8  87567266.143 7  21384773.242                    21384782.809
 123787788.226 7  96458100.392 6  23556036.977                    23556048.680
 127187249.818 6  99107024.52943  24202947.766                    24202962.645
 108689312.139 8  84693123.46046  20682862.211                    20682868.262
 124577338.934 7  97073319.17943  23706286.430                    23706296.445
 11  8 27  0 10  0.0000000  0  9G04G10G12G17G05G25G09G02G30
 116906824.797 7  91096357.31445  22246606.625                    22246616.410
 110108428.819 8  85798931.83346  20952916.234                    20952925.129
 111044689.036 8  86528396.745 7  21131097.531                    21131106.012
 123674659.037 7  96369946.119 6  23534510.719                    23534521.910
 112301113.780 8  87507456.456 7  21370167.008                    21370176.652
 123695587.857 7  96386256.055 7  23538491.656                    23538504.121
 127267983.296 6  99169933.56844  24218310.836                    24218325.980
 108698073.323 8  84699950.38846  20684528.922                    20684534.914
 124483030.257 6  96999831.89943  23688339.992                    23688349.480
 11  8 27  0 10 30.0000000  0  9G04G10G12G17G05G25G09G02G30
 116986582.889 7  91158506.46445  22261784.000                    22261793.359
 110133151.622 8  85818196.38246  20957620.922                    20957629.914
 111000099.224 8  86493651.478 7  21122612.359                    21122620.328
 123732162.930 6  96414754.314 6  23545453.648                    23545464.641
 112224763.483 8  87447962.813 7  21355638.250                    21355647.680
 123603651.393 7  96314617.338 7  23520996.477                    23521008.461
 127348765.226 7  99232880.34444  24233683.328                    24233697.855
 108707074.416 8  84706964.24246  20686242.141                    20686248.086
 124389026.938 6  96926582.56443  23670451.328                    23670462.258
 11  8 27  0 11  0.0000000  0  9G04G10G12G17G05G25G09G02G30
 117066405.901 7  91220706.19445  22276974.070                    22276983.508
 110158491.020 8  85837941.38846  20962442.969                    20962451.875
 110956010.976 8  86459297.029 7  21114222.859                    21114230.293
 123789845.188 7  96459701.506 6  23556430.125                    23556440.879
 112148820.684 8  87388786.705 7  21341186.578                    21341196.293
 123511981.442 7  96243186.307 7  23503552.234                    23503564.691
 127429592.148 7  99295862.19543  24249064.547                    24249079.254
 108716314.165 8  84714164.07546  20688000.078                    20688006.484
 124295332.003 7  96853573.52744  23652622.422                    23652632.449
 11  8 27  0 11 30.0000000  0  9G04G10G12G17G05G25G09G02G30
 117146291.793 7  91282954.91145  22292176.172                    22292185.281
 110184445.521 8  85858165.70446  20967381.859                    20967390.840
 110912425.590 8  86425334.427 7  21105928.609                    21105936.785
 123847706.217 7  96504787.986 6  23567440.094                    23567452.297
 112073287.902 8  87329930.078 7  21326813.305                    21326822.297
 123420580.207 7  96171964.670 7  23486159.164                    23486171.391
 127510460.670 6  99358876.43044  24264453.578                    24264468.090
 108725790.954 8  84721548.59946  20689803.734                    20689809.855
 124201947.695 7  96780806.58343  23634851.773                    23634861.887
 11  8 27  0 12  0.0000000  0  9G04G10G12G17G05G25G09G02G30
 117226239.747 7  91345252.00245  22307389.922                    22307398.758
 110211014.950 8  85878869.18346  20972437.648                    20972446.402
 110869345.558 8  86391765.607 7  21097730.945                    21097738.883
 123905746.094 7  96550013.851 6  23578485.820                    23578496.629
 111998168.211 8  87271395.363 7  21312518.063                    21312527.797
 123329451.106 7  96100955.061 7  23468817.750                    23468830.414
 127591367.978 7  99421920.85343  24279849.938                    24279864.715
 108735504.068 8  84729117.26746  20691651.891                    20691658.086
 124108877.444 6  96708284.34343  23617141.000                    23617150.906
 11  8 27  0 12 30.0000000  0  9G04G10G12G17G05G25G09G02G30
 117306247.979 7  91407596.06945  22322614.289                    22322624.129
 110238198.062 8  85900050.87446  20977610.375                    20977619.301
 110826772.717 8  86358591.999 7  21089629.656                    21089637.418
 123963965.686 7  96595379.728 6  23589564.391                    23589575.434
 111923463.907 8  87213184.319 7  21298302.117                    21298311.758
 123238596.670 7  96030159.455 7  23451528.641                    23451540.656
 127672310.780 6  99484992.91044  24295253.320                    24295268.055
 108745452.601 8  84736869.38646  20693545.250                    20693550.848
 124016124.116 6  96636009.07043  23599490.922                    23599500.383
 11  8 27  0 13  0.0000000  0  9G04G10G12G17G05G25G09G02G30
 117386314.722 7  91469985.71545  22337850.445                    22337859.824
 110265993.855 7  85921709.96146  20982899.648                    20982908.945
 110784708.728 8  86325814.890 7  21081625.000                    21081632.781
 124022365.060 6  96640885.693 6  23600676.992                    23600688.008
 111849177.504 8  87155298.899 7  21284165.883                    21284175.566
 123148019.416 7  95959579.855 7  23434292.367                    23434304.035
 127753285.879 6  99548090.15043  24310662.000                    24310677.711
 108755634.713 8  84744803.51646  20695482.688                    20695488.895
 123923690.172 6  96563982.69144  23581899.805                    23581911.305
 11  8 27  0 13 30.0000000  0  9G04G10G12G17G05G25G09G02G30
 117466438.527 7  91532419.82145  22353097.367                    22353107.531
 110294401.445 8  85943845.76946  20988305.461                    20988314.492
 110743155.440 8  86293435.734 7  21073717.625                    21073725.566
 124080944.890 7  96686532.269 6  23611824.828                    23611836.035
 111775311.474 8  87097741.053 7  21270109.406                    21270119.074
 123057722.142 7  95889218.392 6  23417109.141                    23417120.902
 127834290.165 6  99611210.12543  24326076.609                    24326092.262
 108766049.539 8  84752918.97346  20697464.438                    20697470.648
 123831578.696 6  96492207.56944  23564372.734                    23564382.895
 11  8 27  0 14  0.0000000  0  9G04G10G12G17G05G25G09G02G30
 117546617.436 7  91594896.85045  22368355.344                    22368364.688
 110323419.487 8  85966457.26146  20993827.859                    20993836.129
 110702114.426 8  86261455.739 7  21065907.719                    21065915.828
 124139705.524 6  96732319.724 6  23623005.742                    23623017.887
 111701867.942 8  87040512.422 7  21256133.898                    21256142.941
 122967707.340 7  95819077.070 7  23399980.125                    23399992.484
 127915320.442 6  99674350.37043  24341497.305                    24341511.805
 108776695.654 8  84761214.64846  20699490.055                    20699496.293
 123739792.140 6  96420685.69344  23546905.328                    23546916.613
 11  8 27  0 14 30.0000000  0  9G04G10G12G17G05G25G09G02G30
 117626850.339 7  91657415.97645  22383623.094                    22383633.051
 110353046.961 8  85989543.63246  20999465.391                    20999473.809
 110661587.255 8  86229876.148 7  21058195.297                    21058203.121
 124198647.196 6  96778248.238 6  23634222.602                    23634234.047
 111628850.062 8  86983615.476 7  21242238.813                    21242248.242
 122877977.653 7  95749157.913 7  23382904.656                    23382916.621
 127996373.339 6  99737508.30343  24356920.547                    24356935.230
 108787571.507 8  84769689.34846  20701559.734                    20701566.133
 123648333.337 6  96349419.21043  23529502.297                    23529512.500
 11  8 27  0 15  0.0000000  0  9G04G10G12G17G05G25G09G02G30
 117707135.470 7  91719975.76745  22398900.984                    22398910.910
 110383282.970 8  86013104.19646  21005219.063                    21005227.629
 110621575.949 8  86198698.531 7  21050581.836                    21050589.676
 124257770.467 6  96824318.260 6  23645473.023                    23645484.457
 111556259.187 8  86927051.254 7  21228425.375                    21228434.270
 122788535.872 7  95679463.082 6  23365884.438                    23365896.137
 128077445.887 6  99800681.53743  24372347.820                    24372362.676
 108798676.668 8  84778342.72746  20703673.367                    20703679.309
 123557205.177 6  96278410.36144  23512161.375                    23512171.379
 11  8 27  0 15 30.0000000  0  9G04G10G12G17G05G25G09G02G30
 117787471.240 7  91782575.04145  22414188.609                    22414198.031
 110414125.628 8  86037137.45646  21011088.625                    21011097.152
 110582082.378 8  86167924.334 7  21043066.297                    21043074.473
 124317075.450 6  96870529.869 6  23656758.656                    23656770.430
 111484097.985 8  86870821.837 7  21214693.195                    21214702.504
 122699384.564 7  95609994.607 6  23348919.477                    23348931.383
 128158534.741 6  99863867.39943  24387778.828                    24387793.863
 108810009.182 8  84787173.25146  20705829.797                    20705835.945
 123466410.404 6  96207661.28544  23494883.563                    23494893.629
 11  8 27  0 16  0.0000000  0  9G04G10G12G17G05G25G09G02G30
 117867856.342 7  91845212.75945  22429484.766                    22429494.766
 110445574.206 8  86061642.86746  21017072.742                    21017081.688
 110543108.027 8  86137554.722 7  21035649.742                    21035657.188
 124376562.822 7  96916883.599 6  23668078.844                    23668090.574
 111412369.316 8  86814929.460 7  21201043.844                    21201052.969
 122610526.564 7  95540754.687 6  23332010.586                    23332021.938
 128239636.847 6  99927063.65043  24403211.820                    24403227.133
 108821568.310 8  84796180.37246  20708029.539                    20708035.625
 123375951.847 7  96137174.21644  23477669.203                    23477679.668
 11  8 27  0 16 30.0000000  0  9G04G10G12G17G05G25G09G02G30
 117948289.593 7  91907887.98145  22444791.070                    22444800.766
 110477628.143 7  86086619.98646  21023172.563                    21023181.168
 110504654.960 8  86107591.302 7  21028332.570                    21028340.367
 124436233.179 6  96963379.924 6  23679434.188                    23679445.102
 111341075.917 8  86759376.252 7  21187476.992                    21187486.102
 122521964.838 7  95471745.693 6  23315157.625                    23315169.586
 128320749.170 6  99990267.79843  24418647.438                    24418662.914
 108833353.508 8  84805363.65046  20710272.406                    20710278.063
 123285832.625 6  96066951.51644  23460520.016                    23460529.945
 11  8 27  0 17  0.0000000  0  9G04G10G12G17G05G25G09G02G30
 118028768.944 7  91970599.11944  22460105.602                    22460116.004
 110510285.804 7  86112067.54046  21029386.813                    21029395.738
 110466724.259 8  86078034.929 7  21021114.531                    21021122.387
 124496086.555 6  97010018.849 6  23690823.656                    23690835.219
 111270219.513 8  86704163.554 7  21173994.133                    21174002.273
 122433701.532 7  95402969.186 7  23298361.352                    23298373.195
 128401868.263 6 100053477.24343  24434084.430                    24434100.082
 108845362.399 8  84814721.22546  20712557.445                    20712563.719
 123196054.967 7  95996994.97544  23443436.461                    23443446.039
 11  8 27  0 17 30.0000000  0  9G04G10G12G17G05G25G09G02G30
 118109293.038 7  92033345.12644  22475429.117                    22475438.852
 110543545.994 7  86137984.58946  21035716.125                    21035724.949
 110429318.102 8  86048887.292 7  21013996.070                    21014004.113
 124556123.332 6  97056800.680 6  23702248.547                    23702259.520
 111199802.611 8  86649293.342 7  21160593.516                    21160602.652
 122345739.513 7  95334427.477 7  23281623.125                    23281634.656
 128482991.128 6 100116689.58543  24449522.445                    24449537.227
 108857594.295 8  84824252.59646  20714884.938                    20714890.344
 123106621.887 7  95927306.95044  23426417.852                    23426427.758
 11  8 27  0 18  0.0000000  0  9G04G10G12G17G05G25G09G02G30
 118189860.466 7  92096124.89145  22490760.516                    22490770.320
 110577407.317 8  86164370.05546  21042159.727                    21042168.152
 110392437.516 8  86020149.186 7  21006978.102                    21006985.633
 124616343.824 6  97103725.687 6  23713707.258                    23713720.066
 111129827.487 8  86594767.357 7  21147277.875                    21147286.852
 122258081.352 7  95266122.516 7  23264942.211                    23264953.637
 128564114.687 6 100179902.51543  24464959.344                    24464974.914
 108870047.919 8  84833956.72646  20717254.898                    20717260.746
 123017536.063 7  95857889.48144  23409464.781                    23409474.121
 11  8 27  0 18 30.0000000  0  9G04G10G12G17G05G25G09G02G30
 118270469.530 7  92158937.10844  22506099.805                    22506109.879
 110611868.444 8  86191222.90746  21048717.531                    21048726.109
 110356084.247 8  85991821.980 7  21000060.227                    21000067.734
 124676748.400 7  97150794.099 6  23725202.859                    23725214.184
 111060296.336 8  86540587.326 7  21134046.344                    21134055.301
 122170729.583 7  95198056.300 7  23248319.398                    23248330.875
 128645235.619 6 100243113.38744  24480396.633                    24480412.281
 108882721.671 8  84843832.39146  20719666.352                    20719672.445
 122928800.040 6  95788744.59243  23392579.227                    23392589.367
 11  8 27  0 19  0.0000000  0  9G04G10G12G17G05G25G09G02G30
 118351119.134 7  92221780.91045  22521447.492                    22521456.848
 110646928.148 8  86218542.16246  21055389.094                    21055398.047
 110320260.221 8  85963907.170 7  20993243.438                    20993251.113
 124737337.486 6  97198006.294 6  23736732.086                    23736743.629
 110991211.704 8  86486755.227 7  21120899.984                    21120908.988
 122083687.063 7  95130231.077 7  23231755.711                    23231767.391
 128726350.868 6 100306319.84144  24495832.164                    24495847.766
 108895614.847 8  84853879.03646  20722119.727                    20722125.469
 122840417.007 7  95719874.76244  23375760.023                    23375769.520
 11  8 27  0 19 30.0000000  0  9G04G10G12G17G05G25G09G02G30
 118431807.512 7  92284654.91844  22536801.703                    22536811.152
 110682585.024 8  86246326.74646  21062174.109                    21062183.141
 110284966.849 8  85936405.856 7  20986526.922                    20986534.758
 124798111.481 7  97245362.597 6  23748297.547                    23748309.047
 110922575.838 8  86433272.812 7  21107839.289                    21107847.641
 121996956.401 7  95062648.822 7  23215251.227                    23215262.469
 128807457.515 7 100369519.59244  24511266.805                    24511282.383
 108908726.344 8  84864095.79746  20724614.938                    20724621.020
 122752389.501 7  95651281.97044  23359009.133                    23359018.867
 11  8 27  0 20  0.0000000  0  9G04G10G12G17G05G25G09G02G30
 118512533.430 7  92347558.16244  22552163.172                    22552173.281
 110718837.828 8  86274575.68846  21069073.039                    21069081.855
 110250205.673 8  85909319.251 7  20979912.047                    20979920.332
 124859070.602 6  97292863.143 6  23759897.320                    23759909.230
 110854390.778 8  86380141.678 7  21094863.344                    21094872.340
 121910540.134 7  94995311.549 7  23198806.922                    23198818.617
 128888552.322 7 100432710.11944  24526698.250                    24526714.375
 108922054.770 8  84874481.59946  20727151.250                    20727157.301
 122664720.226 7  95582968.33044  23342325.930                    23342335.813
 11  8 27  0 20 30.0000000  0  9G04G10G12G17G05G25G09G02G30
 118593295.446 7  92410489.55144  22567531.883                    22567541.699
 110755684.929 8  86303287.73146  21076084.891                    21076093.145
 110215978.094 8  85882648.434 7  20973398.578                    20973406.738
 124920215.060 7  97340508.110 6  23771533.531                    23771544.477
 110786659.102 8  86327363.830 8  21081974.602                    21081983.379
 121824441.044 7  94928221.435 7  23182422.523                    23182435.055
 128969632.372 6 100495889.14144  24542127.805                    24542143.504
 108935598.819 8  84885035.42746  20729728.516                    20729734.906
 122577411.917 6  95514936.02843  23325711.047                    23325721.484
 11  8 27  0 21  0.0000000  0  9G04G10G12G17G05G25G09G02G30
 118674092.043 7  92473447.88645  22582906.742                    22582917.082
 110793125.069 8  86332461.87846  21083208.930                    21083218.352
 110182285.807 8  85856394.707 7  20966987.609                    20966995.051
 124981545.444 6  97388297.945 6  23783203.313                    23783215.117
 110719382.811 8  86274940.831 8  21069172.430                    21069181.586
 121738661.610 7  94861380.383 7  23166099.219                    23166110.922
 129050694.285 6 100559054.00744  24557553.656                    24557570.379
 108949357.171 8  84895756.24346  20732346.875                    20732352.613
 122490467.361 6  95447187.07043  23309166.422                    23309176.090
 11  8 27  0 21 30.0000000  0  9G04G10G12G17G05G25G09G02G30
 118754921.876 7  92536432.08545  22598288.398                    22598298.691
 110831156.778 8  86362096.95846  21090446.664                    21090455.309
 110149130.350 7  85830559.309 7  20960678.000                    20960685.840
 125043062.074 6  97436232.956 6  23794909.461                    23794921.430
 110652564.514 8  86222874.715 8  21056456.852                    21056466.039
 121653204.693 7  94794790.640 7  23149837.805                    23149848.723
 129131735.038 6 100622202.42944  24572975.109                    24572991.789
 108963328.998 8  84906643.40946  20735005.453                    20735011.414
 122403889.415 6  95379723.82744  23292691.406                    23292700.742
 11  8 27  0 22  0.0000000  0  9G04G10G12G17G05G25G09G02G30
 118835783.534 7  92599441.10545  22613676.063                    22613686.102
 110869778.430 8  86392191.75346  21097796.055                    21097804.414
 110116513.039 8  85805143.239 7  20954471.406                    20954478.910
 125104764.899 6  97484313.033 6  23806651.656                    23806663.238
 110586205.933 8  86171166.809 7  21043829.508                    21043838.332
 121568072.762 7  94728454.106 7  23133636.875                    23133649.082
 129212751.737 6 100685332.06943  24588392.563                    24588408.613
 108977512.890 8  84917695.82346  20737704.367                    20737710.082
 122317680.489 6  95312548.13144  23276285.953                    23276296.066
 11  8 27  0 22 30.0000000  0  9G04G10G12G17G05G25G09G02G30
 118916675.711 7  92662473.90145  22629069.047                    22629079.832
 110908988.553 8  86422745.10346  21105257.422                    21105265.973
 110084435.355 8  85780147.665 7  20948366.977                    20948374.738
 125166654.299 6  97532538.503 6  23818429.109                    23818439.938
 110520309.596 8  86119819.081 7  21031289.977                    21031298.523
 121483268.402 7  94662372.820 7  23117499.563                    23117511.402
 129293741.219 6 100748440.44843  24603804.109                    24603820.914
 108991907.486 8  84928912.41146  20740443.258                    20740449.762
 122231843.416 7  95245662.21344  23259951.242                    23259961.715
 11  8 27  0 23  0.0000000  0  9G04G10G12G17G05G25G09G02G30
 118997596.937 7  92725529.33845  22644468.695                    22644478.398
 110948785.668 8  86453755.83945  21112830.664                    21112839.289
 110052898.806 8  85755573.747 8  20942365.383                    20942373.668
 125228730.717 6  97580909.687 6  23830241.734                    23830252.750
 110454877.600 8  86068833.187 7  21018838.352                    21018847.516
 121398794.304 7  94596548.882 7  23101424.297                    23101436.617
 129374700.546 6 100811525.34742  24619210.453                    24619227.355
 109006511.926 8  84940292.52946  20743222.930                    20743228.652
 122146380.898 7  95179068.13244  23243689.227                    23243698.789
 11  8 27  0 23 30.0000000  0  9G04G10G12G17G05G25G09G02G30
 119078545.906 7  92788606.40045  22659872.320                    22659882.215
 110989168.527 8  86485223.00046  21120515.281                    21120524.383
 110021904.638 8  85731422.465 7  20936468.453                    20936475.855
 125290994.416 6  97629426.789 6  23842090.391                    23842101.969
 110389912.134 8  86018210.826 7  21006475.586                    21006484.469
 121314653.251 7  94530984.463 7  23085412.914                    23085425.184
 129455626.736 6 100874584.41042  24634609.680                    24634627.563
 109021325.149 8  84951835.33346  20746041.461                    20746047.426
 122061295.826 7  95112768.15444  23227497.055                    23227507.543
 11  8 27  0 24  0.0000000  0  9G04G10G12G17G05G25G09G02G30
 119159521.331 7  92851704.06645  22675281.406                    22675291.699
 111030135.463 8  86517145.28445  21128311.008                    21128319.383
 109991454.078 8  85707694.776 7  20930673.313                    20930680.832
 125353445.610 6  97678090.022 6  23853974.359                    23853986.559
 110325415.529 8  85967953.806 8  20994202.594                    20994210.844
 121230847.791 7  94465681.536 7  23069465.148                    23069477.031
 129536516.602 6 100937615.18142  24650003.180                    24650020.000
 109036345.591 8  84963539.59246  20748900.156                    20748905.891
 121976590.742 7  95046764.28744  23211378.148                    23211389.133
 11  8 27  0 24 30.0000000  0  9G04G10G12G17G05G25G09G02G30
 119240521.853 7  92914821.29545  22690695.125                    22690705.551
 111071684.742 8  86549521.35546  21136217.680                    21136225.918
 109961549.180 8  85684392.271 7  20924982.602                    20924990.313
 125416084.635 6  97726899.596 6  23865894.063                    23865905.332
 110261389.546 8  85918063.516 7  20982018.570                    20982027.566
 121147380.474 7  94400642.089 7  23053582.016                    23053593.590
 129617367.176 6 101000615.35042  24665388.961                    24665405.508
 109051572.285 8  84975404.58746  20751797.648                    20751803.539
 121892268.283 7  94981058.58144  23195333.023                    23195342.742
 11  8 27  0 25  0.0000000  0  9G04G10G12G17G05G25G09G02G30
 119321545.853 7  92977956.82944  22706113.734                    22706123.152
 111113814.533 8  86582349.77246  21144234.570                    21144243.000
 109932190.568 8  85661515.448 7  20919395.656                    20919404.074
 125478911.682 6  97775855.688 6  23877850.102                    23877861.152
 110197836.305 8  85868541.583 7  20969924.852                    20969933.859
 121064253.834 7  94335868.112 7  23037763.727                    23037774.902
 129698175.280 6 101063582.39142  24680766.195                    24680783.594
 109067003.960 8  84987429.30846  20754733.930                    20754739.816
 121808331.060 7  94915653.01244  23179359.852                    23179368.980
 11  8 27  0 25 30.0000000  0  9G04G10G12G17G05G25G09G02G30
 119402592.404 7  93041109.94444  22721536.531                    22721546.441
 111156523.623 7  86615629.59146  21152361.867                    21152370.848
 109903379.895 8  85639065.610 7  20913913.383                    20913921.246
 125541927.122 6  97824958.604 6  23889841.914                    23889852.871
 110134758.269 8  85819389.936 8  20957921.469                    20957930.637
 120981470.646 7  94271361.753 7  23022010.445                    23022022.230
 129778937.965 6 101126514.09042  24696135.570                    24696152.500
 109082639.424 8  84999612.82246  20757709.070                    20757715.715
 121724781.952 7  94850549.87844  23163460.797                    23163470.457
 11  8 27  0 26  0.0000000  0  9G04G10G12G17G05G25G09G02G30
 119483660.084 7  93104279.53344  22736963.203                    22736972.828
 111199810.338 7  86649359.50846  21160598.469                    21160607.680
 109875118.500 8  85617043.760 7  20908535.180                    20908543.254
 125605131.067 6  97874208.358 6  23901869.016                    23901879.945
 110072157.189 8  85770609.957 7  20946009.000                    20946017.512
 120899033.416 7  94207125.011 7  23006323.477                    23006335.270
 129859652.126 6 101189407.91543  24711495.594                    24711511.453
 109098477.461 8  85011954.17246  20760723.000                    20760729.035
 121641623.506 7  94785751.17344  23147636.289                    23147645.934
 11  8 27  0 26 30.0000000  0  9G04G10G12G17G05G25G09G02G30
 119564747.515 7  93167464.51944  22752394.188                    22752403.781
 111243672.963 8  86683538.19345  21168945.773                    21168954.332
 109847407.251 8  85595450.605 7  20903262.133                    20903269.773
 125668523.632 6  97923605.129 6  23913932.305                    23913943.406
 110010035.333 8  85722203.391 7  20934187.250                    20934195.465
 120816944.744 7  94143159.866 7  22990702.227                    22990713.434
 129940315.010 7 101252261.82743  24726845.281                    24726861.063
 109114516.820 8  85024452.39046  20763775.375                    20763781.242
 121558858.252 7  94721258.83344  23131886.508                    23131896.449
 11  8 27  0 27  0.0000000  0  9G04G10G12G17G05G25G09G02G30
 119645853.313 7  93230663.78744  22767827.961                    22767838.141
 111288109.587 7  86718164.14246  21177401.906                    21177410.047
 109820247.672 8  85574287.341 7  20898093.820                    20898101.766
 125732105.378 6  97973149.318 6  23926031.133                    23926042.582
 109948394.575 8  85674171.715 7  20922457.063                    20922465.793
 120735207.158 7  94079468.280 6  22975148.047                    22975159.227
 130020923.435 7 101315073.27443  24742184.641                    24742201.254
 109130756.429 8  85037106.66046  20766865.633                    20766871.430
 121476489.004 7  94657075.04344  23116212.844                    23116221.734
 11  8 27  0 27 30.0000000  0  9G04G10G12G17G05G25G09G02G30
 119726976.412 7  93293876.56244  22783264.711                    22783275.020
 111333118.518 8  86753236.06345  21185966.523                    21185975.301
 109793641.178 8  85553555.028 7  20893030.430                    20893038.359
 125795876.530 6  98022841.076 6  23938166.625                    23938178.160
 109887237.040 8  85626516.558 8  20910819.203                    20910827.980
 120653823.382 7  94016052.422 7  22959660.883                    22959673.293
 130101474.434 7 101377840.01543  24757513.883                    24757529.449
 109147195.391 8  85049916.25446  20769994.008                    20769999.988
 121394518.368 7  94593201.88544  23100613.586                    23100623.637
 11  8 27  0 28  0.0000000  0  9G04G10G12G17G05G25G09G02G30
 119808115.523 7  93357101.81144  22798705.008                    22798715.457
 111378697.986 8  86788752.54346  21194640.055                    21194648.891
 109767589.025 8  85533254.691 7  20888072.984                    20888080.855
 125859837.007 6  98072680.368 6  23950338.344                    23950349.066
 109826564.681 8  85579239.470 7  20899273.953                    20899282.254
 120572795.828 7  93952914.155 7  22944242.094                    22944253.855
 130181965.235 7 101440559.78743  24772830.539                    24772846.820
 109163832.101 8  85062879.93246  20773159.750                    20773165.359
 121312948.804 7  94529641.23844  23085091.219                    23085101.199
 11  8 27  0 28 30.0000000  0  9G04G10G12G17G05G25G09G02G30
 119889269.284 7  93420338.47844  22814148.531                    22814157.766
 111424846.255 8  86824712.25146  21203421.484                    21203430.480
 109742092.128 8  85513387.018 7  20883221.055                    20883228.832
 125923987.122 6  98122667.441 6  23962545.344                    23962556.754
 109766379.592 8  85532342.075 7  20887820.945                    20887829.602
 120492127.270 7  93890055.625 7  22928891.008                    22928902.426
 130262392.889 6 101503230.40243  24788134.719                    24788152.473
 109180665.708 8  85075997.04846  20776362.789                    20776368.949
 121231783.191 7  94466395.36644  23069645.859                    23069656.105
 11  8 27  0 29  0.0000000  0  9G04G10G12G17G05G25G09G02G30
 119970436.624 7  93483585.73244  22829593.906                    22829603.891
 111471561.652 8  86861113.85545  21212311.367                    21212320.023
 109717151.654 8  85493952.926 7  20878474.992                    20878482.777
 125988327.093 6  98172802.445 6  23974788.781                    23974800.453
 109706683.484 8  85485825.711 8  20876460.938                    20876469.527
 120411820.102 7  93827478.684 7  22913609.172                    22913620.551
 130342754.409 6 101565849.43443  24803428.313                    24803445.074
 109197694.751 8  85089266.43346  20779603.328                    20779609.262
 121151023.961 7  94403466.10244  23054277.945                    23054287.266
 11  8 27  0 29 30.0000000  0  9G04G10G12G17G05G25G09G02G30
 120051616.040 7  93546842.39044  22845042.000                    22845051.613
 111518842.459 8  86897956.05846  21221308.859                    21221317.230
 109692768.804 8  85474953.332 7  20873834.984                    20873842.914
 126052857.162 7  98223085.558 6  23987068.680                    23987080.180
 109647478.436 8  85439691.975 8  20865194.602                    20865203.246
 120331876.909 7  93765185.380 7  22898396.391                    22898407.813
 130423046.868 6 101628414.67143  24818706.734                    24818724.891
 109214918.342 8  85102687.41746  20782881.070                    20782887.398
 121070673.755 7  94340855.61444  23038987.656                    23038997.527
 11  8 27  0 30  0.0000000  0  9G04G10G12G17G05G25G09G02G30
 120132806.388 7  93610107.56944  22860491.992                    22860501.898
 111566686.464 8  86935237.11645  21230413.219                    21230421.926
 109668944.651 8  85456389.090 8  20869301.367                    20869309.117
 126117577.608 6  98273517.030 6  23999384.508                    23999396.285
 109588766.528 8  85393942.510 8  20854021.922                    20854030.465
 120252300.167 7  93703177.619 7  22883253.461                    22883265.203
 130503267.339 6 101690923.83643  24833973.500                    24833990.090
 109232335.030 8  85116258.86646  20786195.305                    20786201.234
 120990735.113 7  94278565.80644  23023775.969                    23023785.473
 11  8 27  0 30 30.0000000  0  9G04G10G12G17G05G25G09G02G30
 120214006.768 7  93673380.57744  22875943.672                    22875953.582
 111615092.093 8  86972955.80446  21239624.852                    21239633.359
 109645680.315 8  85438261.074 7  20864874.547                    20864882.313
 126182488.642 6  98324097.018 6  24011736.336                    24011748.473
 109530549.954 8  85348579.022 8  20842943.609                    20842952.020
 120173092.634 7  93641457.528 7  22868180.531                    22868191.547
 130583412.885 6 101753374.60443  24849224.945                    24849241.668
 109249944.050 8  85129980.18346  20789546.547                    20789552.164
 120911210.757 7  94216598.82244  23008642.797                    23008652.617
 11  8 27  0 31  0.0000000  0  9G04G10G12G17G05G25G09G02G30
 120295215.942 7  93736660.43344  22891397.398                    22891407.227
 111664057.918 8  87011111.00245  21248942.063                    21248951.090
 109622977.480 8  85420570.587 7  20860554.453                    20860561.906
 126247590.905 6  98374826.009 6  24024124.820                    24024136.473
 109472830.565 8  85303602.939 8  20831960.000                    20831968.973
 120094257.182 7  93580027.400 7  22853178.352                    22853189.902
 130663481.060 6 101815765.12043  24864461.578                    24864478.598
 109267744.514 8  85143850.67846  20792933.742                    20792939.797
 120832103.736 7  94154957.03944  22993589.531                    22993598.965
 11  8 27  0 31 30.0000000  0  8G04G10G12G17G05G25G02G30
 120376433.833 7  93799947.06244  22906852.070                    22906862.617
 111713582.707 8  87049701.75146  21258366.891                    21258375.137
 109600837.882 8  85403318.974 7  20856341.242                    20856348.938
 126312884.826 6  98425704.339 6  24036549.781                    24036561.848
 109415610.810 8  85259016.182 8  20821071.508                    20821080.004
 120015797.107 7  93518889.757 7  22838247.984                    22838259.867
 109285735.976 8  85157870.00946  20796357.102                    20796363.582
 120753417.287 7  94093642.95644  22978616.008                    22978625.387
 11  8 27  0 32  0.0000000  0  8G04G10G12G17G05G25G02G30
 120457657.939 7  93863238.52244  22922309.281                    22922318.648
 111763663.532 7  87088725.78446  21267896.453                    21267905.539
 109579261.312 8  85386506.099 8  20852235.352                    20852243.207
 126378369.877 6  98476731.602 6  24049010.938                    24049023.449
 109358892.168 8  85214819.907 7  20810278.102                    20810286.496
 119937713.749 7  93458045.660 7  22823389.070                    22823400.680
 109303916.060 8  85172036.31446  20799816.164                    20799822.531
 120675152.865 7  94032657.74244  22963722.422                    22963731.793
 11  8 27  0 32 30.0000000  0  8G04G10G12G17G05G25G02G30
 120538886.819 7  93926533.73044  22937766.742                    22937776.520
 111814298.073 7  87128181.27746  21277531.727                    21277540.402
 109558248.608 8  85370132.591 7  20848236.156                    20848244.410
 126444045.784 6  98527907.611 6  24061509.047                    24061520.824
 109302675.418 8  85171014.711 7  20799580.430                    20799589.180
 119860009.345 7  93397496.852 7  22808602.461                    22808613.871
 109322283.375 8  85186348.50746  20803311.586                    20803317.477
 120597312.566 7  93972003.02144  22948909.914                    22948919.695
 11  8 27  0 33  0.0000000  0  8G04G10G12G17G05G25G02G30
 120620119.749 6  93989832.09644  22953224.727                    22953234.641
 111865484.508 8  87168066.81345  21287272.250                    21287281.504
 109537800.815 8  85354199.268 7  20844345.594                    20844353.434
 126509912.959 6  98579232.657 6  24074043.375                    24074055.227
 109246962.993 8  85127602.495 8  20788978.547                    20788987.020
 119782686.826 7  93337245.587 7  22793888.555                    22793899.797
 109340837.492 8  85200806.26746  20806842.742                    20806848.516
 120519899.494 7  93911681.22344  22934178.602                    22934188.504
 11  8 27  0 33 30.0000000  0  8G04G10G12G17G05G25G02G30
 120701354.994 7  94053132.23744  22968683.008                    22968693.086
 111917220.519 8  87208380.59646  21297117.328                    21297126.418
 109517918.959 8  85338706.932 7  20840561.875                    20840569.836
 126575971.168 6  98630706.567 6  24086614.164                    24086625.121
 109191756.288 8  85084584.340 8  20778472.930                    20778481.637
 119705747.981 7  93277293.292 7  22779247.523                    22779259.195
 109359576.513 8  85215408.10746  20810408.336                    20810414.379
 120442915.370 7  93851693.68144  22919529.102                    22919538.359
 11  8 27  0 34  0.0000000  0  8G04G10G12G17G05G25G02G30
 120782591.618 7  94116433.48244  22984142.125                    22984152.180
 111969504.467 8  87249121.34045  21307066.141                    21307075.109
 109498603.384 8  85323655.854 7  20836886.586                    20836894.582
 126642220.738 6  98682329.610 6  24099220.156                    24099232.605
 109137057.259 8  85041961.789 8  20768064.133                    20768072.535
 119629195.716 7  93217642.227 7  22764680.102                    22764691.441
 109378499.416 8  85230153.23546  20814009.305                    20814015.418
 120366363.170 7  93792042.66344  22904961.805                    22904971.176
 11  8 27  0 34 30.0000000  0  8G04G10G12G17G05G25G02G30
 120863828.634 7  94179735.00744  22999600.492                    22999611.137
 112022334.482 8  87290287.59045  21317119.953                    21317128.352
 109479855.810 8  85309047.375 8  20833319.086                    20833326.570
 126708661.877 7  98734101.938 6  24111864.047                    24111875.262
 109082867.870 8  84999736.349 8  20757752.344                    20757760.598
 119553032.681 7  93158294.465 7  22750186.734                    22750197.848
 109397605.414 8  85245041.03046  20817645.164                    20817651.172
 120290245.485 7  93732730.27144  22890476.914                    22890486.230
 11  8 27  0 35  0.0000000  0  8G04G10G12G17G05G25G02G30
 120945064.884 7  94243035.94444  23015059.594                    23015069.816
 112075707.960 8  87331877.31645  21327276.797                    21327285.082
 109461676.488 8  85294881.675 7  20829859.117                    20829866.852
 126775294.464 7  98786023.413 6  24124543.570                    24124555.949
 109029189.492 8  84957909.099 8  20747537.578                    20747546.465
 119477261.041 7  93099251.660 7  22735767.891                    22735778.973
 109416893.039 8  85260070.35546  20821315.500                    20821321.492
 120214564.507 7  93673758.15444  22876075.414                    22876084.492
 11  8 27  0 35 30.0000000  0  8G04G10G12G17G05G25G02G30
 121026299.343 7  94306335.47944  23030518.500                    23030528.609
 112129623.342 8  87373889.29245  21337536.602                    21337545.215
 109444067.064 8  85281160.059 7  20826508.672                    20826516.137
 126842118.893 6  98838094.404 6  24137259.719                    24137272.309
 108976024.148 8  84916481.622 8  20737420.406                    20737429.145
 119401883.633 8  93040516.058 7  22721424.211                    22721435.578
 109436361.551 8  85275240.63046  20825020.070                    20825026.418
 120139323.150 7  93615128.60444  22861756.914                    22861766.332
 11  8 27  0 36  0.0000000  0  8G04G10G12G17G05G25G02G30
 121107530.958 7  94369632.81644  23045976.664                    23045986.566
 112184078.459 8  87416321.84146  21347898.859                    21347907.707
 109427028.004 8  85267882.880 8  20823266.125                    20823274.273
 126909135.123 6  98890314.796 6  24150012.391                    24150024.547
 108923373.551 8  84875455.243 8  20727401.586                    20727410.289
 119326902.722 7  92982089.433 7  22707155.805                    22707167.184
 109456009.495 8  85290550.73046  20828758.914                    20828764.668
 120064523.608 7  93556843.31844  22847523.313                    22847532.621
 11  8 27  0 36 30.0000000  0  8G04G10G12G17G05G25G02G30
 121188758.175 7  94432926.71044  23061433.203                    23061443.891
 112239070.993 8  87459173.16045  21358363.156                    21358372.176
 109410559.679 8  85255050.429 7  20820132.391                    20820140.117
 126976343.175 6  98942684.648 6  24162802.016                    24162813.313
 108871239.031 8  84834830.998 8  20717480.430                    20717488.832
 119252320.610 7  92923973.530 7  22692963.086                    22692974.242
 109475835.408 8  85305999.49746  20832532.055                    20832537.742
 119990168.067 7  93498903.98144  22833373.938                    22833383.055
 11  8 27  0 37  0.0000000  0  8G04G10G12G17G05G25G02G30
 121269980.497 7  94496216.80344  23076889.344                    23076899.398
 112294599.156 8  87502441.84245  21368930.469                    21368938.926
 109394663.479 8  85242663.780 8  20817107.320                    20817114.871
 127043743.489 6  98995204.277 6  24175628.203                    24175639.859
 108819622.672 8  84794610.520 8  20707658.180                    20707666.352
 119178140.086 7  92866170.578 7  22678846.852                    22678858.180
 109495839.112 8  85321586.80346  20836338.594                    20836344.750
 119916259.582 7  93441313.00144  22819309.500                    22819318.258
 11  8 27  0 37 30.0000000  0  8G04G10G12G17G05G25G02G30
 121351196.687 7  94559502.11244  23092344.398                    23092354.109
 112350660.602 8  87546126.07745  21379598.219                    21379606.895
 109379340.019 8  85230723.431 8  20814191.328                    20814199.160
 127111336.004 6  99047873.721 6  24188490.102                    24188502.266
 108768525.827 8  84754794.856 8  20697934.305                    20697943.426
 119104363.454 7  92808682.346 7  22664807.508                    22664819.137
 109516019.196 8  85337311.55346  20840178.430                    20840184.473
 119842800.187 7  93384071.98544  22805330.977                    22805339.949
 11  8 27  0 38  0.0000000  0  8G04G10G12G17G05G25G02G30
 121432405.755 7  94622781.88244  23107797.844                    23107808.422
 112407253.769 7  87590224.64845  21390367.297                    21390376.609
 109364590.327 8  85219230.160 8  20811384.656                    20811392.090
 127179120.900 6  99100693.059 6  24201389.586                    24201401.043
 108717950.521 8  84715385.589 8  20688310.180                    20688318.512
 119030993.273 7  92751510.805 7  22650845.844                    22650857.348
 109536374.770 8  85353173.04946  20844052.242                    20844057.938
 119769792.645 7  93327183.04144  22791437.266                    22791447.125
 11  8 27  0 38 30.0000000  0  8G04G10G12G17G05G25G02G30
 121513606.810 7  94686055.43644  23123250.063                    23123259.863
 112464376.132 8  87634735.57745  21401237.883                    21401246.520
 109350414.922 8  85208184.390 8  20808687.125                    20808694.887
 127247098.018 6  99153662.204 6  24214325.531                    24214336.398
 108667898.482 8  84676384.062 8  20678785.938                    20678794.340
 118958031.942 7  92694657.876 7  22636961.977                    22636972.965
 109556904.454 8  85369170.21746  20847958.797                    20847964.805
 119697239.160 7  93270647.90244  22777631.063                    22777640.461
 11  8 27  0 39  0.0000000  0  8G04G10G12G17G05G25G02G30
 121594798.575 7  94749321.75144  23138700.156                    23138709.973
 112522025.335 7  87679657.00945  21412207.859                    21412217.191
 109336814.219 8  85197586.452 8  20806098.961                    20806106.898
 127315267.371 6  99206781.164 6  24227297.398                    24227309.844
 108618370.637 8  84637790.990 8  20669360.891                    20669369.508
 118885481.699 7  92638125.268 7  22623155.523                    22623166.582
 109577607.081 8  85385302.14346  20851898.500                    20851904.176
 119625142.089 7  93214468.43544  22763911.031                    22763920.344
 11  8 27  0 39 30.0000000  0  8G04G10G12G17G05G25G02G30
 121675979.903 7  94812579.90944  23154148.406                    23154158.773
 112580199.013 8  87724987.12745  21423278.063                    21423286.758
 109323788.933 8  85187436.875 8  20803620.352                    20803628.008
 127383628.956 6  99260049.939 6  24240305.461                    24240318.000
 108569368.551 8  84599607.604 8  20660036.266                    20660044.727
 118813344.794 7  92581914.730 7  22609428.617                    22609439.441
 109598481.303 8  85401567.78346  20855870.328                    20855876.543
 119553503.600 7  93158646.27444  22750278.930                    22750288.598
 11  8 27  0 40  0.0000000  0  8G04G10G12G17G05G25G02G30
 121757150.225 7  94875829.49244  23169594.781                    23169604.520
 112638895.351 7  87770724.53645  21434447.852                    21434456.105
 109311340.062 8  85177736.467 8  20801251.570                    20801259.418
 127452182.929 6  99313468.566 6  24253352.141                    24253363.445
 108520894.408 8  84561835.605 8  20650811.977                    20650820.000
 118741623.930 7  92526028.406 7  22595779.930                    22595792.266
 109619526.584 8  85417966.71146  20859875.398                    20859881.305
 119482326.459 7  93103183.63344  22736734.813                    22736743.707
 11  8 27  0 40 30.0000000  0  8G04G10G12G17G05G25G02G30
 121838308.044 7  94939069.32144  23185038.578                    23185048.754
 112698111.827 8  87816867.23145  21445715.813                    21445725.672
 109299467.848 8  85168485.395 8  20798992.445                    20799000.172
 127520929.371 6  99367037.193 6  24266434.148                    24266445.328
 108472949.044 8  84524475.643 8  20641688.078                    20641696.355
 118670321.285 7  92470467.956 7  22582211.805                    22582222.387
 109640741.520 8  85434497.84046  20863911.969                    20863917.980
 119411612.653 7  93048082.03444  22723278.219                    22723287.641
 11  8 27  0 41  0.0000000  0  8G04G10G12G17G05G25G02G30
 121919452.413 7  95002298.67544  23200480.023                    23200489.797
 112757845.987 8  87863413.32045  21457083.227                    21457092.055
 109288172.882 8  85159684.134 7  20796842.742                    20796850.711
 127589868.174 6  99420755.718 6  24279552.539                    24279563.805
 108425534.033 8  84487528.941 8  20632665.422                    20632673.395
 118599439.141 7  92415235.169 7  22568723.336                    22568734.473
 109662124.872 8  85451160.20146  20867981.367                    20867987.008
 119341364.612 7  92993343.35244  22709909.805                    22709919.875
 11  8 27  0 41 30.0000000  0  8G04G10G12G17G05G25G02G30
 122000582.369 7  95065516.79843  23215918.078                    23215927.754
 112818095.981 8  87910361.37145  21468548.461                    21468556.555
 109277456.104 8  85151333.406 7  20794803.227                    20794810.984
 127658999.187 6  99474624.015 6  24292707.547                    24292719.504
 108378651.145 8  84450996.876 8  20623743.813                    20623752.070
 118528980.063 7  92360332.039 7  22555315.734                    22555326.969
 109683675.813 8  85467953.14446  20872082.422                    20872088.348
 119271584.767 7  92938969.50744  22696631.703                    22696640.785
 11  8 27  0 42  0.0000000  0  8G04G10G12G17G05G25G02G30
 122081697.564 7  95128723.43943  23231354.180                    23231363.594
 112878859.535 7  87957709.60245  21480111.367                    21480119.742
 109267318.367 8  85143433.871 8  20792874.258                    20792881.855
 127728322.836 6  99528642.406 6  24305900.125                    24305910.883
 108332301.835 8  84414880.577 8  20614923.578                    20614931.559
 118458946.689 7  92305760.626 7  22541988.523                    22541999.707
 109705393.955 7  85484876.38446  20876215.438                    20876221.059
 119202275.748 7  92884962.53944  22683442.367                    22683451.883
 11  8 27  0 42 30.0000000  0  8G04G10G12G17G05G25G02G30
 122162796.390 7  95191917.28844  23246786.359                    23246797.094
 112940134.175 8  88005456.06645  21491771.695                    21491780.207
 109257759.346 8  85135985.300 7  20791054.984                    20791062.672
 127797838.828 6  99582810.653 6  24319128.039                    24319139.992
 108286487.418 8  84379181.095 8  20606205.367                    20606213.566
 118389340.968 7  92251522.446 7  22528743.102                    22528754.156
 109727277.388 8  85501928.40846  20880379.281                    20880385.273
 119133439.461 7  92831323.93344  22670343.594                    22670352.613
 11  8 27  0 43  0.0000000  0  8G04G10G12G17G05G25G02G30
 122243878.301 7  95255097.95144  23262215.789                    23262226.145
 113001917.957 8  88053599.28345  21503528.508                    21503537.281
 109248779.849 8  85128988.303 7  20789346.148                    20789354.582
 127867547.356 7  99637128.939 6  24332393.297                    24332404.805
 108241209.393 8  84343899.564 8  20597589.289                    20597597.625
 118320165.417 7  92197619.465 7  22515579.313                    22515590.691
 109749325.406 8  85519108.68246  20884574.883                    20884580.945
 119065078.358 7  92778055.59044  22657334.516                    22657344.191
 11  8 27  0 43 30.0000000  0  8G04G10G12G17G05G25G02G30
 122324941.984 6  95318264.39544  23277641.766                    23277652.223
 113064207.981 8  88102136.94645  21515382.352                    21515390.754
 109240380.390 8  85122443.279 7  20787748.258                    20787755.813
 127937448.245 6  99691597.109 6  24345694.133                    24345706.473
 108196468.820 8  84309036.835 8  20589075.406                    20589083.773
 118251422.163 7  92144053.354 7  22502497.789                    22502508.773
 109771536.827 8  85536416.28446  20888801.906                    20888807.766
 118997194.524 7  92725159.16044  22644416.461                    22644426.109
 11  8 27  0 44  0.0000000  0  9G04G10G12G17G05G25G29G02G30
 122405986.595 7  95381415.96144  23293064.508                    23293074.359
 113127002.058 7  88151067.40645  21527331.086                    21527339.883
 109232561.228 8  85116350.425 7  20786260.031                    20786268.090
 128007541.293 7  99746215.026 6  24359033.391                    24359044.918
 108152267.199 8  84274594.069 8  20580663.945                    20580672.344
 118183113.457 7  92090825.816 7  22489499.313                    22489510.109
 129636033.78116                  24668930.031
 109793910.418 8  85553850.24246  20893059.344                    20893065.363
 118929790.062 7  92672636.26745  22631590.266                    22631599.727
 11  8 27  0 44 30.0000000  0  9G04G10G12G17G05G25G29G02G30
 122487011.547 7  95444552.23144  23308483.031                    23308493.074
 113190298.352 7  88200389.20245  21539376.000                    21539384.746
 109225323.377 8  85110710.561 7  20784882.945                    20784890.453
 128077826.988 7  99800983.097 6  24372408.109                    24372420.508
 108108606.390 8  84240572.710 8  20572355.141                    20572363.719
 118115242.013 7  92037939.025 7  22476583.672                    22476594.738
 129556048.292 6 100952834.43415  24653709.242                    24653720.203
 109816445.666 8  85571410.17846  20897347.656                    20897353.684
 118862867.967 7  92620489.22044  22618855.023                    22618864.496
 11  8 27  0 45  0.0000000  0  9G04G10G12G17G05G25G29G02G30
 122568016.146 6  95507672.64044  23323897.531                    23323907.984
 113254094.642 7  88250100.57745  21551516.164                    21551525.352
 109218667.436 8  85105524.115 8  20783616.281                    20783623.762
 128148305.545 7  99855901.461 6  24385820.047                    24385831.648
 108065487.503 8  84206973.618 8  20564150.367                    20564158.742
 118047810.228 8  91985394.833 7  22463751.859                    22463762.551
 129475981.222 6 100890444.622 5  24638472.703                    24638483.824
 109839141.798 8  85589095.47346  20901666.570                    20901672.754
 118796430.225 7  92568719.58444  22606212.578                    22606221.504
 11  8 27  0 45 30.0000000  0  9G04G10G12G17G05G25G29G02G30
 122648999.045 6  95570776.14444  23339307.930                    23339318.707
 113318388.132 8  88300199.39345  21563751.086                    21563759.555
 109212593.243 8  85100790.984 7  20782460.000                    20782467.887
 128218976.321 7  99910969.611 6  24399268.672                    24399279.918
 108022911.696 8  84173797.712 8  20556048.484                    20556056.637
 117980820.101 7  91933194.775 7  22451003.813                    22451014.766
 129395832.962 6 100827991.471 6  24623219.859                    24623232.352
 109861997.415 8  85606905.04446  20906015.695                    20906021.832
 118730478.911 7  92517328.99045  22593662.813                    22593671.945
 11  8 27  0 46  0.0000000  0  9G04G10G12G17G05G25G29G02G30
 122729959.287 6  95633861.97444  23354714.258                    23354725.168
 113383176.077 8  88350683.50945  21576079.867                    21576088.133
 109207100.800 7  85096511.160 7  20781414.984                    20781422.820
 128289839.265 7  99966187.509 6  24412752.961                    24412764.492
 107980879.917 8  84141045.727 8  20548050.055                    20548058.141
 117914273.556 7  91881340.378 7  22438340.625                    22438351.898
 129315603.547 6 100765475.133 5  24607953.781                    24607965.477
 109885010.978 7  85624837.68146  20910395.195                    20910400.883
 118665015.911 7  92466318.89744  22581205.367                    22581214.672
 11  8 27  0 46 30.0000000  0  9G04G10G12G17G05G25G29G02G30
 122810895.959 6  95696929.44244  23370116.273                    23370127.152
 113448456.011 8  88401550.98845  21588501.750                    21588510.617
 109202190.979 8  85092685.328 7  20780480.898                    20780488.566
 128360894.084 6 100021554.906 6  24426273.422                    24426285.355
 107939393.449 8  84108718.655 8  20540155.359                    20540163.883
 117848172.998 7  91829833.505 7  22425761.773                    22425772.449
 129235293.722 6 100702896.116 5  24592671.008                    24592682.496
 109908181.737 8  85642892.82046  20914804.430                    20914810.211
 118600043.539 7  92415691.12344  22568840.813                    22568850.434
 11  8 27  0 47  0.0000000  0  9G04G10G12G17G05G25G29G02G30
 122891807.865 6  95759977.60844  23385513.180                    23385523.133
 113514225.053 8  88452799.58945  21601017.359                    21601026.191
 109197863.102 8  85089312.956 7  20779657.203                    20779664.973
 128432140.382 6 100077071.540 6  24439831.570                    24439843.859
 107898453.237 8  84076817.246 8  20532364.578                    20532372.359
 117782520.120 7  91778675.479 7  22413268.602                    22413279.434
 129154903.900 6 100640254.736 6  24577374.313                    24577384.277
 109931507.884 8  85661069.02646  20919243.422                    20919249.273
 118535563.414 7  92365446.91444  22556570.789                    22556580.211
 11  8 27  0 47 30.0000000  0  9G04G10G12G17G05G25G29G02G30
 122972694.699 7  95823006.21844  23400905.797                    23400915.734
 113580481.628 8  88504428.07145  21613625.867                    21613634.270
 109194118.008 8  85086394.703 7  20778944.797                    20778952.738
 128503578.575 6 100132737.709 5  24453425.070                    24453438.246
 107858061.162 8  84045342.948 8  20524677.836                    20524686.453
 117717317.805 7  91727868.530 7  22400861.055                    22400871.898
 129074435.156 6 100577551.920 6  24562061.813                    24562072.215
 109954989.554 8  85679366.43646  20923711.883                    20923717.672
 118471578.312 7  92315588.45745  22544395.125                    22544403.801
 11  8 27  0 48  0.0000000  0  9G04G10G12G17G05G25G29G02G30
 123053555.242 7  95886014.35644  23416293.016                    23416303.340
 113647222.960 8  88556434.29645  21626326.445                    21626335.363
 109190956.223 8  85083930.987 7  20778343.023                    20778350.645
 128575208.759 5 100188553.460 5  24467056.344
 107818217.828 8  84014296.237 8  20517096.367                    20517104.313
 117652568.048 7  91677414.224 7  22388539.453                    22388550.395
 128993888.172 6 100514788.081 6  24546734.078                    24546744.656
 109978625.544 8  85697784.08946  20928209.398                    20928215.320
 118408090.259 7  92266117.29544  22532313.617                    22532322.809
 11  8 27  0 48 30.0000000  0  9G04G10G12G17G05G25G29G02G30
 123134388.913 6  95949001.54544  23431675.273                    23431685.969
 113714446.813 8  88608816.51145  21639118.047                    21639127.492
 109188377.779 8  85081921.805 7  20777852.625                    20777860.160
 128647030.421 6 100244518.493 5  24480723.000
 107778924.797 8  83983678.349 8  20509619.008                    20509627.020
 117588273.159 7  91627314.374 7  22376304.477                    22376315.508
 128913263.325 7 100451963.604 6  24531391.094                    24531401.465
 110002414.737 8  85716321.12846  20932736.523                    20932742.008
 118345101.344 7  92217035.07245  22520327.445                    22520336.250
 11  8 27  0 49  0.0000000  0  9G04G10G12G17G05G25G29G02G30
 123215195.001 7  96011967.25844  23447051.695                    23447062.586
 113782150.342 8  88661572.50045  21652002.289                    21652010.668
 109186382.677 8  85080367.186 7  20777472.867                    20777480.363
 128719043.592 6 100300632.670 5  24494426.930                    24494438.664
 107740183.086 8  83953490.050 8  20502246.914                    20502254.582
 117524435.163 7  91577570.555 7  22364156.719                    22364168.195
 128832561.345 7 100389079.028 6  24516033.508                    24516045.316
 110026356.173 8  85734976.78946  20937292.523                    20937298.168
 118282613.691 7  92168343.45745  22508436.211                    22508445.605
 11  8 27  0 49 30.0000000  0  8G04G10G12G05G25G29G02G30
 123295973.321 6  96074911.32844  23462423.805                    23462434.090
 113850331.833 7  88714700.93945  21664976.203                    21664984.523
 109184971.896 7  85079267.883 7  20777204.234                    20777211.742
 107701994.457 8  83923732.720 8  20494979.617                    20494987.816
 117461057.181 7  91528185.179 7  22352095.758                    22352106.719
 128751783.628 7 100326135.448 6  24500662.938                    24500673.168
 110050449.521 8  85753750.83746  20941877.617                    20941883.516
 118220630.153 7  92120044.66244  22496640.969                    22496649.559
 11  8 27  0 50  0.0000000  0  8G04G10G12G05G25G29G02G30
 123376722.530 6  96137832.71544  23477789.781                    23477800.629
 113918988.372 7  88768199.53945  21678041.398                    21678050.324
 109184145.281 8  85078623.779 8  20777047.008                    20777054.336
 107664359.486 8  83894406.814 8  20487817.891                    20487826.203
 117398140.706 7  91479159.403 7  22340123.492                    22340134.648
 128670930.338 7 100263133.007 6  24485277.195                    24485287.059
 110074693.211 8  85772642.01446  20946490.469                    20946496.574
 118159152.249 7  92072139.85044  22484941.797                    22484951.371
 11  8 27  0 50 30.0000000  0  8G04G10G12G05G25G29G02G30
 123457441.536 6  96200730.57143  23493149.945                    23493160.738
 113988117.166 8  88822066.11945  21691196.172                    21691205.074
 109183902.511 8  85078434.612 7  20777000.602                    20777008.137
 107627279.070 8  83865513.032 8  20480761.633                    20480769.508
 117335687.660 7  91430494.754 7  22328238.766                    22328250.457
 128590001.859 7 100200071.946 6  24469876.500                    24469887.199
 110099086.286 8  85791649.61846  20951132.188                    20951138.578
 118098181.779 7  92024630.46245  22473339.531                    22473348.762
 11  8 27  0 51  0.0000000  0  8G04G10G12G05G25G29G02G30
 123538129.365 6  96263604.16443  23508504.297                    23508514.656
 114057715.209 8  88876298.35845  21704440.117                    21704448.664
 109184243.298 8  85078700.170 7  20777065.766                    20777073.238
 107590753.847 8  83837051.869 8  20473810.969                    20473819.051
 117273699.783 7  91382192.565 7  22316442.750                    22316453.734
 128508998.688 7 100136952.705 6  24454462.125                    24454473.102
 110123627.395 8  85810772.55946  20955802.602                    20955808.289
 118037720.347 7  91977517.70645  22461833.945                    22461842.934
 11  8 27  0 51 30.0000000  0  8G04G10G12G05G25G29G02G30
 123618785.222 6  96326452.83443  23523852.680                    23523862.746
 114127780.129 8  88930894.39845  21717773.055                    21717781.828
 109185167.859 7  85079420.618 7  20777241.430                    20777249.316
 107554784.668 8  83809023.974 8  20466966.484                    20466974.523
 117212179.199 7  91334254.494 7  22304735.789                    22304746.945
 128427921.344 6 100073775.682 6  24439033.188                    24439044.313
 110148315.234 8  85830009.84446  20960500.414                    20960506.520
 117977769.916 7  91930803.13945  22450426.195                    22450435.270
 11  8 27  0 52  0.0000000  0  8G04G10G12G05G25G29G02G30
 123699408.496 6  96389276.17043  23539195.148                    23539204.809
 114198309.382 8  88985852.25545  21731194.305                    21731203.602
 109186676.672 7  85080596.330 7  20777528.664                    20777536.625
 107519372.882 8  83781430.416 8  20460227.586                    20460235.719
 117151128.209 7  91286682.349 7  22293118.305                    22293129.305
 128346770.774 6 100010541.630 6  24423591.031                    24423600.664
 110173149.402 8  85849361.15046  20965226.477                    20965232.621
 117918332.780 7  91884488.54345  22439115.492                    22439124.383
 11  8 27  0 52 30.0000000  0  8G04G10G12G05G25G29G02G30
 123779998.767 7  96452073.73343  23554531.195                    23554541.371
 114269300.811 7  89041170.23445  21744703.461                    21744712.992
 109188769.605 8  85082227.194 7  20777926.883                    20777934.219
 107484519.706 8  83754272.147 8  20453595.445                    20453603.031
 117090549.095 7  91239477.882 7  22281590.273                    22281601.492
 128265547.867 6  99947251.210 6  24408133.766                    24408144.930
 110198129.134 8  85868825.88046  20969979.953                    20969986.035
 117859411.154 7  91838575.61945  22427902.859                    22427912.379
 11  8 27  0 53  0.0000000  0  8G04G10G12G05G25G29G02G30
 123860555.006 7  96514844.82744  23569860.570                    23569870.965
 114340752.041 7  89096846.51645  21758300.047                    21758308.957
 109191446.849 8  85084313.373 7  20778436.406                    20778444.246
 107450226.075 8  83727549.880 8  20447069.250                    20447077.277
 117030444.084 8  91192642.857 7  22270153.000                    22270163.992
 128184253.683 6  99883905.266 6  24392665.258                    24392674.977
 110223253.594 8  85888403.39846  20974760.656                    20974766.355
 117801007.079 7  91793066.00045  22416788.602                    22416798.129
 11  8 27  0 53 30.0000000  0  8G04G10G12G05G25G29G02G30
 123941076.462 7  96577588.82143  23585182.852                    23585193.113
 114412659.835 7  89152878.55745  21771984.023                    21771992.875
 109194707.552 8  85086854.191 7  20779056.813                    20779064.262
 107416492.450 8  83701263.984 8  20440649.648                    20440657.992
 116970814.823 8  91146178.560 7  22258805.563                    22258816.145
 128102888.331 6  99820503.863 6  24377181.281                    24377191.270
 110248521.367 8  85908092.58346  20979568.820                    20979574.926
 117743122.112 7  91747960.87045  22405773.734                    22405783.074
 11  8 27  0 54  0.0000000  0  8G04G10G12G05G25G29G02G30
 124021562.191 7  96640304.94343  23600498.875                    23600509.418
 114485021.568 8  89209264.32545  21785754.125                    21785762.633
 109198551.694 8  85089849.633 8  20779788.453                    20779795.977
 107383319.712 8  83675415.137 8  20434337.352                    20434345.668
 116911663.139 8  91100086.359 7  22247549.102                    22247560.113
 128021452.363 6  99757047.468 5  24361683.719                    24361694.113
 110273931.230 8  85927892.47346  20984404.469                    20984410.258
 117685757.939 7  91703261.55745  22394857.719                    22394866.785
 11  8 27  0 54 30.0000000  0  8G04G10G12G05G25G29G02G30
 124102011.949 7  96702993.07043  23615807.672                    23615818.012
 114557835.082 7  89266002.12545  21799609.914                    21799619.008
 109202980.140 8  85093300.382 7  20780631.016                    20780638.766
 107350709.238 8  83650004.423 8  20428131.984                    20428140.098
 116852991.662 7  91054368.381 7  22236384.266                    22236395.602
 127939947.247 6  99693537.094 5  24346173.641                    24346183.883
 110299483.117 8  85947803.04446  20989266.695                    20989272.246
 117628917.138 7  91658970.06745  22384041.109                    22384050.602
 11  8 27  0 55  0.0000000  0  8G04G10G12G05G25G29G02G30
 124182424.740 7  96765652.36743  23631110.406                    23631120.910
 114631097.289 8  89323089.55545  21813551.094                    21813560.172
 109207992.338 8  85097206.007 7  20781585.008                    20781592.555
 107318661.521 7  83625032.225 8  20422033.344                    20422041.598
 116794801.980 8  91009025.817 7  22225311.070                    22225321.855
 127858373.315 6  99629973.088 5  24330651.008                    24330660.563
 110325175.586 8  85967823.17046  20994155.828                    20994161.809
 117572601.091 7  91615087.47145  22373324.805                    22373333.699
 11  8 27  0 55 30.0000000  0  8G04G10G12G05G25G29G02G30
 124262799.747 7  96828282.26743  23646404.703                    23646415.242
 114704805.767 8  89380524.72545  21827577.492                    21827586.484
 109213587.598 8  85101565.952 7  20782649.477                    20782657.141
 107287177.489 8  83600499.253 8  20416041.953                    20416049.949
 116737096.129 7  90964060.249 7  22214330.266                    22214340.762
 127776731.186 6  99566355.940 5  24315115.164                    24315124.352
 110351007.801 8  85987952.17946  20999071.266                    20999077.520
 117516811.776 7  91571615.32345  22362708.266                    22362717.477
 11  8 27  0 56  0.0000000  0  8G04G10G12G05G25G29G02G30
 124343136.526 7  96890882.35343  23661692.641                    23661702.855
 114778957.732 8  89438305.47645  21841688.055                    21841697.012
 109219765.875 8  85106380.197 7  20783825.227                    20783832.918
 107256257.384 8  83576405.701 8  20410158.195                    20410166.152
 116679875.899 7  90919473.108 7  22203441.484                    22203452.668
 127695021.595 6  99502686.203 6  24299565.883                    24299576.555
 110376978.521 8  86008189.11746  21004013.617                    21004019.328
 117461550.824 7  91528554.89645  22352192.438                    22352201.582
 11  8 27  0 56 30.0000000  0  8G04G10G12G05G25G29G02G30
 124423434.201 7  96953451.96743  23676972.891                    23676982.652
 114853550.874 8  89496429.99645  21855882.820                    21855891.941
 109226527.274 8  85111648.831 7  20785111.969                    20785119.063
 107225902.404 8  83552752.509 8  20404381.594                    20404389.570
 116623143.515 8  90875266.095 7  22192645.391                    22192656.777
 127613245.530 6  99438964.677 6  24284005.039                    24284015.133
 110403087.105 8  86028533.47646  21008981.688                    21008987.746
 117406820.308 7  91485907.79345  22341777.852                    22341786.598
 11  8 27  0 57  0.0000000  0  8G04G10G12G05G25G29G02G30
 124503692.119 7  97015990.60343  23692245.422                    23692255.770
 114928582.086 7  89554895.85645  21870160.844                    21870169.758
 109233871.667 8  85117371.731 7  20786509.609                    20786516.910
 107196113.473 8  83529540.404 8  20398712.914                    20398721.102
 116566900.956 7  90831440.740 7  22181943.578                    22181953.734
 127531404.082 7  99375192.171 6  24268431.211                    24268440.750
 110429332.935 8  86048984.78046  21013976.141                    21013982.359
 117352622.062 7  91443675.45745  22331464.125                    22331473.164
 11  8 27  0 57 30.0000000  0  8G04G10G12G05G25G29G02G30
 124583910.251 7  97078498.24143  23707510.242                    23707520.965
 115004049.143 7  89613701.34545  21884521.688                    21884530.242
 109241799.076 8  85123548.926 7  20788018.164                    20788025.523
 107166891.569 7  83506770.130 8  20393152.258                    20393160.527
 116511150.450 8  90787998.831 7  22171334.086                    22171345.184
 127449497.952 6  99311369.292 6  24252844.328                    24252854.660
 110455715.537 8  86069542.66046  21018996.164                    21019002.914
 117298958.259 7  91401859.56645  22321251.805                    22321260.887
 11  8 27  0 58  0.0000000  0  8G04G10G12G05G25G29G02G30
 124664086.794 7  97140973.43743  23722767.141                    23722778.031
 115079948.232 7  89672843.50445  21898964.953                    21898973.289
 109250308.095 8  85130179.336 7  20789637.195                    20789644.578
 107138236.323 8  83484441.395 8  20387699.711                    20387707.207
 116455892.720 8  90744940.891 7  22160818.922                    22160829.934
 127367527.412 6  99247496.216 6  24237245.711                    24237256.105
 110482232.505 8  86090205.23846  21024042.578                    21024048.465
 117245829.355 7  91360460.47245  22311142.125                    22311150.863
 11  8 27  0 58 30.0000000  0  8G04G10G12G05G25G29G02G30
 124744221.639 7  97203416.17343  23738016.547                    23738027.363
 115156277.831 7  89732321.10645  21913489.906                    21913498.781
 109259399.336 8  85137263.413 7  20791367.414                    20791374.816
 107110148.913 8  83462555.145 8  20382354.516                    20382362.328
 116401130.448 7  90702269.002 7  22150398.438                    22150408.785
 127285493.644 6  99183573.843 6  24221635.305                    24221645.957
 110508883.675 8  86110972.40246  21029114.273                    21029119.949
 117193237.952 7  91319480.23345  22301133.758                    22301143.160
 11  8 27  0 59  0.0000000  0  8G04G10G12G05G25G29G02G30
 124824314.633 6  97265826.27044  23753257.672                    23753269.246
 115233035.362 7  89792132.14545  21928096.297                    21928105.367
 109269072.241 8  85144800.741 7  20793208.141                    20793215.230
 107082630.495 8  83441112.259 8  20377117.922                    20377125.445
 116346865.856 7  90659984.931 7  22140071.852                    22140082.496
 127203397.867 6  99119603.157 6  24206013.188                    24206023.246
 110535668.860 8  86131843.97946  21034211.484                    21034217.121
 117141186.107 7  91278920.41545  22291228.734                    22291237.508
 11  8 27  0 59 30.0000000  0  8G04G10G12G05G25G29G02G30
 124904364.824 7  97328203.00343  23768490.695                    23768500.891
 115310217.585 7  89852274.11545  21942783.273                    21942792.070
 109279326.413 8  85152791.002 7  20795159.297                    20795166.648
 107055681.257 7  83420112.896 8  20371989.594                    20371997.156
 116293100.464 7  90618089.840 7  22129840.328                    22129851.352
 127121240.572 6  99055584.558 6  24190379.070                    24190389.410
 110562586.759 8  86152818.98346  21039333.711                    21039339.473
 117089675.201 7  91238782.09945  22281426.711                    22281435.051
 11  8 27  1  0  0.0000000  0  8G04G10G12G05G25G29G02G30
 124984371.251 7  97390545.64143  23783714.852                    23783725.496
 115387822.066 7  89912745.12445  21957550.813                    21957559.914
 109290161.473 8  85161233.894 7  20797221.047                    20797228.621
 107029301.734 8  83399557.456 8  20366969.688                    20366977.703
 116239835.936 8  90576585.025 7  22119704.578                    22119715.242
 127039023.062 6  98991519.042 6  24174733.203                    24174743.824
 110589636.392 8  86173896.62046  21044480.773                    21044486.738
 117038706.669 7  91199066.41545  22271727.430                    22271736.730
 11  8 27  1  0 30.0000000  0  8G04G10G12G05G25G29G02G30
 125064333.027 6  97452853.47743  23798931.867                    23798942.313
 115465845.028 7  89973542.22445  21972398.516                    21972407.352
 109301576.434 8  85170128.657 7  20799393.617                    20799400.559
 107003491.727 8  83379445.802 8  20362058.109                    20362065.914
 116187073.465 8  90535471.399 7  22109664.492                    22109674.727
 126956744.775 6  98927406.156 6  24159075.875                    24159086.641
 110616815.686 8  86195075.28746  21049653.063                    21049658.953
 116988281.564 7  91159774.16745  22262131.711                    22262140.680
 11  8 27  1  1  0.0000000  0  8G04G10G12G05G25G29G02G30
 125144250.713 6  97515126.92743  23814139.500                    23814150.699
 115544285.066 8  90034664.32445  21987325.219                    21987334.367
 109313571.843 8  85179475.727 7  20801675.977                    20801683.152
 106978253.248 8  83359779.497 8  20357255.234                    20357263.184
 116134816.231 8  90494751.485 7  22099720.289                    22099730.617
 126874408.124 6  98863247.797 6  24143407.969                    24143418.938
 110644126.017 8  86216356.06346  21054850.109                    21054855.594
 116938402.918 7  91120907.72645  22252640.188                    22252649.031
 11  8 27  1  1 30.0000000  0  8G04G10G12G05G25G29G02G30
 125224123.259 6  97577365.25943  23829338.641                    23829349.773
 115623139.015 8  90096108.94545  22002330.711                    22002339.719
 109326146.993 8  85189274.541 7  20804068.992                    20804076.258
 106953586.330 8  83340558.559 8  20352561.547                    20352569.234
 116083065.447 7  90454426.201 7  22089872.305                    22089882.832
 126792013.699 6  98799044.426 6  24127729.000                    24127739.211
 110671565.915 8  86237737.80846  21060071.500                    21060077.410
 116889071.742 7  91082467.87945  22243252.875                    22243261.719
 11  8 27  1  2  0.0000000  0  8G04G10G12G05G25G29G02G30
 125303950.012 6  97639567.90143  23844528.656                    23844540.469
 115702403.640 7  90157873.56545  22017414.141                    22017423.191
 109339301.038 8  85199524.442 7  20806572.188                    20806579.613
 106929491.080 8  83321783.083 8  20347976.180                    20347984.180
 116031822.770 8  90414496.838 7  22080121.031                    22080131.273
 126709562.232 6  98734796.640 6  24112038.594                    24112048.258
 110699134.070 8  86259219.48746  21065317.313                    21065323.578
 116840289.544 7  91044455.80245  22233969.773                    22233978.883
 11  8 27  1  2 30.0000000  0  8G04G10G12G05G25G29G02G30
 125383730.539 6  97701734.48543  23859710.781                    23859721.297
 115782076.777 7  90219956.50845  22032575.344                    22032584.445
 109353033.818 8  85210225.299 7  20809185.203                    20809192.797
 106905968.397 8  83303453.757 8  20343500.156                    20343507.965
 115981090.283 8  90374965.037 7  22070467.141                    22070478.008
 126627054.822 6  98670505.261 6  24096337.234                    24096348.043
 110726830.087 8  86280800.79746  21070588.156                    21070593.852
 116792058.247 7  91006872.98245  22224791.977                    22224800.230
 11  8 27  1  3  0.0000000  0  8G04G10G12G05G25G29G02G30
 125463464.089 6  97763864.45943  23874884.492                    23874894.637
 115862155.282 7  90282355.31545  22047813.805                    22047822.844
 109367344.271 8  85221376.303 7  20811908.461                    20811915.836
 106883018.314 8  83285570.615 8  20339132.797                    20339140.363
 115930869.128 8  90335831.674 7  22060910.492                    22060921.242
 126544491.701 6  98606170.448 6  24080627.117                    24080636.914
 110754652.487 8  86302480.59546  21075882.336                    21075888.855
 116744378.688 7  90969720.08745  22215718.820                    22215727.547
 11  8 27  1  3 30.0000000  0  8G04G10G12G05G25G29G02G30
 125543149.680 7  97825957.11443  23890047.813                    23890058.492
 115942636.223 7  90345067.73545  22063128.508                    22063137.387
 109382232.038 8  85232977.153 7  20814741.523                    20814749.023
 106860640.733 8  83268133.580 8  20334874.320                    20334882.344
 115881160.885 8  90297097.967 7  22051451.305                    22051462.082
 126461874.017 6  98541793.126 6  24064904.719                    24064915.238
 110782600.242 8  86324258.07246  21081200.867                    21081206.547
 116697252.414 7  90932998.32245  22206750.820                    22206759.449
 11  8 27  1  4  0.0000000  0  8G04G10G12G05G25G29G02G30
 125622786.968 7  97888012.12543  23905202.094                    23905213.168
 116023516.697 7  90408091.45745  22078520.242                    22078528.707
 109397696.690 8  85245027.522 7  20817684.406                    20817691.875
 106838836.825 8  83251143.553 8  20330725.539                    20330733.180
 115831967.405 7  90258765.400 7  22042089.984                    22042100.707
 126379202.960 6  98477374.222 6  24049173.297                    24049183.137
 110810672.976 8  86346132.92346  21086542.352                    21086549.047
 116650681.069 7  90896708.95445  22197888.773                    22197898.023
 11  8 27  1  4 30.0000000  0  8G04G10G12G05G25G29G02G30
 125702376.032 6  97950029.53243  23920347.992                    23920358.641
 116104794.742 7  90471424.97845  22093986.547                    22093995.527
 109413737.821 8  85257527.101 7  20820736.930                    20820744.750
 106817606.691 8  83234600.627 8  20326685.422                    20326692.895
 115783291.016 8  90220835.764 7  22032827.391                    22032838.066
 126296479.907 6  98412914.796 6  24033431.391                    24033441.203
 110838870.584 8  86368105.09446  21091908.516                    21091914.301
 116604666.712 7  90860853.61245  22189132.547                    22189140.988
 11  8 27  1  5  0.0000000  0  8G04G10G12G05G25G29G02G30
 125781916.410 6  98012009.01743  23935483.711                    23935494.441
 116186467.517 7  90535066.07645  22109528.680                    22109537.559
 109430354.185 8  85270474.911 7  20823899.219                    20823906.578
 106796951.084 8  83218505.396 8  20322754.625                    20322761.996
 115735133.311 7  90183310.293 7  22023662.672                    22023673.680
 126213705.509 6  98348415.377 6  24017679.977                    24017689.113
 110867192.026 8  86390173.74646  21097298.203                    21097304.156
 116559210.798 7  90825433.41345  22180482.594                    22180491.352
 11  8 27  1  5 30.0000000  0  8G04G10G12G05G25G29G02G30
 125861407.213 6  98073949.87643  23950610.047                    23950621.137
 116268531.673 7  90599012.14845  22125144.586                    22125153.555
 109447545.603 8  85283870.816 7  20827170.719                    20827177.813
 106776870.120 8  83202857.919 8  20318933.328                    20318941.316
 115687495.446 8  90146189.894 7  22014597.680                    22014608.352
 126130880.694 7  98283876.641 6  24001918.563                    24001928.184
 110895636.278 8  86412338.10446  21102710.500                    21102716.266
 116514314.291 7  90790449.09945  22171938.656                    22171947.633
 11  8 27  1  6  0.0000000  0  8G04G10G12G05G25G29G02G30
 125940848.060 6  98135851.79643  23965727.070                    23965737.980
 116350984.594 7  90663261.15645  22140835.211                    22140844.152
 109465311.256 8  85297714.174 7  20830550.977                    20830559.035
 106757364.111 8  83187658.461 8  20315221.305                    20315229.406
 115640379.260 8  90109476.021 7  22005631.852                    22005642.449
 126048006.586 7  98219299.499 6  23986147.930                    23986158.586
 110924202.719 8  86434597.67346  21108146.914                    21108153.305
 116469978.785 7  90755901.95145  22163502.203                    22163510.863
 11  8 27  1  6 30.0000000  0  8G04G10G12G05G25G29G02G30
 126020237.659 6  98197713.75143  23980835.000                    23980845.559
 116433822.633 7  90727810.24845  22156598.992                    22156607.324
 109483649.868 8  85312004.001 7  20834040.820                    20834048.422
 106738432.293 8  83172906.432 8  20311618.695                    20311626.176
 115593785.505 8  90073169.231 7  21996765.227                    21996776.289
 125965083.369 7  98154684.079 6  23970368.539                    23970378.293
 110952889.352 8  86456950.89546  21113605.359                    21113611.527
 116426204.902 7  90721792.42545  22155172.180                    22155181.055
 11  8 27  1  7  0.0000000  0  8G04G10G12G05G25G29G02G30
 126099576.048 6  98259535.87743  23995932.578                    23995943.508
 116517043.544 7  90792657.68045  22172435.180                    22172443.855
 109502560.938 8  85326739.902 7  20837639.398                    20837646.676
 106720075.775 8  83158602.685 8  20308125.703                    20308133.125
 115547716.427 8  90037271.274 7  21987998.563                    21988009.328
 125882112.545 7  98090031.561 6  23954579.695                    23954589.258
 110981696.216 8  86479397.81046  21119087.445                    21119093.230
 116382994.656 7  90688122.09945  22146949.820                    22146958.250
 11  8 27  1  7 30.0000000  0  8G04G10G12G05G25G29G02G30
 126178863.227 6  98321318.06043  24011020.477                    24011030.750
 116600645.041 7  90857801.69445  22188343.883                    22188352.887
 109522043.893 8  85341921.404 7  20841346.648                    20841354.570
 106702294.936 8  83144747.511 8  20304742.305                    20304749.754
 115502173.783 8  90001783.539 7  21979332.109                    21979343.039
 125799095.227 7  98025342.821 6  23938782.250                    23938791.195
 111010623.029 8  86501938.18246  21124591.789                    21124597.898
 116340349.498 7  90654892.10345  22138834.273                    22138843.234
 11  8 27  1  8  0.0000000  0  8G04G10G12G05G25G29G02G30
 126258098.389 6  98383059.76743  24026097.688                    24026108.574
 116684623.885 7  90923239.73945  22204324.813                    22204333.262
 109542097.758 8  85357547.791 7  20845163.078                    20845170.613
 106685089.757 8  83131340.910 8  20301468.086                    20301475.457
 115457158.910 7  89966707.051 7  21970765.945                    21970776.816
 125716032.431 7  97960618.653 6  23922976.039                    23922985.070
 111039668.671 8  86524571.15346  21130119.234                    21130125.094
 116298270.721 7  90622103.45245  22130826.977                    22130835.566
 11  8 27  1  8 30.0000000  0  8G04G10G12G05G25G29G02G30
 126337281.112 6  98444760.55743  24041166.273                    24041176.547
 116768977.064 7  90988969.46945  22220376.313                    22220385.250
 109562721.993 8  85373618.618 7  20849087.602                    20849095.281
 106668460.361 8  83118382.975 8  20298303.813                    20298311.031
 115412673.341 7  89932043.013 7  21962300.664                    21962311.762
 125632925.145 7  97895859.794 6  23907161.125                    23907170.527
 111068832.492 8  86547296.20546  21135668.688                    21135674.633
 116256759.542 7  90589757.09245  22122927.773                    22122936.449
 11  8 27  1  9  0.0000000  0  8G04G10G12G05G25G29G02G30
 126416410.692 6  98506419.90643  24056224.484                    24056234.793
 116853701.933 7  91054988.81645  22236499.313                    22236507.746
 109583915.456 8  85390132.994 7  20853120.492                    20853128.453
 106652406.645 8  83105873.618 8  20295248.570                    20295256.188
 115368718.435 8  89897792.479 7  21953935.891                    21953946.711
 125549774.233 7  97831066.946 6  23891337.594                    23891347.457
 111098113.426 8  86570112.52446  21141240.891                    21141246.543
 116215817.103 7  90557853.89445  22115136.633                    22115145.438
 11  8 27  1  9 30.0000000  0  8G04G10G12G05G25G29G02G30
 126495486.633 6  98568037.49443  24071271.609                    24071282.563
 116938795.457 7  91121295.44645  22252691.977                    22252700.949
 109605677.192 8  85407090.184 7  20857261.547                    20857269.664
 106636928.689 8  83093812.901 8  20292302.961                    20292310.813
 115325295.365 8  89863956.354 7  21945672.984                    21945683.816
 125466580.826 7  97766240.968 6  23875506.508                    23875516.457
 111127510.675 8  86593019.46346  21146835.219                    21146840.789
 116175444.402 7  90526394.67445  22107453.469                    22107463.008
 11  8 27  1 10  0.0000000  0  8G04G10G12G05G25G29G02G30
 126574509.350 6  98629613.56243  24086309.266                    24086320.309
 117024255.347 7  91187887.54245  22268954.281                    22268962.785
 109628006.922 8  85424489.965 7  20861510.984                    20861518.777
 106622027.177 8  83082201.363 8  20289467.125                    20289475.254
 115282406.513 8  89830536.498 7  21937511.570                    21937522.582
 125383346.368 6  97701383.032 6  23859666.828                    23859676.988
 111157024.574 8  86616017.31146  21152451.289                    21152457.121
 116135643.498 7  90495380.99045  22099880.211                    22099888.957
 11  8 27  1 10 30.0000000  0  8G04G10G12G05G25G29G02G30
 126653477.893 6  98691147.40743  24101336.125                    24101347.609
 117110078.370 7  91254762.58945  22285286.359                    22285295.336
 109650903.060 8  85442331.100 7  20865867.750                    20865875.609
 106607702.020 8  83071038.920 8  20286741.438                    20286748.957
 115240052.699 8  89797533.565 7  21929451.781                    21929462.441
 125300071.800 7  97636493.835 6  23843820.492                    23843829.961
 111186653.622 8  86639104.87546  21158089.633                    21158095.461
 116096415.036 7  90464813.38445  22092414.828                    22092424.027
 11  8 27  1 11  0.0000000  0  8G04G10G12G05G25G29G02G30
 126732391.718 6  98752638.62543  24116354.086                    24116364.402
 117196261.485 7  91321918.23644  22301685.914                    22301694.801
 109674364.895 8  85460613.048 7  20870332.531                    20870340.355
 106593952.821 8  83060325.299 8  20284125.398                    20284132.941
 115198235.451 7  89764948.725 7  21921494.383                    21921505.023
 125216758.032 6  97571574.091 6  23827965.695                    23827975.871
 111216397.082 8  86662281.59346  21163749.305                    21163755.082
 116057760.416 7  90434692.91245  22085059.578                    22085068.699
 11  8 27  1 11 30.0000000  0  8G04G10G12G05G25G29G02G30
 126811250.576 6  98814087.02643  24131359.617                    24131370.516
 117282801.680 7  91389352.13845  22318154.109                    22318162.828
 109698391.286 8  85479334.899 8  20874904.719                    20874912.730
 106580779.680 8  83050060.538 8  20281618.398                    20281625.805
 115156956.018 8  89732782.954 7  21913638.766                    21913649.906
 125133406.234 7  97506624.701 6  23812105.070                    23812114.605
 111246254.348 8  86685546.99946  21169431.297                    21169437.055
 116019680.536 7  90405020.31145  22077812.789                    22077821.980
 11  8 27  1 12  0.0000000  0  8G04G10G12G05G25G29G02G30
 126890054.159 6  98875492.36043  24146355.641                    24146367.051
 117369696.643 7  91457062.50545  22334689.695                    22334699.020
 109722981.414 8  85498496.021 7  20879583.648                    20879591.574
 106568182.846 8  83040244.854 8  20279221.180                    20279228.586
 115116215.956 8  89701037.478 7  21905886.242                    21905897.086
 125050017.672 7  97441646.660 6  23796236.313                    23796246.715
 111276224.950 8  86708900.72746  21175134.594                    21175140.488
 115982176.686 7  90375796.56045  22070676.242                    22070685.301
 11  8 27  1 12 30.0000000  0  9G04G10G12G26G05G25G29G02G30
 126968801.927 6  98936854.18743  24161340.891                    24161352.109
 117456943.221 7  91525046.82445  22351292.320                    22351301.133
 109748134.333 8  85518095.692 7  20884370.484                    20884378.238
 130599722.67815                  24852273.430
 106556162.224 8  83030878.171 8  20276933.680                    20276941.199
 115076016.501 8  89669713.241 7  21898236.523                    21898247.418
 124966593.219 7  97376640.649 6  23780361.406                    23780371.133
 111306307.994 8  86732342.06646  21180858.727                    21180864.785
 115945249.950 7  90347022.50445  22063649.250                    22063658.172
 11  8 27  1 13  0.0000000  0  9G04G10G12G26G05G25G29G02G30
 127047493.367 6  98998172.12543  24176315.422                    24176326.875
 117544538.436 7  91593302.81345  22367960.813                    22367969.887
 109773848.579 8  85538132.759 7  20889263.719                    20889271.438
 130508374.47015                  24834889.398
 106544717.336 8  83021960.104 8  20274755.945                    20274763.359
 115036358.857 8  89638811.203 7  21890690.000                    21890700.758
 124883134.222 7  97311607.732 6  23764479.000                    23764488.828
 111336502.692 8  86755870.40446  21186604.703                    21186610.539
 115908901.159 7  90318698.80445  22056732.313                    22056741.102
 11  8 27  1 13 30.0000000  0  9G04G10G12G26G05G25G29G02G30
 127126127.915 6  99059445.73043  24191278.969                    24191290.004
 117632479.315 7  91661828.14244  22384695.320                    22384704.738
 109800123.008 7  85558606.338 7  20894263.906                    20894271.414
 130416881.511 5                  24817478.680
 106533848.147 8  83013490.643 8  20272687.375                    20272694.797
 114997244.055 8  89608332.145 7  21883246.789                    21883257.633
 124799641.335 7  97246548.413 6  23748591.539                    23748601.137
 111366807.997 7  86779484.92646  21192371.609                    21192377.672
 115873131.226 7  90290826.15145  22049925.789                    22049934.707
 11  8 27  1 14  0.0000000  0  9G04G10G12G26G05G25G29G02G30
 127204705.381 6  99120674.84143  24206231.836                    24206242.664
 117720762.806 7  91730620.45544  22401495.242                    22401504.203
 109826956.297 8  85579515.390 8  20899369.961                    20899377.387
 130325247.06515                  24800042.078
 106523554.394 8  83005469.566 8  20270728.711                    20270736.172
 114958673.436 8  89578277.128 7  21875907.016                    21875918.000
 124716115.555 7  97181463.427 6  23732697.070                    23732706.199
 111397223.266 8  86803185.14946  21198159.688                    21198165.879
 115837941.119 7  90263405.31745  22043229.125                    22043238.395
 11  8 27  1 14 30.0000000  0  9G04G10G12G26G05G25G29G02G30
 127283225.683 6  99181859.41143  24221173.961                    24221184.555
 117809386.418 7  91799677.81744  22418360.234                    22418368.961
 109854347.936 8  85600859.517 7  20904582.633                    20904590.395
 130233473.736 6 101480567.44152  24782577.578                    24782590.715
 106513836.387 8  82997897.125 8  20268879.242                    20268886.652
 114920648.611 8  89548647.413 7  21868671.258                    21868681.918
 124632558.568 7  97116354.149 6  23716796.586                    23716806.063
 111427748.410 8  86826970.96446  21203968.406                    21203974.527
 115803332.296 7  90236437.42245  22036643.281                    22036652.156
 11  8 27  1 15  0.0000000  0  9G04G10G12G26G05G25G29G02G30
 127361688.111 6  99242998.87243  24236105.523                    24236116.469
 117898347.014 7  91868997.75344  22435288.344                    22435297.637
 109882296.545 8  85622637.651 7  20909900.719                    20909908.703
 130141564.485 6 101408950.11742  24765087.773                    24765101.070
 106504693.457 8  82990772.796 8  20267139.641                    20267147.082
 114883170.550 8  89519443.731 7  21861539.773                    21861549.758
 124548971.402 7  97051221.341 6  23700890.508                    23700899.262
 111458382.412 8  86850841.62446  21209797.594                    21209803.949
 115769305.408 7  90209922.97445  22030168.203                    22030176.902
 11  8 27  1 15 30.0000000  0  9G04G10G12G26G05G25G29G02G30
 127440092.846 6  99304093.42243  24251025.758                    24251035.637
 117987642.065 7  91938578.29845  22452280.992                    22452290.004
 109910801.060 7  85644848.958 7  20915324.719                    20915332.785
 130049522.190 6 101337229.10743  24747572.633                    24747585.855
 106496125.694 8  82984096.654 8  20265508.945                    20265516.168
 114846240.722 8  89490667.252 7  21854512.164                    21854522.445
 124465355.260 7  96986065.968 6  23684978.898                    23684987.598
 111489124.913 8  86874796.82246  21215647.883                    21215653.828
 115735861.595 7  90183862.87645  22023803.852                    22023813.246
 11  8 27  1 16  0.0000000  0  9G04G10G12G26G05G25G29G02G30
 127518439.128 7  99365142.42643  24265933.539                    24265944.918
 118077268.521 7  92008417.08145  22469336.633                    22469345.371
 109939860.269 8  85667492.493 7  20920854.516                    20920862.508
 129957349.661 6 101265406.64543  24730032.750                    24730045.879
 106488133.001 8  82977868.616 8  20263987.805                    20263995.539
 114809860.304 8  89462318.883 7  21847589.086                    21847599.504
 124381711.583 7  96920889.105 6  23669062.063                    23669071.473
 111519975.146 8  86898835.96146  21221518.836                    21221524.367
 115703001.896 7  90158257.92345  22017550.945                    22017559.820
 11  8 27  1 16 30.0000000  0  9G04G10G12G26G05G25G29G02G30
 127596726.876 6  99426145.80543  24280831.664                    24280842.340
 118167223.815 7  92078512.09644  22486453.664                    22486463.129
 109969472.802 8  85690567.180 7  20926489.820                    20926497.324
 129865049.575 6 101193484.70343  24712468.078                    24712482.043
 106480715.001 8  82972088.390 8  20262576.164                    20262583.727
 114774030.424 8  89434399.503 7  21840770.539                    21840781.117
 124298041.387 7  96855691.605 6  23653139.719                    23653149.652
 111550932.500 7  86922958.57846  21227409.500                    21227414.859
 115670727.138 7  90133108.77445  22011408.797                    22011417.844
 11  8 27  1 17  0.0000000  0  9G04G10G12G26G05G25G29G02G30
 127674955.827 6  99487103.36743  24295717.883                    24295728.914
 118257504.660 7  92148860.78544  22503634.109                    22503642.633
 109999637.454 8  85714072.112 7  20932229.859                    20932237.844
 129772625.035 6 101121465.83344  24694880.383                    24694893.426
 106473871.562 8  82966755.873 8  20261274.117                    20261281.816
 114738752.229 8  89406910.020 7  21834057.414                    21834068.285
 124214345.825 7  96790474.357 6  23637213.398                    23637222.578
 111581996.508 8  86947164.29746  21233320.727                    21233326.621
 115639038.118 7  90108416.02545  22005378.969                    22005387.813
 11  8 27  1 17 30.0000000  0  9G04G10G12G26G05G25G29G02G30
 127753125.688 6  99548014.87843  24310593.578                    24310604.332
 118348108.185 7  92219460.89245  22520875.297                    22520883.992
 110030353.171 8  85738006.428 7  20938074.906                    20938082.977
 129680078.905 6 101049352.21643  24677269.367                    24677282.465
 106467602.381 8  82961870.831 8  20260080.875                    20260088.859
 114704026.857 8  89379851.296 7  21827449.648                    21827460.078
 124130626.220 7  96725238.345 6  23621282.164                    23621291.422
 111613166.398 7  86971452.52246  21239252.070                    21239257.984
 115607935.732 7  90084180.41145  21999460.813                    21999469.180
 11  8 27  1 18  0.0000000  0  9G04G10G12G26G05G25G29G02G30
 127831235.960 6  99608879.94443  24325457.438                    24325468.176
 118439031.552 7  92290310.26445  22538177.547                    22538187.023
 110061618.953 8  85762369.375 7  20944024.633                    20944032.871
 129587413.819 6 100977145.85543  24659635.688                    24659648.828
 106461906.864 8  82957432.793 8  20258996.875                    20259004.430
 114669855.357 8  89353224.173 7  21820946.906                    21820957.402
 124046883.610 7  96659984.451 6  23605345.953                    23605355.242
 111644441.505 8  86995822.73646  21245203.672                    21245209.563
 115577420.807 7  90060402.55045  21993653.625                    21993662.117
 11  8 27  1 18 30.0000000  0  9G04G10G12G26G05G25G29G02G30
 127909286.753 6  99669698.65643  24340308.914                    24340320.805
 118530272.123 7  92361406.78544  22555539.977                    22555549.379
 110093432.688 8  85787159.302 7  20950078.734                    20950086.402
 129494633.035 6 100904849.36044  24641979.734                    24641992.660
 106456785.219 8  82953441.934 8  20258022.555                    20258030.066
 114636239.021 8  89327029.641 7  21814549.563                    21814560.336
 123963119.410 7  96594713.699 6  23589406.000                    23589415.281
 111675821.610 8  87020274.76346  21251175.148                    21251180.551
 115547494.305 7  90037083.20245  21987958.539                    21987967.570
 11  8 27  1 19  0.0000000  0  9G04G10G12G26G05G25G29G02G30
 127987277.452 6  99730470.55242  24355151.242                    24355161.867
 118621826.599 7  92432747.87144  22572962.422                    22572971.770
 110125793.241 7  85812375.313 7  20956236.984                    20956244.883
 129401739.181 6 100832464.79743  24624301.500                    24624315.262
 106452236.999 8  82949897.895 8  20257157.102                    20257164.578
 114603178.697 8  89301268.359 7  21808258.461                    21808269.066
 123879335.200 7  96529427.364 6  23573462.070                    23573471.684
 111707305.912 7  87044807.98946  21257166.031                    21257172.094
 115518156.794 7  90014222.80145  21982376.016                    21982384.875
 11  8 27  1 19 30.0000000  0  9G04G10G12G26G05G25G29G02G30
 128065207.639 6  99791195.39943  24369980.727                    24369991.859
 118713691.980 7  92504331.25144  22590444.000                    22590452.773
 110158699.085 8  85838016.232 7  20962498.672                    20962506.031
 129308735.080 6 100759994.27243  24606604.930                    24606617.113
 106448260.773 8  82946799.551 8  20256400.383                    20256408.309
 114570675.163 8  89275940.966 7  21802073.313                    21802083.879
 123795531.631 6  96464125.991 6  23557514.727                    23557524.656
 111738893.214 8  87069421.45946  21263177.398                    21263183.281
 115489408.848 7  89991821.80445  21976905.469                    21976914.262
 11  8 27  1 20  0.0000000  0  9G04G10G12G26G05G25G29G02G30
 128143077.378 6  99851873.04642  24384798.086                    24384810.281
 118805866.053 6  92576155.16644  22607983.852                    22607993.383
 110192149.187 8  85864081.236 7  20968863.805                    20968871.633
 129215623.805 5 100687440.25442  24588886.297                    24588898.449
 106444857.064 8  82944147.331 8  20255752.656                    20255760.203
 114538729.877 8  89251048.558 7  21795994.547                    21796005.176
 123711710.352 7  96398810.770 6  23541564.602                    23541574.336
 111770583.893 8  87094115.48246  21269207.688                    21269213.598
 115461251.485 7  89969881.01545  21971547.477                    21971555.879
 11  8 27  1 20 30.0000000  0  9G04G10G12G26G05G25G29G02G30
 128220886.298 6  99912503.33143  24399605.813                    24399616.816
 118898345.397 7  92648216.95044  22625582.211                    22625591.348
 110226141.956 7  85890569.100 7  20975332.109                    20975339.871
 129122408.250 5 100614805.05342  24571146.773                    24571159.656
 106442025.008 8  82941940.569 8  20255213.742                    20255221.199
 114507343.443 7  89226591.622 7  21790021.430                    21790032.230
 123627872.442 6  96333482.606 6  23525610.258                    23525620.438
 111802376.896 7  87118889.25946  21275257.898                    21275263.676
 115433685.179 7  89948400.79045  21966301.820                    21966310.566
 11  8 27  1 21  0.0000000  0  9G04G10G12G26G05G25G29G02G30
 128298634.257 6  99973086.10643  24414400.500                    24414411.711
 118991127.099 7  92720514.34344  22643237.984                    22643247.012
 110260676.049 8  85917478.781 7  20981904.000                    20981911.582
 129029091.280 6 100542090.77343  24553388.336                    24553401.934
 106439764.375 8  82940179.049 8  20254783.625                    20254791.109
 114476517.019 8  89202571.055 7  21784155.641                    21784166.133
 123544019.394 7  96268142.646 6  23509654.203                    23509663.531
 111834271.699 7  87143742.34146  21281326.938                    21281332.813
 115406710.668 7  89927381.70145  21961168.492                    21961177.293
 11  8 27  1 21 30.0000000  0  9G04G10G12G26G05G25G29G02G30
 128376320.617 6 100033620.96243  24429183.297                    24429194.289
 119084208.061 6  92793044.91444  22660950.664                    22660960.070
 110295749.748 8  85944808.922 7  20988578.367                    20988586.324
 128935675.865 6 100469299.73843  24535611.711                    24535625.359
 106438074.372 8  82938862.189 8  20254461.945                    20254469.457
 114446251.308 8  89178987.415 7  21778396.125                    21778406.805
 123460152.327 7  96202791.788 6  23493694.344                    23493703.535
 111866267.536 7  87168674.15746  21287415.867                    21287421.371
 115380328.358 7  89906824.07545  21956148.102                    21956157.547
 11  8 27  1 22  0.0000000  0  9G04G10G12G26G05G25G29G02G30
 128453945.697 6 100094107.99343  24443954.922                    24443965.973
 119177585.526 6  92865806.53544  22678719.469                    22678728.402
 110331361.679 8  85972558.479 7  20995355.484                    20995363.031
 128842164.975 6 100396434.29343  24517818.227                    24517830.320
 106436954.699 8  82937989.732 8  20254249.016                    20254256.406
 114416547.427 7  89155841.550 7  21772743.453                    21772753.844
 123376272.551 7  96137430.984 6  23477732.789                    23477741.680
 111898364.138 7  87193684.50146  21293523.586                    21293529.438
 115354539.192 7  89886728.65845  21951240.578                    21951249.352
 11  8 27  1 22 30.0000000  0  9G04G10G12G26G05G25G29G02G30
 128531508.873 6 100154546.79343  24458715.320                    24458726.926
 119271256.637 7  92938796.97344  22696544.930                    22696553.977
 110367509.918 8  86000725.925 7  21002234.055                    21002241.609
 128748561.416 6 100323496.70743  24500005.758                    24500017.930
 106436404.424 8  82937560.962 8  20254143.945                    20254151.438
 114387406.020 7  89133133.988 7  21767198.273                    21767208.879
 123292381.192 7  96072061.168 6  23461768.133                    23461777.496
 111930560.615 7  87218772.66046  21299650.164                    21299655.891
 115329343.375 7  89867095.56145  21946446.023                    21946454.684
 11  8 27  1 23  0.0000000  0  9G04G10G12G26G05G25G29G02G30
 128609009.901 6 100214937.16743  24473462.898                    24473474.773
 119365218.604 6  93012014.05044  22714425.211                    22714434.609
 110404193.454 8  86029310.486 7  21009214.844                    21009222.375
 128654868.435 6 100250489.40843  24482177.125                    24482188.512
 106436423.188 8  82937575.604 8  20254147.195                    20254154.781
 114358827.972 8  89110865.402 7  21761760.047                    21761770.762
 123208479.633 7  96006683.381 6  23445802.250                    23445811.527
 111962856.702 8  87243938.44246  21305796.039                    21305802.082
 115304741.605 7  89847925.38445  21941764.172                    21941773.488
 11  8 27  1 23 30.0000000  0  9G04G10G12G26G05G25G29G02G30
 128686448.523 6 100275278.90243  24488199.258                    24488210.738
 119459468.767 6  93085455.68644  22732360.820                    22732369.738
 110441410.669 8  86058310.900 7  21016296.656                    21016304.504
 128561088.883 6 100177414.66343  24464330.359                    24464343.102
 106437010.607 8  82938033.358 8  20254259.227                    20254266.676
 114330814.379 8  89089036.639 7  21756429.109                    21756439.449
 123124569.655 6  95941299.054 6  23429835.055                    23429844.238
 111995251.898 7  87269181.44846  21311960.672                    21311966.559
 115280734.600 7  89829218.64945  21937196.109                    21937204.746
 11  8 27  1 24  0.0000000  0  9G04G10G12G26G05G25G29G02G30
 128763824.919 6 100335572.15043  24502923.922                    24502934.531
 119554003.948 7  93159119.42144  22750350.148                    22750358.969
 110479159.967 8  86087725.922 7  21023480.039                    21023487.820
 128467225.844 6 100104274.83143  24446468.227                    24446480.844
 106438166.160 8  82938933.798 8  20254479.250                    20254486.410
 114303365.877 8  89067648.209 7  21751205.625                    21751216.328
 123040652.403 6  95875909.039 6  23413866.078                    23413875.063
 112027745.673 8  87294501.27446  21318143.977                    21318149.875
 115257322.713 7  89810975.64445  21932741.148                    21932750.082
 11  8 27  1 24 30.0000000  0  9G04G10G12G26G05G25G29G02G30
 128841138.856 6 100395816.76143  24517635.750                    24517646.832
 119648821.421 7  93233003.13344  22768393.273                    22768402.805
 110517440.127 8  86117554.600 7  21030764.656                    21030771.914
 128373282.476 6 100031072.43443  24428592.008                    24428604.375
 106439889.493 8  82940276.678 8  20254807.250                    20254815.027
 114276483.561 7  89046700.961 7  21746090.227                    21746101.035
 122956729.359 6  95810514.518 6  23397895.945                    23397904.836
 112060337.729 7  87319897.68746  21324345.961                    21324351.719
 115234506.626 7  89793196.89945  21928398.969                    21928408.336
 11  8 27  1 25  0.0000000  0  9G04G10G12G26G05G25G29G02G30
 128918389.925 6 100456012.40043  24532335.688                    24532347.379
 119743917.799 7  93307104.16944  22786488.992                    22786498.809
 110556248.876 8  86147795.174 7  21038149.898                    21038157.348
 128279261.582 6  99957809.65943  24410699.250                    24410711.906
 106442178.998 8  82942060.733 8  20255242.844                    20255250.367
 114250167.809 8  89026195.193 7  21741082.727                    21741093.027
 122872801.617 6  95745116.362 6  23381924.766                    23381934.086
 112093027.216 7  87345370.01846  21330566.711                    21330572.848
 115212286.517 7  89775882.56145  21924170.492                    21924179.652
 11  8 27  1 25 30.0000000  0  9G04G10G12G26G05G25G29G02G30
 128995577.926 6 100516158.88543  24547023.953                    24547036.246
 119839290.194 6  93381420.27144  22804638.086                    22804647.520
 110595584.453 8  86178446.256 7  21045634.867                    21045642.504
 128185166.046 6  99884488.67743  24392794.055                    24392805.910
 106445034.095 7  82944285.501 8  20255786.391                    20255793.758
 114224419.225 7  89006131.362 7  21736183.117                    21736193.648
 122788870.766 6  95679715.754 6  23365953.039                    23365962.660
 112125813.367 7  87370917.67046  21336805.656                    21336811.746
 115190662.627 7  89759032.79445  21920056.086                    21920064.492
 11  8 27  1 26  0.0000000  0  9G04G10G12G26G05G25G29G02G30
 129072703.113 6 100576256.35743  24561700.977                    24561712.191
 119934936.349 6  93455949.66544  22822840.039                    22822848.250
 110635446.172 8  86209507.329 7  21053220.703                    21053228.234
 128090999.565 6  99811112.44343  24374873.664                    24374886.855
 106448455.143 8  82946951.272 8  20256437.047                    20256444.711
 114199239.279 8  88986510.631 7  21731391.250                    21731401.902
 122704938.237 6  95614313.838 6  23349980.938                    23349990.594
 112158696.615 7  87396540.98446  21343063.234                    21343069.324
 115169636.069 7  89742648.48245  21916054.875                    21916063.574
 11  8 27  1 26 30.0000000  0  9G04G10G12G26G05G25G29G02G30
 129149764.973 6 100636304.53843  24576366.453                    24576376.527
 120030852.792 7  93530689.72744  22841091.922                    22841100.250
 110675831.494 8  86240976.389 7  21060905.289                    21060912.777
 127996764.869 6  99737683.00243  24356941.539                    24356953.977
 106452440.348 8  82950056.635 8  20257195.438                    20257203.266
 114174628.050 8  88967333.040 7  21726707.813                    21726718.813
 122621005.168 6  95548911.512 6  23334009.234                    23334018.496
 112191675.722 7  87422238.99246  21349338.711                    21349344.695
 115149206.644 7  89726729.48245  21912166.977                    21912176.008
 11  8 27  1 27  0.0000000  0  9G04G10G12G26G05G25G29G02G30
 129226763.466 6 100696303.29943  24591017.766                    24591029.031
 120127036.738 7  93605638.21744  22859394.617                    22859403.938
 110716738.738 8  86272852.140 7  21068689.773                    21068697.637
 127902464.898 6  99664202.72743  24338996.859                    24339009.367
 106456989.310 8  82953601.298 8  20258061.117                    20258068.238
 114150586.259 8  88948599.186 7  21722132.352                    21722143.441
 122537073.078 6  95483509.935 6  23318037.742                    23318046.586
 112224750.415 7  87448011.48346  21355632.734                    21355638.813
 115129374.786 7  89711276.09045  21908393.000                    21908401.594
 11  8 27  1 27 30.0000000  0  9G04G10G12G26G05G25G29G02G30
 129303698.017 6 100756252.26843  24605658.328                    24605668.844
 120223485.190 7  93680792.82344  22877748.375                    22877757.148
 110758166.215 8  86305133.276 7  21076573.086                    21076581.219
 127808102.554 6  99590673.82343  24321039.875                    24321052.059
 106462100.685 8  82957584.198 8  20259033.969                    20259041.387
 114127114.321 8  88930309.355 7  21717666.156                    21717677.055
 122453143.388 6  95418110.217 6  23302066.172                    23302075.016
 112257920.108 7  87473858.00346  21361944.570                    21361950.547
 115110140.519 7  89696288.36445  21904732.719                    21904742.285
 11  8 27  1 28  0.0000000  0  9G04G10G12G26G05G25G29G02G30
 129380568.800 6 100816151.54643  24620285.734                    24620296.785
 120320195.263 7  93756151.29144  22896151.852                    22896160.848
 110800112.134 8  86337818.388 7  21084555.133                    21084563.008
 127713681.027 7  99517098.78043  24303072.742                    24303084.340
 106467773.929 8  82962004.921 8  20260113.180                    20260120.984
 114104212.944 8  88912464.121 7  21713308.484                    21713318.715
 122369217.499 7  95352713.479 6  23286095.695                    23286104.934
 112291184.341 7  87499778.17646  21368274.789                    21368280.875
 115091504.219 8  89681766.59045  21901186.609                    21901195.051
 11  8 27  1 28 30.0000000  0  9G04G10G12G26G05G25G29G02G30
 129457375.646 6 100876001.03043  24634901.508                    24634913.297
 120417164.487 7  93831711.65744  22914603.977                    22914613.719
 110842575.038 8  86370906.337 7  21092635.742                    21092643.246
 127619203.647 7  99443480.20743  24285094.047                    24285105.191
 106474008.565 8  82966863.099 8  20261299.563                    20261307.219
 114081882.931 8  88895064.127 7  21709059.195                    21709069.926
 122285296.927 7  95287320.891 6  23270126.164                    23270134.691
 112324542.634 7  87525771.65746  21374622.250                    21374628.109
 115073466.360 8  89667711.12045  21897753.711                    21897762.070
 11  8 27  1 29  0.0000000  0  9G04G10G12G26G05G25G29G02G30
 129534118.575 6 100935800.66043  24649506.211                    24649517.164
 120514389.832 7  93907471.61944  22933105.648                    22933114.883
 110885552.758 8  86404395.449 7  21100814.445                    21100822.184
 127524673.318 7  99369820.36143  24267105.398                    24267116.957
 106480803.773 8  82972158.073 8  20262592.891                    20262600.465
 114060124.840 8  88878109.752 7  21704918.594                    21704928.859
 122201383.204 7  95221933.628 6  23254157.789                    23254166.480
 112357994.831 7  87551838.29546  21380988.305                    21380994.531
 115056027.197 8  89654122.16145  21894435.477                    21894444.297
 11  8 27  1 29 30.0000000  0  9G04G10G12G26G05G25G29G02G30
 129610797.314 6 100995550.31743  24664097.703                    24664109.078
 120611868.266 7  93983428.78444  22951654.305                    22951664.340
 110929043.666 8  86438284.446 7  21109090.234                    21109097.719
 127430093.219 7  99296121.73443  24249107.008                    24249118.684
 106488158.286 8  82977888.883 8  20263992.133                    20263999.676
 114038939.002 8  88861601.308 7  21700886.906                    21700897.730
 122117477.776 6  95156552.839 6  23238191.383                    23238200.910
 112391540.264 7  87577977.59746  21387371.680                    21387377.730
 115039186.659 8  89640999.66745  21891230.656                    21891239.012
 11  8 27  1 30  0.0000000  0  8G10G12G26G05G25G29G02G30
 120709597.392 7  94059581.30544  22970252.445                    22970261.695
 110973045.895 8  86472571.872 7  21117463.469                    21117471.055
 127335466.701 6  99222386.95443  24231100.508                    24231111.926
 106496071.469 8  82984055.011 8  20265498.125                    20265505.250
 114018326.318 8  88845539.484 7  21696964.547                    21696975.074
 122033582.446 6  95091179.930 6  23222225.992                    23222236.082
 112425178.830 8  87604189.46846  21393772.656                    21393779.406
 115022945.312 8  89628344.07245  21888140.250                    21888149.125
 11  8 27  1 30 30.0000000  0  8G10G12G26G05G25G29G02G30
 120807574.217 7  94135926.83344  22988896.813                    22988906.027
 111017557.943 8  86507256.573 7  21125934.172                    21125941.766
 127240797.319 6  99148618.79743  24213085.055                    24213097.270
 106504543.035 8  82990656.245 8  20267110.227                    20267117.945
 113998287.455 7  88829924.778 7  21693151.297                    21693161.508
 121949698.509 7  95025815.879 6  23206263.844                    23206273.000
 112458910.360 8  87630473.77846  21400191.727                    21400197.895
 115007303.509 7  89616155.64945  21885163.734                    21885172.668
 11  8 27  1 31  0.0000000  0  8G10G12G26G05G25G29G02G30
 120905795.485 7  94212462.86544  23007587.836                    23007597.293
 111062577.273 8  86542336.549 7  21134501.102                    21134509.020
 127146087.273 6  99074818.93243  24195062.102                    24195074.488
 106513570.789 8  82997690.869 8  20268828.008                    20268835.582
 113978822.170 8  88814757.034 7  21689447.344                    21689457.676
 121865827.152 7  94960461.639 6  23190303.492                    23190312.684
 112492733.574 8  87656829.53246  21406628.203                    21406633.680
 114992260.696 8  89604433.97445  21882301.008                    21882309.566
 11  8 27  1 31 30.0000000  0  8G10G12G26G05G25G29G02G30
 121004258.405 6  94289187.19044  23026325.078                    23026333.699
 111108102.245 8  86577810.529 7  21143164.039                    21143172.000
 127051340.168 6  99000990.22243  24177032.016                    24177043.648
 106523154.148 8  83005158.445 8  20270651.734                    20270659.305
 113959931.059 8  88800036.686 7  21685852.688                    21685863.367
 121781969.857 7  94895118.355 6  23174346.305                    23174354.836
 112526648.560 8  87683256.79746  21413081.930                    21413088.148
 114977817.006 8  89593179.13845  21879553.000                    21879561.438
 11  8 27  1 32  0.0000000  0  8G10G12G26G05G25G29G02G30
 121102959.950 7  94366097.43344  23045107.492                    23045116.512
 111154131.118 8  86613677.162 7  21151923.133                    21151931.137
 126956559.088 6  98927135.02643  24158995.594                    24159007.727
 106533292.274 8  83013058.290 8  20272580.922                    20272588.836
 113941614.704 8  88785764.215 7  21682367.078                    21682377.168
 121698128.451 7  94829787.444 7  23158391.250                    23158400.383
 112560654.760 8  87709755.12046  21419553.164                    21419558.910
 114963972.842 8  89582391.47945  21876918.531                    21876926.426
 11  8 27  1 32 30.0000000  0  8G10G12G26G05G25G29G02G30
 121201897.479 6  94443191.57844  23063934.078                    23063943.980
 111200661.500 8  86649934.588 7  21160777.719                    21160785.465
 126861747.156 7  98853255.76043  24140953.930                    24140965.293
 106543983.900 8  83021389.459 8  20274615.227                    20274622.840
 113923873.350 8  88771939.793 7  21678990.930                    21679001.375
 121614304.233 7  94764469.945 6  23142439.859                    23142449.305
 112594751.792 8  87736324.24746  21426041.688                    21426047.824
 114950728.004 8  89572070.81045  21874397.805                    21874406.004
 11  8 27  1 33  0.0000000  0  8G10G12G26G05G25G29G02G30
 121301068.120 6  94520467.33644  23082806.125                    23082815.449
 111247692.049 8  86686581.746 7  21169727.508                    21169735.219
 126766907.829 6  98779355.16343  24122906.008                    24122917.609
 106555228.516 8  83030151.510 8  20276755.367                    20276762.512
 113906707.484 8  88758563.817 7  21675724.133                    21675734.520
 121530498.901 7  94699167.147 7  23126492.305                    23126501.277
 112628939.546 8  87762964.05946  21432547.172                    21432553.020
 114938082.627 8  89562217.28345  21871991.852                    21872000.160
 11  8 27  1 33 30.0000000  0  8G10G12G26G05G25G29G02G30
 121400468.655 6  94597922.28544  23101721.852                    23101730.273
 111295220.814 8  86723617.127 7  21178771.758                    21178779.563
 126672044.239 6  98705435.64043  24104854.016                    24104865.871
 106567024.672 8  83039343.350 8  20278999.898                    20279007.453
 113890117.333 8  88745636.435 7  21672567.523                    21672577.680
 121446713.915 7  94633880.226 6  23110548.281                    23110557.867
 112663217.485 8  87789674.14046  21439070.133                    21439076.250
 114926036.625 8  89552830.78745  21869698.977                    21869707.391
 11  8 27  1 34  0.0000000  0  8G10G12G26G05G25G29G02G30
 121500096.694 6  94675554.51244  23120679.828                    23120688.910
 111343244.892 8  86761038.475 7  21187910.102                    21187918.359
 126577159.510 6  98631499.66343  24086797.789                    24086809.609
 106579371.336 8  83048964.140 8  20281349.344                    20281356.941
 113874103.210 8  88733157.918 7  21669519.625                    21669530.484
 121362950.850 7  94568610.376 6  23094608.883                    23094617.871
 112697584.993 8  87816454.00746  21445610.047                    21445616.172
 114914589.895 8  89543911.25445  21867520.867                    21867529.422
 11  8 27  1 34 30.0000000  0  8G10G12G26G05G25G29G02G30
 121599949.257 6  94753361.67744  23139680.531                    23139690.473
 111391762.496 8  86798844.382 7  21197142.875                    21197150.688
 126482256.790 6  98557549.67043  24068738.398                    24068749.496
 106592267.220 8  83059012.906 8  20283803.289                    20283810.949
 113858665.335 8  88721128.417 7  21666582.469                    21666592.766
 121279211.368 7  94503358.882 6  23078673.820                    23078682.875
 112732041.773 8  87843303.45446  21452166.930                    21452172.691
 114903742.383 8  89535458.65345  21865456.891                    21865465.328
 11  8 27  1 35  0.0000000  0  8G10G12G26G05G25G29G02G30
 121700023.566 6  94831341.57544  23158724.469                    23158734.531
 111440772.140 8  86837033.697 7  21206469.102                    21206476.879
 126387339.625 6  98483588.42643  24050676.141                    24050687.195
 106605711.791 8  83069489.207 8  20286361.883                    20286369.328
 113843804.273 8  88709548.377 7  21663754.008                    21663764.602
 121195497.238 7  94438127.147 6  23062743.773                    23062752.938
 112766587.794 8  87870222.44546  21458740.875                    21458746.992
 114893494.133 8  89527473.01645  21863506.344                    21863514.867
 11  8 27  1 35 30.0000000  0  8G10G12G26G05G25G29G02G30
 121800316.739 7  94909492.05544  23177809.945                    23177819.422
 111490271.817 8  86875604.855 7  21215888.703                    21215896.594
 126292411.055 6  98409618.30143  24032611.969                    24032623.109
 106619703.473 8  83080391.840 8  20289024.063                    20289031.977
 113829520.038 8  88698417.828 7  21661035.766                    21661046.633
 121111809.768 7  94372916.188 6  23046818.227                    23046826.973
 112801222.804 7  87897210.77346  21465331.547                    21465337.465
 114883844.896 8  89519954.13945  21861670.477                    21861678.906
 11  8 27  1 36  0.0000000  0  8G10G12G26G05G25G29G02G30
 121900825.925 7  94987810.88144  23196936.641                    23196945.926
 111540258.887 8  86914555.806 7  21225400.813                    21225408.711
 126197474.159 6  98335641.70743  24014545.820                    24014557.371
 106634241.042 8  83091719.834 8  20291790.742                    20291798.059
 113815812.722 8  88687736.803 7  21658427.797                    21658438.281
 121028150.428 7  94307727.147 6  23030898.320                    23030907.480
 112835945.999 8  87924267.81046  21471938.859                    21471945.531
 114874794.446 8  89512901.85445  21859948.219                    21859956.922
 11  8 27  1 36 30.0000000  0  8G10G12G26G05G25G29G02G30
 122001548.075 7  95066295.65944  23216102.828                    23216112.371
 111590731.222 8  86953884.876 7  21235005.484                    21235013.465
 126102532.609 6  98261661.44544  23996479.305                    23996490.492
 106649323.401 8  83103472.341 8  20294660.969                    20294668.098
 113802682.441 8  88677505.428 7  21655928.898                    21655939.488
 120944520.873 7  94242561.284 6  23014984.500                    23014993.098
 112870757.113 8  87951393.34946  21478563.648                    21478569.141
 114866342.498 8  89506315.93445  21858339.508                    21858348.445
 11  8 27  1 37  0.0000000  0  8G10G12G26G05G25G29G02G30
 122102480.366 7  95144944.17743  23235309.375                    23235318.918
 111641686.895 8  86993590.576 7  21244702.047                    21244709.820
 126007589.073 6  98187679.65944  23978412.047                    23978422.730
 106664948.924 8  83115648.082 8  20297634.039                    20297641.594
 113790129.286 8  88667723.760 7  21653540.133                    21653550.922
 120860922.704 7  94177419.922 6  22999076.367                    22999085.164
 112905655.580 8  87978586.96046  21485204.344                    21485210.555
 114858488.761 8  89500196.14945  21856845.273                    21856854.176
 11  8 27  1 37 30.0000000  0  8G10G12G26G05G25G29G02G30
 122203619.921 7  95223754.18143  23254555.828                    23254565.160
 111693123.524 8  87033671.049 7  21254489.828                    21254498.164
 125912647.102 6  98113699.04644  23960344.336                    23960355.773
 106681116.366 8  83128246.101 8  20300710.898                    20300718.516
 113778153.358 8  88658391.879 7  21651261.047                    21651272.117
 120777357.496 7  94112304.217 6  22983174.023                    22983183.094
 112940641.370 8  88005848.62146  21491862.258                    21491868.125
 114851232.922 8  89494542.26245  21855464.641                    21855473.098
 11  8 27  1 38  0.0000000  0  8G10G12G26G05G25G29G02G30
 122304964.405 7  95302723.89743  23273841.352                    23273850.438
 111745039.406 8  87074124.964 7  21264369.219                    21264377.227
 125817710.256 7  98039722.44644  23942278.633                    23942290.367
 106697825.212 8  83141265.998 8  20303890.375                    20303897.898
 113766755.067 8  88649510.097 7  21649091.813                    21649103.191
 120693827.287 7  94047215.808 6  22967278.070                    22967287.836
 112975714.358 8  88033178.21646  21498536.313                    21498542.367
 114844575.065 7  89489354.33645  21854197.438                    21854206.457
 11  8 27  1 38 30.0000000  0  8G10G12G26G05G25G29G02G30
 122406510.625 7  95381850.81744  23293165.281                    23293174.375
 111797431.940 8  87114950.289 7  21274339.172                    21274347.516
 125722781.606 6  97965752.21843  23924213.789                    23924225.016
 106715073.529 8  83154706.256 8  20307172.430                    20307179.922
 113755934.199 8  88641078.257 7  21647032.977                    21647043.922
 120610333.385 7  93982155.677 6  22951389.891                    22951399.090
 113010874.136 8  88060575.45746  21505226.914                    21505232.707
 114838514.649 8  89484631.94245  21853044.375                    21853053.293
 11  8 27  1 39  0.0000000  0  8G10G12G26G05G25G29G02G30
 122508255.923 7  95461132.83244  23312526.938                    23312536.172
 111850299.503 8  87156145.774 7  21284399.703                    21284408.180
 125627864.684 6  97891791.13743  23906152.195                    23906162.758
 106732860.574 8  83168566.302 8  20310557.594                    20310564.898
 113745691.220 8  88633096.712 7  21645083.695                    21645094.195
 120526877.614 7  93917125.273 7  22935509.000                    22935518.535
 113046120.760 8  88088040.34346  21511934.344                    21511940.512
 114833051.741 8  89480375.13445  21852004.820                    21852013.945
 11  8 27  1 39 30.0000000  0  8G10G12G26G05G25G29G02G30
 122610197.478 7  95540567.79244  23331925.367                    23331934.805
 111903639.800 8  87197709.619 7  21294550.203                    21294558.070
 125532962.530 6  97817841.55543  23888092.125                    23888102.938
 106751184.870 8  83182844.986 8  20314044.484                    20314051.902
 113736026.001 8  88625565.376 7  21643244.367                    21643255.129
 120443461.838 7  93852126.018 7  22919636.070                    22919644.430
 113081453.522 8  88115572.35346  21518658.047                    21518663.742
 114828185.733 7  89476583.44245  21851078.508                    21851087.660
 11  8 27  1 40  0.0000000  0  8G10G12G26G05G25G29G02G30
 122712332.539 7  95620153.52144  23351361.164                    23351370.539
 111957450.504 7  87239640.014 7  21304789.969                    21304797.891
 125438078.847 6  97743906.35643  23870036.203                    23870047.344
 106770045.212 8  83197541.359 8  20317633.352                    20317640.719
 113726938.471 8  88618484.178 7  21641515.289                    21641526.273
 120360087.731 7  93787159.261 7  22903770.219                    22903778.676
 113116872.338 8  88143171.43646  21525397.953                    21525403.965
 114823916.338 7  89473256.65545  21850266.211                    21850274.973
 11  8 27  1 40 30.0000000  0  8G10G12G26G05G25G29G02G30
 122814658.196 7  95699887.78344  23370832.711                    23370842.715
 112011729.391 7  87281935.222 7  21315119.109                    21315126.918
 125343216.653 6  97669987.93844  23851985.188                    23851995.480
 106789439.787 8  83212654.023 8  20321324.086                    20321331.293
 113718428.351 8  88611852.915 7  21639895.883                    21639906.613
 120276756.506 7  93722225.894 6  22887912.359                    22887920.984
 113152376.669 8  88170837.14046  21532154.219                    21532159.840
 114820242.822 7  89470394.16845  21849567.320                    21849575.793
 11  8 27  1 41  0.0000000  0  8G10G12G26G05G25G29G02G30
 122917171.612 7  95779768.32243  23390340.211                    23390350.219
 112066473.791 8  87324593.181 7  21325536.438                    21325544.457
 125248379.461 6  97596088.98043  23833937.742                    23833948.789
 106809367.413 8  83228182.044 8  20325115.766                    20325123.691
 113710495.806 8  88605671.702 7  21638386.367                    21638396.746
 120193470.111 7  93657327.501 6  22872063.148                    22872072.406
 113187966.466 8  88198569.44046  21538926.813                    21538932.590
 114817164.890 7  89467995.78245  21848981.219                    21848990.203
 11  8 27  1 41 30.0000000  0  8G10G12G26G05G25G29G02G30
 123019870.172 7  95859793.16943  23409883.078                    23409893.074
 112121681.718 8  87367612.320 7  21336041.992                    21336049.895
 125153570.569 6  97522212.07044  23815896.523                    23815907.629
 106829826.906 8  83244124.512 8  20329009.453                    20329016.914
 113703140.828 8  88599940.548 7  21636986.836                    21636996.832
 120110230.356 7  93592465.398 6  22856223.547                    22856232.371
 113223641.635 8  88226368.24346  21545715.031                    21545721.434
 114814682.230 7  89466061.24745  21848509.125                    21848517.559
 11  8 27  1 42  0.0000000  0  8G10G12G26G05G25G29G02G30
 123122750.768 6  95939959.84843  23429461.344                    23429470.191
 112177350.580 7  87410990.635 7  21346635.891                    21346643.336
 125058793.132 6  97448359.67244  23797860.164                    23797871.879
 106850816.221 8  83260479.829 8  20333003.367                    20333010.832
 113696362.926 8  88594659.042 7  21635697.219                    21635707.602
 120027038.695 7  93527640.826 7  22840392.266                    22840401.266
 113259401.374 8  88254232.96046  21552520.273                    21552526.652
 114812794.008 7  89464589.88245  21848149.703                    21848158.328
 11  8 27  1 42 30.0000000  0  8G10G12G26G05G25G29G02G30
 123225811.092 6  96020266.55743  23449072.484                    23449083.125
 112233478.116 7  87454726.357 7  21357316.023                    21357324.199
 124964050.568 6  97374534.44543  23779830.891                    23779842.559
 106872334.154 8  83277247.061 8  20337098.367                    20337105.984
 113690162.013 8  88589827.152 7  21634516.992                    21634527.344
 119943896.909 7  93462855.062 7  22824571.234                    22824580.348
 113295245.961 8  88282163.78145  21559341.078                    21559346.961
 114811499.646 8  89463581.29045  21847903.203                    21847912.223
 11  8 27  1 43  0.0000000  0  8G10G12G26G05G25G29G02G30
 123329048.114 6  96100710.92343  23468717.563                    23468727.871
 112290062.349 7  87498817.942 7  21368083.891                    21368091.992
 124869346.346 6  97300739.07543  23761809.844                    23761820.438
 106894379.359 8  83294425.149 8  20341293.336                    20341300.910
 113684538.029 8  88585444.817 7  21633446.742                    21633457.332
 119860806.800 7  93398109.605 7  22808759.930                    22808769.105
 113331174.802 8  88310160.25246  21566178.391                    21566183.848
 114810798.842 8  89463035.19745  21847770.203                    21847778.520
 11  8 27  1 43 30.0000000  0  8G10G12G26G05G25G29G02G30
 123432459.164 7  96181290.89343  23488397.070                    23488406.285
 112347101.179 7  87543263.776 7  21378937.891                    21378946.117
 124774684.213 6  97226976.52443  23743795.883                    23743806.695
 106916950.973 8  83312013.425 8  20345588.461                    20345596.262
 113679491.285 8  88581512.270 7  21632486.391                    21632496.945
 119777770.508 7  93333406.069 7  22792958.508                    22792967.277
 113367188.314 8  88338222.71446  21573031.453                    21573037.246
 114810691.371 8  89462951.43745  21847749.984                    21847758.840
 11  8 27  1 44  0.0000000  0  9G15G10G12G26G05G25G29G02G30
 129483708.75116 100896592.00316  24639964.172
 123536041.393 7  96262004.29943  23508108.016                    23508117.484
 112404592.260 7  87588061.997 7  21389877.961                    21389886.086
 124680067.475 6  97153249.34343  23725790.508                    23725801.539
 106940047.254 8  83330010.540 8  20349983.344                    20349991.027
 113675021.336 8  88578029.184 7  21631635.906                    21631646.605
 119694789.708 7  93268745.766 7  22777167.828                    22777176.508
 113403286.192 8  88366350.89646  21579900.914                    21579906.840
 114811176.484 7  89463329.43845  21847842.188                    21847850.508
 11  8 27  1 44 30.0000000  0  9G15G10G12G26G05G25G29G02G30
 129390915.885 6 100824286.216 6  24622305.539                    24622319.520
 123639792.007 7  96342848.93443  23527851.023                    23527860.184
 112462532.382 7  87633210.128 7  21400904.047                    21400911.906
 124585499.199 6  97079559.90843  23707794.688                    23707806.098
 106963666.320 8  83348415.011 8  20354478.180                    20354485.605
 113671127.455 8  88574994.974 7  21630894.734                    21630905.262
 119611865.713 7  93204129.735 7  22761387.734                    22761396.383
 113439467.451 8  88394544.06346  21586785.836                    21586791.828
 114812253.020 7  89464168.29045  21848046.828                    21848055.008
 11  8 27  1 45  0.0000000  0  9G15G10G12G26G05G25G29G02G30
 129297987.012 6 100751874.399 6  24604622.438                    24604635.578
 123743707.772 7  96423822.26743  23547625.867                    23547634.855
 112520919.116 7  87678706.279 7  21412014.539                    21412022.684
 124490982.254 6  97005910.45644  23689808.883                    23689819.754
 106987805.893 8  83367225.087 8  20359071.852                    20359079.406
 113667809.042 8  88572409.181 7  21630263.602                    21630274.195
 119528999.953 7  93139559.069 7  22745619.297                    22745627.676
 113475731.854 8  88422802.02646  21593686.656                    21593692.633
 114813920.015 7  89465467.23545  21848363.945                    21848372.832
 11  8 27  1 45 30.0000000  0  9G15G10G12G26G05G25G29G02G30
 129204924.916 6 100679358.763 6  24586912.711                    24586926.465
 123847786.610 7  96504922.66543  23567430.859                    23567439.547
 112579750.659 7  87724549.023 7  21423209.773                    21423217.473
 124396521.047 6  96932304.42643  23671833.891                    23671844.328
 107012465.497 8  83386440.363 8  20363764.492                    20363771.719
 113665066.599 8  88570272.210 7  21629741.578                    21629752.016
 119446194.814 7  93075035.652 7  22729861.125                    22729870.059
 113512079.734 7  88451125.03446  21600603.734                    21600609.664
 114816177.576 7  89467226.35545  21848793.711                    21848802.547
 11  8 27  1 46  0.0000000  0  9G15G10G12G26G05G25G29G02G30
 129111732.080 6 100606741.274 6  24569178.664                    24569191.754
 123952025.676 7  96586147.86943  23587267.023                    23587276.445
 112639024.447 7  87770736.390 7  21434489.188                    21434497.473
 124302118.544 6  96858744.15844  23653870.133                    23653879.895
 107037643.149 8  83406059.328 8  20368555.398                    20368563.090
 113662899.558 8  88568583.583 7  21629329.078                    21629339.852
 119363452.070 7  93010560.823 7  22714116.148                    22714124.531
 113548511.032 8  88479513.04046  21607535.789                    21607542.152
 114819024.717 7  89469444.89845  21849335.406                    21849344.137
 11  8 27  1 46 30.0000000  0  9G15G10G12G26G05G25G29G02G30
 129018411.004 6 100534023.822 6  24551419.680                    24551433.082
 124056422.512 7  96667495.97944  23607133.820                    23607142.746
 112698738.292 7  87817266.646 7  21445852.422                    21445860.520
 124207778.659 6  96785232.67244  23635916.773                    23635927.895
 107063337.553 8  83426080.954 8  20373444.844                    20373452.168
 113661307.647 8  88567343.129 7  21629026.086                    21629036.637
 119280773.461 7  92946135.994 7  22698382.875                    22698391.789
 113585025.402 8  88507965.77146  21614484.641                    21614490.563
 114822460.846 7  89472122.39545  21849989.117                    21849998.313
 11  8 27  1 47  0.0000000  0  9G15G10G12G26G05G25G29G02G30
 128924964.572 6 100461208.729 5  24533637.719                    24533650.426
 124160973.985 7  96748964.62144  23627028.914                    23627038.242
 112758889.436 8  87864137.639 7  21457298.875                    21457307.023
 124113504.749 6  96711772.60444  23617977.313                    23617988.293
 107089547.317 8  83446504.158 8  20378432.367                    20378439.828
 113660290.673 8  88566550.673 7  21628832.867                    21628843.156
 119198161.179 7  92881762.813 7  22682661.859                    22682670.840
 113621622.907 8  88536483.30646  21621449.227                    21621455.004
 114826485.299 7  89475258.32245  21850754.820                    21850763.988
 11  8 27  1 47 30.0000000  0  9G15G10G12G26G05G25G29G02G30
 128831394.735 6 100388297.484 5  24515831.453                    24515844.160
 124265677.699 7  96830551.87044  23646953.102                    23646962.488
 112819476.011 7  87911347.938 7  21468828.242                    21468836.293
 124019300.167 6  96638366.54944  23600049.805                    23600061.047
 107116270.677 8  83467327.560 8  20383517.555                    20383525.207
 113659848.192 8  88566205.883 7  21628748.328                    21628759.090
 119115617.003 7  92817442.713 7  22666954.586                    22666963.180
 113658303.452 8  88565065.52346  21628429.164                    21628435.301
 114831097.330 7  89478852.09845  21851632.656                    21851641.477
 11  8 27  1 48  0.0000000  0  9G15G10G12G26G05G25G29G02G30
 128737704.105 6 100315292.091 5  24498002.266                    24498015.211
 124370530.648 7  96912255.42544  23666905.977                    23666915.723
 112880494.628 7  87958894.898 7  21480439.531                    21480447.680
 123925167.964 6  96565016.90344  23582137.258                    23582148.414
 107143505.418 8  83488549.456 8  20388700.281                    20388707.645
 113659979.360 8  88566308.096 7  21628773.516                    21628783.863
 119033142.363 7  92753176.811 7  22651260.078                    22651269.156
 113695066.474 8  88593712.04046  21635424.992                    21635430.449
 114836295.592 7  89482902.69145  21852622.008                    21852631.176
 11  8 27  1 48 30.0000000  0  9G15G10G12G26G05G25G29G02G30
 128643895.194 6 100242194.492 5  24480150.672                    24480163.668
 124475530.468 7  96994073.40443  23686886.625                    23686896.953
 112941943.553 7  88006777.155 7  21492132.977                    21492140.801
 123831112.215 6  96491726.81144  23564239.891                    23564250.125
 107171250.481 8  83510169.002 8  20393979.828                    20393987.695
 113660684.118 8  88566857.246 7  21628907.773                    21628918.305
 118950739.478 7  92688966.795 7  22635579.094                    22635587.633
 113731911.847 8  88622422.71145  21642436.008                    21642441.855
 114842079.682 8  89487409.77345  21853722.883                    21853731.563
 11  8 27  1 49  0.0000000  0  9G15G10G12G26G05G25G29G02G30
 128549970.345 5 100169006.662 6  24462276.992                    24462290.609
 124580674.616 6  97076003.85643  23706894.500                    23706905.320
 113003819.827 8  88054992.418 7  21503907.547                    21503915.652
 123737136.185 7  96418498.82644  23546356.781                    23546366.770
 107199504.160 8  83532184.876 8  20399356.195                    20399363.777
 113661961.927 8  88567852.949 7  21629150.797                    21629161.566
 118868409.953 7  92624813.945 7  22619912.602                    22619920.871
 113768839.948 8  88651197.85546  21649463.570                    21649469.668
 114848448.696 8  89492372.63745  21854934.508                    21854943.316
 11  8 27  1 49 30.0000000  0  9G15G10G12G26G05G25G29G02G30
 128455932.620 6 100095730.796 6  24444382.414                    24444395.164
 124685960.018 6  97158044.38243  23726930.523                    23726940.016
 113066121.116 7  88103538.856 7  21515763.008                    21515771.273
 123643243.268 7  96345335.58744  23528489.133                    23528499.465
 107228264.484 8  83554595.531 8  20404829.289                    20404837.203
 113663812.082 7  88569294.628 7  21629502.820                    21629513.523
 118786155.405 7  92560719.536 7  22604259.555                    22604268.512
 113805850.286 8  88680037.07046  21656506.219                    21656512.492
 114855401.486 8  89497790.40445  21856257.469                    21856266.742
 11  8 27  1 50  0.0000000  0  9G15G10G12G26G05G25G29G02G30
 128361784.301 6 100022368.777 6  24426465.531                    24426478.680
 124791384.111 6  97240192.93943  23746991.328                    23747002.109
 113128844.511 7  88152414.210 7  21527699.508                    21527707.348
 123549436.991 7  96272239.86244  23510638.586                    23510648.906
 107257529.811 7  83577399.692 8  20410398.625                    20410405.977
 113666234.093 8  88571181.908 7  21629963.672                    21629974.457
 118703977.833 7  92496685.078 7  22588622.031                    22588630.148
 113842942.770 8  88708940.30645  21663564.891                    21663570.711
 114862937.182 8  89503662.36945  21857691.820                    21857700.563
 11  8 27  1 50 30.0000000  0  9G15G10G12G26G05G25G29G02G30
 128267527.521 7  99948922.250 6  24408529.531                    24408541.805
 124896944.362 6  97322447.58543  23767078.789                    23767089.371
 113191987.857 8  88201616.798 7  21539715.172                    21539722.957
 123455720.935 7  96199214.45844  23492804.641                    23492814.859
 107287298.856 8  83600596.371 8  20416063.414                    20416070.477
 113669227.517 8  88573514.445 7  21630533.453                    21630543.973
 118621879.701 7  92432712.552 7  22572999.023                    22573007.695
 113880117.566 7  88737907.67345  21670638.820                    21670644.625
 114871054.937 8  89509987.89245  21859236.563                    21859244.898
 11  8 27  1 51  0.0000000  0  9G15G10G12G26G05G25G29G02G30
 128173165.133 7  99875393.403 6  24390572.969                    24390585.285
 125002637.732 7  97404806.00243  23787192.000                    23787201.789
 113255548.395 7  88251144.478 7  21551810.219                    21551818.043
 123362098.511 7  96126262.02044  23474989.109                    23474999.301
 107317569.230 8  83624183.702 8  20421823.172                    20421830.719
 113672791.652 8  88576291.698 7  21631211.531                    21631222.168
 118539862.395 7  92368803.001 7  22557391.703                    22557400.246
 113917373.950 8  88766938.62045  21677727.898                    21677733.969
 114879753.589 8  89516766.06745  21860891.688                    21860900.742
 11  8 27  1 51 30.0000000  0  9G15G10G12G26G05G25G29G02G30
 128078699.477 6  99801784.083 6  24372596.367                    24372609.547
 125108461.610 7  97487266.12544  23807329.617                    23807339.512
 113319523.504 8  88300995.187 7  21563984.141                    21563992.066
 123268573.072 6  96053385.18644  23457191.297                    23457201.832
 107348339.040 8  83648160.185 8  20427678.875                    20427686.254
 113676925.705 8  88579513.037 7  21631998.422                    21632009.227
 118457927.803 7  92304957.897 7  22541800.570                    22541808.934
 113954711.791 7  88796033.02645  21684833.477                    21684839.660
 114889032.008 7  89523996.00945  21862657.563                    21862666.035
 11  8 27  1 52  0.0000000  0  9G15G10G12G26G05G25G29G02G30
 127984133.496 7  99728096.613 6  24354600.578                    24354613.051
 125214413.744 7  97569826.17444  23827492.070                    23827501.641
 113383910.982 8  88351167.228 7  21576236.406                    21576245.063
 123175148.607 6  95980587.01944  23439413.000                    23439423.879
 107379607.359 8  83672525.124 8  20433628.781                    20433636.336
 113681629.451 8  88583178.307 7  21632893.336                    21632903.891
 118376078.028 7  92241178.900 7  22526224.461                    22526232.879
 113992131.520 7  88825191.25746  21691954.641                    21691960.277
 114898889.626 7  89531677.27345  21864533.578                    21864542.152
 11  8 27  1 52 30.0000000  0  9G15G10G12G26G05G25G29G02G30
 127889469.704 7  99654332.929 6  24336586.555                    24336598.938
 125320491.514 7  97652484.08643  23847678.266                    23847687.965
 113448707.991 7  88401658.388 7  21588567.188                    21588575.129
 123081828.305 7  95907870.01044  23421654.750                    23421665.332
 107411372.003 7  83697276.811 8  20439673.539                    20439680.793
 113686902.016 8  88587286.804 7  21633896.805                    21633907.156
 118294314.843 7  92177467.365 7  22510665.359                    22510674.285
 114029632.951 7  88854413.14545  21699090.492                    21699096.496
 114909325.057 7  89539808.77245  21866519.055                    21866527.957
 11  8 27  1 53  0.0000000  0  9G15G10G12G26G05G25G29G02G30
 127794710.348 7  99580494.776 6  24318554.203                    24318566.348
 125426691.905 7  97735237.57743  23867887.227                    23867897.566
 113513911.654 7  88452466.407 7  21600974.961                    21600983.117
 122988615.483 7  95835236.75644  23403916.688                    23403927.457
 107443630.674 7  83722413.451 8  20445811.883                    20445819.355
 113692742.398 8  88591837.762 7  21635008.102                    21635019.066
 118212640.098 7  92113824.755 7  22495123.375                    22495131.949
 114067215.404 7  88883698.15545  21706242.367                    21706248.242
 114920336.953 8  89548389.46345  21868614.758                    21868623.156
 11  8 27  1 53 30.0000000  0  9G15G10G12G26G05G25G29G02G30
 127699858.455 6  99506584.527 6  24300504.273                    24300516.648
 125533012.311 7  97818084.60643  23888119.813                    23888128.301
 113579519.591 7  88503589.458 7  21613460.125                    21613468.156
 122895513.997 7  95762690.21944  23386200.086                    23386210.426
 107476381.827 8  83747933.846 8  20452044.305                    20452052.086
 113699150.186 8  88596830.853 7  21636227.477                    21636238.180
 118131055.676 7  92050252.529 7  22479598.695                    22479606.332
 114104879.601 8  88913046.86646  21713409.633                    21713415.867
 114931924.484 8  89557418.70245  21870819.484                    21870828.074
 11  8 27  1 54  0.0000000  0  9G15G10G12G26G05G25G29G02G30
 127604916.203 6  99432603.884 6  24282437.406                    24282448.879
 125639450.350 6  97901023.37642  23908374.273                    23908382.539
 113645529.017 7  88555025.370 7  21626021.188                    21626029.316
 122802527.227 7  95690233.08044  23368505.477                    23368515.785
 107509623.769 7  83773836.668 8  20458369.930                    20458377.691
 113706124.552 8  88602265.430 7  21637554.656                    21637565.469
 118049563.849 7  91986752.451 7  22464090.758                    22464099.191
 114142625.160 7  88942458.97846  21720592.398                    21720598.438
 114944086.481 8  89566895.58945  21873133.813                    21873142.352
 11  8 27  1 54 30.0000000  0  9G15G10G12G26G05G25G29G02G30
 127509886.514 6  99358555.076 6  24264352.523                    24264364.785
 125746003.571 6  97984051.82943  23928650.148                    23928660.496
 113711937.532 7  88606772.240 7  21638657.938                    21638666.180
 122709659.022 6  95617868.33843  23350833.148                    23350842.809
 107543355.005 8  83800120.759 8  20464788.656                    20464796.559
 113713665.030 8  88608141.129 7  21638989.336                    21638999.891
 117968166.527 7  91923326.023 7  22448601.602                    22448610.199
 114180452.259 8  88971934.62245  21727790.836                    21727797.160
 114956821.897 8  89576819.28945  21875557.602                    21875566.148
 11  8 27  1 55  0.0000000  0  9G15G10G12G26G05G25G29G02G30
 127414772.065 6  99284440.235 5  24246253.250                    24246265.125
 125852669.125 6  98067167.77843  23948947.734                    23948958.121
 113778742.538 7  88658828.076 7  21651371.102                    21651378.809
 122616912.972 6  95545598.80744  23333183.000                    23333193.738
 107577573.334 8  83826784.411 8  20471300.469                    20471308.086
 113721770.611 8  88614457.177 7  21640531.938                    21640542.906
 117886865.591 7  91859974.706 7  22433130.359                    22433138.516
 114218360.678 8  89001473.64746  21735004.734                    21735010.465
 114970129.514 8  89587188.85145  21878089.781                    21878098.453
 11  8 27  1 55 30.0000000  0  9G15G10G12G26G05G25G29G02G30
 127319575.208 6  99210261.118 6  24228137.789                    24228149.266
 125959444.289 6  98150369.14243  23969267.086                    23969276.801
 113845941.055 7  88711190.533 7  21664158.055                    21664166.477
 122524292.425 7  95473427.05944  23315559.078                    23315569.555
 107612276.621 8  83853825.940 8  20477904.164                    20477911.840
 113730440.407 8  88621212.870 7  21642181.711                    21642192.316
 117805662.854 7  91796699.894 7  22417677.813                    22417686.008
 114256350.368 7  89031075.99345  21742233.508                    21742239.375
 114984008.030 8  89598003.29345  21880731.281                    21880739.719
 11  8 27  1 56  0.0000000  0  9G15G10G12G26G05G25G29G02G30
 127224298.717 6  99136019.955 6  24210006.922                    24210018.867
 126066326.669 6  98233654.06843  23989605.203                    23989615.555
 113913530.322 7  88763857.491 7  21677019.828                    21677028.563
 122431800.930 7  95401355.86744  23297957.609                    23297968.324
 107647463.273 8  83881244.122 8  20484600.016                    20484607.723
 113739673.562 8  88628407.538 7  21643938.781                    21643949.473
 117724560.435 7  91733503.247 7  22402244.469                    22402252.906
 114294421.242 7  89060741.60845  21749478.398                    21749484.672
 114998456.105 8  89609261.53745  21883480.367                    21883488.824
 11  8 27  1 56 30.0000000  0  9G15G10G12G26G05G25G29G02G30
 127128945.327 7  99061718.923 6  24191861.867                    24191873.332
 126173313.730 6  98317020.53243  24009964.656                    24009975.273
 113981507.868 7  88816826.993 7  21689955.914                    21689963.910
 122339442.152 7  95329388.09044  23280383.414                    23280393.105
 107683131.599 7  83909037.625 8  20491387.570                    20491395.055
 113749469.359 8  88636040.628 7  21645802.805                    21645813.617
 117643560.525 7  91670386.496 7  22386830.695                    22386839.055
 114332573.163 7  89090470.36145  21756738.516                    21756743.879
 115013472.663 8  89620962.74345  21886337.586                    21886346.738
 11  8 27  1 57  0.0000000  0  9G15G10G12G26G05G25G29G02G30
 127033517.396 7  98987359.754 6  24173702.719                    24173713.555
 126280402.925 6  98400466.58743  24030342.602                    24030352.730
 114049870.732 7  88870096.742 7  21702964.930                    21702972.926
 122247219.351 7  95257526.25044  23262833.766                    23262844.137
 107719279.068 8  83937204.501 8  20498266.344                    20498273.141
 113759826.537 8  88644111.150 7  21647773.656                    21647784.270
 117562664.724 7  91607350.843 7  22371436.531                    22371445.426
 114370806.270 8  89120262.38745  21764013.891                    21764020.113
 115029056.113 8  89633105.69845  21889303.203                    21889311.789
 11  8 27  1 57 30.0000000  0  9G15G10G12G26G05G25G29G02G30
 126938017.828 7  98912944.741 6  24155529.445                    24155540.457
 126387591.395 6  98483989.98043  24050740.250                    24050750.703
 114118616.112 8  88923664.551 7  21716046.539                    21716054.730
 122155136.273 7  95185773.28644  23245310.859                    23245320.762
 107755903.822 8  83965743.293 8  20505235.383                    20505242.891
 113770744.298 8  88652618.490 7  21649851.313                    21649862.102
 117481875.036 7  91544397.878 7  22356063.133                    22356071.234
 114409120.321 8  89150117.48245  21771304.961                    21771310.516
 115045205.048 8  89645689.30845  21892375.953                    21892385.223
 11  8 27  1 58  0.0000000  0  9G15G10G12G26G05G25G29G02G30
 126842449.225 7  98838475.929 6  24137343.031                    24137354.598
 126494876.729 6  98567588.85143  24071155.641                    24071165.738
 114187741.204 7  88977528.249 7  21729200.500                    21729208.934
 122063196.300 7  95114131.86144  23227814.945                    23227824.934
 107793003.796 8  83994652.365 8  20512295.477                    20512302.902
 113782221.499 8  88661561.759 7  21652035.492                    21652045.984
 117401193.416 7  91481529.133 7  22340710.023                    22340718.160
 114447515.075 7  89180035.48545  21778610.969                    21778616.863
 115061918.115 8  89658712.48145  21895556.523                    21895564.898
 11  8 27  1 58 30.0000000  0  9G15G10G12G26G05G25G29G02G30
 126746814.127 7  98763955.317 6  24119144.234                    24119155.566
 126602256.422 6  98651261.27843  24091590.352                    24091599.328
 114257243.977 7  89031686.245 7  21742426.742                    21742435.070
 121971403.306 7  95042604.95244  23210346.875                    23210357.762
 107830577.290 8  84023930.426 8  20519445.258                    20519452.969
 113794257.564 8  88670940.506 7  21654325.563                    21654335.852
 117320622.283 7  91418746.481 7  22325377.297                    22325386.133
 114485991.356 7  89210016.99445  21785932.438                    21785938.457
 115079194.234 8  89672174.40145  21898843.938                    21898852.695
 11  8 27  1 59  0.0000000  0  9G15G10G12G26G05G25G29G02G30
 126651115.684 7  98689385.372 6  24100932.906                    24100944.660
 126709727.795 7  98735005.15243  24112041.375                    24112051.113
 114327121.513 8  89086136.251 7  21755723.836                    21755731.539
 121879761.267 7  94971195.67044  23192907.820                    23192918.613
 107868622.524 8  84053576.075 8  20526685.328                    20526692.691
 113806851.534 8  88680753.978 7  21656722.328                    21656733.207
 117240163.671 7  91356051.495 7  22310066.578                    22310075.133
 114524548.941 7  89240061.87545  21793269.828                    21793275.512
 115097032.130 8  89686074.06745  21902238.484                    21902247.684
 11  8 27  1 59 30.0000000  0  9G15G10G12G26G05G25G29G02G30
 126555356.624 6  98614768.156 6  24082710.273                    24082721.543
 126817288.779 6  98818818.85743  24132509.219                    24132519.699
 114397370.675 7  89140875.840 7  21769091.727                    21769099.871
 121788273.622 7  94899906.68144  23175498.703                    23175508.074
 107907137.828 8  84083588.011 8  20534014.500                    20534021.742
 113820002.505 8  88691001.484 7  21659224.570                    21659235.543
 117159819.683 7  91293445.842 7  22294777.695                    22294785.836
 114563187.981 7  89270170.21645  21800622.563                    21800628.703
 115115430.391 8  89700410.39045  21905739.539                    21905748.293
 11  8 27  2  0  0.0000000  0  9G15G10G12G26G05G25G29G02G30
 126459539.485 6  98540105.699 6  24064476.922                    24064487.926
 126924936.378 7  98902700.03943  24152993.734                    24153003.660
 114467988.784 7  89195902.925 7  21782530.188                    21782537.949
 121696943.614 7  94828740.52444  23158119.188                    23158128.211
 107946120.444 8  84113964.079 8  20541432.664                    20541439.977
 113833708.923 8  88701681.789 7  21661833.133                    21661843.438
 117079592.046 7  91230930.846 7  22279511.070                    22279519.488
 114601907.738 7  89300341.46145  21807991.031                    21807997.168
 115134387.128 8  89715181.87045  21909346.734                    21909355.652
 11  8 27  2  0 30.0000000  0  9G15G10G12G26G05G25G29G02G30
 126363666.732 6  98465399.933 6  24046231.773                    24046243.785
 127032668.343 6  98986646.98943  24173494.969                    24173504.316
 114538973.171 7  89251215.413 7  21796037.617                    21796045.988
 121605775.086 7  94757700.19744  23140770.266                    23140780.266
 107985568.674 8  84144702.969 8  20548939.398                    20548946.711
 113847969.975 8  88712794.293 7  21664546.766                    21664557.590
 116999482.867 7  91168508.150 7  22264266.680                    22264275.410
 114640708.885 7  89330576.11945  21815374.930                    21815381.012
 115153901.111 8  89730387.56545  21913060.680                    21913069.094
 11  8 27  2  1  0.0000000  0  9G15G10G12G26G05G25G29G02G30
 126267741.121 6  98390652.953 6  24027977.961                    24027989.141
 127140482.025 6  99070657.62743  24194011.313                    24194020.086
 114610320.491 7  89306810.709 7  21809614.719                    21809623.008
 121514771.313 7  94686788.26744  23123452.258                    23123462.438
 108025480.045 8  84175802.748 8  20556534.359                    20556541.801
 113862784.271 8  88724337.899 7  21667366.078                    21667376.648
 116919494.259 7  91106179.416 7  22249045.563                    22249053.766
 114679591.034 7  89360873.90145  21822773.453                    21822779.879
 115173970.486 8  89746026.03545  21916879.453                    21916887.758
 11  8 27  2  1 30.0000000  0  9G15G10G12G26G05G25G29G02G30
 126171765.518 7  98315866.987 6  24009715.117                    24009725.055
 127248375.361 6  99154730.34143  24214542.727                    24214551.680
 114682028.806 7  89362687.299 7  21823260.555                    21823268.133
 121423936.452 7  94616007.96844  23106167.586                    23106177.078
 108065853.109 8  84207262.282 8  20564216.828                    20564224.305
 113878151.133 8  88736312.072 7  21670290.344                    21670300.563
 116839628.050 7  91043946.056 7  22233847.547                    22233855.926
 114718554.556 7  89391235.08645  21830188.227                    21830194.266
 115194594.217 8  89762096.46145  21920803.813                    21920812.742
 11  8 27  2  2  0.0000000  0  9G15G10G12G26G05G25G29G02G30
 126075742.352 7  98241043.975 5  23991442.164                    23991452.465
 127356345.368 6  99238862.79643  24235089.039                    24235098.445
 114754094.748 7  89418842.549 7  21836974.102                    21836982.152
 121333273.556 7  94545361.67744  23088913.391                    23088924.770
 108106685.194 8  84239079.498 8  20571986.781                    20571993.980
 113894068.962 8  88748715.569 7  21673319.563                    21673330.598
 116759886.515 7  90981809.865 7  22218673.047                    22218681.723
 114757599.238 7  89421659.51645  21837618.125                    21837624.184
 115215770.282 8  89778597.28845  21924833.883                    21924842.270
 11  8 27  2  2 30.0000000  0  9G15G10G12G26G05G25G29G02G30
 125979674.699 7  98166186.257 6  23973161.328                    23973171.293
 127464389.832 6  99323053.23443  24255649.516                    24255659.145
 114826515.177 7  89475274.030 7  21850755.430                    21850763.504
 121242786.699 7  94474852.52244  23071695.922                    23071704.816
 108147974.726 7  84271253.174 8  20579844.461                    20579851.547
 113910536.873 8  88761547.722 7  21676453.039                    21676463.277
 116680271.768 7  90919772.456 7  22203522.742                    22203531.004
 114796725.332 7  89452147.36945  21845063.516                    21845069.590
 115237497.455 8  89795527.53445  21928968.367                    21928976.746
 11  8 27  2  3  0.0000000  0  9G15G10G12G26G05G25G29G02G30
 125883565.187 7  98091295.920 6  23954871.859                    23954881.961
 127572506.269 6  99407299.74843  24276223.234                    24276232.824
 114899287.728 7  89531979.891 7  21864603.398                    21864611.773
 121152479.353 7  94404483.27044  23054510.406                    23054519.703
 108189719.344 8  84303781.456 8  20587787.766                    20587795.039
 113927553.472 8  88774807.418 7  21679691.195                    21679701.641
 116600785.746 7  90857835.358 7  22188397.094                    22188405.051
 114835932.802 7  89482698.63945  21852524.922                    21852530.574
 115259773.976 8  89812885.84845  21933207.570                    21933215.941
 11  8 27  2  3 30.0000000  0  9G15G10G12G26G05G25G29G02G30
 125787416.617 7  98016375.143 6  23936575.086                    23936585.355
 127680692.088 6  99491600.28943  24296809.406                    24296820.664
 114972409.189 7  89588957.631 7  21878518.078                    21878526.148
 121062355.005 7  94334256.60844  23037359.977                    23037369.641
 108231916.833 8  84336662.621 8  20595817.906                    20595825.332
 113945117.550 8  88788493.711 7  21683033.305                    21683044.137
 116521430.558 7  90796000.196 7  22173295.984                    22173304.582
 114875221.547 8  89513313.26045  21860001.133                    21860007.273
 115282598.165 8  89830670.93345  21937550.750                    21937559.141
 11  8 27  2  4  0.0000000  0  9G15G10G12G26G05G25G29G02G30
 125691231.849 7  97941426.184 6  23918271.375                    23918282.223
 127788944.975 6  99575953.16543  24317409.820                    24317420.109
 115045877.137 7  89646205.351 7  21892498.750                    21892506.707
 120972417.706 7  94264175.71644  23020245.711                    23020255.359
 108274565.473 8  84369895.340 8  20603933.711                    20603940.984
 113963228.057 8  88802605.815 7  21686479.633                    21686490.559
 116442208.581 7  90734268.828 7  22158220.680                    22158228.480
 114914591.836 8  89543991.40245  21867492.781                    21867498.566
 115305968.563 8  89848881.62545  21941997.992                    21942006.609
 11  8 27  2  4 30.0000000  0  9G15G10G12G26G05G25G29G02G30
 125595013.799 7  97866451.268 6  23899961.836                    23899972.887
 127897262.57116  99660356.40852  24338022.344                    24338031.934
 115119688.904 7  89703721.004 7  21906544.570                    21906552.543
 120882670.937 7  94194243.30144  23003166.883                    23003177.164
 108317663.267 8  84403478.046 8  20612134.617                    20612142.004
 113981883.669 8  88817142.654 7  21690029.680                    21690040.402
 116363121.797 7  90672642.818 7  22143170.734                    22143178.973
 114954044.083 8  89574733.39945  21875000.133                    21875006.500
 115329883.531 8  89867516.65645  21946548.688                    21946557.176
 11  8 27  2  5  0.0000000  0  9G15G10G12G26G05G25G29G02G30
 125498765.052 6  97791452.467 6  23881646.172                    23881656.637
 128005642.354 6  99744808.12743  24358646.117                    24358655.766
 115193841.116 8  89761501.932 7  21920655.328                    21920663.711
 120793118.175 7  94124462.03644  22986125.984                    22986135.527
 108361207.627 8  84437408.716 8  20620421.352                    20620428.277
 114001082.993 8  88832103.187 7  21693683.578                    21693694.254
 116284172.477 7  90611123.905 7  22128147.172                    22128155.813
 114993577.849 7  89605538.91345  21882523.516                    21882529.656
 115354341.238 7  89886574.62045  21951202.406                    21951211.332
 11  8 27  2  5 30.0000000  0  9G15G10G12G26G05G25G29G02G30
 125402488.432 6  97716431.943 6  23863323.578                    23863335.918
 128114081.929 6  99829306.45943  24379282.063                    24379291.355
 115268331.126 8  89819546.078 7  21934830.242                    21934837.867
 120703763.245 7  94054834.94344  22969122.242                    22969132.363
 108405196.670 8  84471685.913 8  20628791.406                    20628799.027
 114020824.828 8  88847486.456 7  21697439.977                    21697450.566
 116205362.658 7  90549713.710 7  22113150.070                    22113158.355
 115033193.387 7  89636408.15245  21890062.406                    21890067.898
 115379340.106 8  89906054.26245  21955960.172                    21955968.656
 11  8 27  2  6  0.0000000  0  9G15G10G12G26G05G25G29G02G30
 125306186.923 6  97641392.011 6  23844999.656                    23845010.078
 128222578.746 6  99913849.38843  24399927.641                    24399937.465
 115343156.189 8  89877851.304 7  21949068.961                    21949077.152
 120614609.956 7  93985364.93944  22952156.703                    22952166.012
 108449628.202 8  84506307.884 8  20637246.648                    20637254.305
 114041107.915 8  88863291.464 7  21701299.859                    21701310.367
 116126694.518 7  90488413.907 7  22098180.156                    22098188.293
 115072891.083 7  89667341.41945  21897616.156                    21897622.020
 115404878.432 8  89925954.26645  21960819.539                    21960828.172
 11  8 27  2  6 30.0000000  0  9G15G10G12G26G05G25G29G02G30
 125209863.340 6  97566334.847 6  23826668.695                    23826679.617
 128331130.506 6  99998435.16243  24420585.227                    24420594.277
 115418313.299 8  89936415.279 7  21963371.453                    21963378.902
 120525661.794 7  93916054.78144  22935230.453                    22935239.848
 108494500.142 8  84541273.045 8  20645785.773                    20645793.129
 114061930.752 8  88879517.066 7  21705262.305                    21705273.016
 116048170.096 7  90427226.086 7  22083237.344                    22083245.746
 115112670.768 8  89698338.56945  21905185.938                    21905192.047
 115430954.345 8  89946273.17545  21965781.867                    21965790.441
 11  8 27  2  7  0.0000000  0  9G15G10G12G26G05G25G29G02G30
 125113520.348 6  97491262.555 6  23808335.641                    23808346.242
 128439735.014 6 100083061.98243  24441251.625                    24441261.117
 115493799.606 8  89995235.747 7  21977735.797                    21977743.965
 120436922.287 7  93846907.19844  22918343.820                    22918353.426
 108539810.296 8  84576579.662 8  20654407.805                    20654415.203
 114083291.921 8  88896162.152 7  21709327.281                    21709337.395
 115969791.614 7  90366151.970 7  22068322.273                    22068330.332
 115152532.791 7  89729399.87345  21912771.641                    21912777.789
 115457566.063 7  89967009.59045  21970845.977                    21970854.527
 11  8 27  2  7 30.0000000  0  9G15G10G12G26G05G25G29G02G30
 125017160.638 7  97416177.213 6  23789999.453                    23790009.277
 128548389.761 6 100167728.00943  24461928.289                    24461937.340
 115569611.729 8  90054310.115 7  21992162.383                    21992170.516
 120348395.053 7  93777925.04044  22901497.523                    22901507.402
 108585556.201 8  84612225.831 8  20663113.172                    20663120.648
 114105189.792 8  88913225.432 7  21713494.180                    21713504.816
 115891560.915 7  90305193.019 7  22053435.500                    22053443.918
 115192476.814 8  89760525.06645  21920372.836                    21920378.152
 115484711.540 7  89988161.92345  21976011.398                    21976020.164
 11  8 27  2  8  0.0000000  0  9G15G10G12G26G05G25G29G02G30
 124920787.219 7  97341081.221 6  23771659.695                    23771670.023
 128657092.354 6 100252431.30543  24482613.438                    24482622.766
 115645747.075 8  90113636.330 7  22006650.102                    22006658.250
 120260083.735 7  93709111.14544  22884692.063                    22884702.004
 108631735.832 8  84648209.964 8  20671900.633                    20671908.160
 114127623.216 8  88930706.026 7  21717763.234                    21717774.457
 115813480.419 7  90244351.088 7  22038577.070                    22038585.504
 115232503.326 8  89791714.52345  21927989.703                    21927995.664
 115512389.186 7  90009728.93645  21981278.414                    21981286.719
 11  8 27  2  8 30.0000000  0  9G15G10G12G26G05G25G29G02G30
 124824402.582 7  97265976.446 6  23753317.969                    23753327.777
 128765840.553 6 100337170.13943  24503307.898                    24503316.984
 115722202.409 8  90173211.899 7  22021199.266                    22021207.523
 120171992.022 7  93640468.34644  22867929.438                    22867938.820
 108678346.717 8  84684530.147 8  20680770.922                    20680777.848
 114150590.400 8  88948602.541 7  21722133.977                    21722144.273
 115735552.198 8  90183627.824 7  22023748.047                    22023756.563
 115272612.126 8  89822968.12245  21935622.258                    21935628.313
 115540596.861 8  90031708.95945  21986645.914                    21986654.656
 11  8 27  2  9  0.0000000  0  9G15G10G12G26G05G25G29G02G30
 124728009.966 7  97190865.449 6  23734974.984                    23734984.930
 128874631.984 6 100421942.64443  24524009.445                    24524019.457
 115798975.390 8  90233034.981 7  22035808.672                    22035816.918
 120084123.878 7  93571999.75944  22851208.328                    22851217.410
 108725386.971 8  84721184.907 8  20689721.977                    20689729.594
 114174090.081 8  88966913.993 7  21726605.398                    21726615.996
 115657778.492 8  90123024.959 7  22008948.484                    22008956.656
 115312803.338 8  89854285.93745  21943270.023                    21943276.582
 115569332.947 8  90054100.72745  21992114.203                    21992122.875
 11  8 27  2  9 30.0000000  0  9G15G10G12G26G05G25G29G02G30
 124631612.019 7  97115750.348 6  23716630.688                    23716641.574
 128983463.922 6 100506746.70743  24544719.789                    24544730.078
 115876062.798 7  90293103.076 7  22050478.117                    22050485.977
 119996482.327 7  93503707.73244  22834530.727                    22834539.633
 108772853.803 8  84758172.048 8  20698754.648                    20698762.281
 114198120.502 8  88985639.001 7  21731178.109                    21731189.055
 115580161.245 7  90062544.008 7  21994178.172                    21994186.711
 115353077.296 8  89885668.22145  21950933.883                    21950940.082
 115598595.241 8  90076902.53345  21997682.789                    21997691.598
 11  8 27  2 10  0.0000000  0  9G15G10G12G26G05G25G29G02G30
 124535212.221 6  97040633.784 6  23698286.734                    23698296.980
 129092334.435 6 100591580.84043  24565437.031                    24565447.250
 115953462.056 8  90353414.167 7  22065206.508                    22065214.723
 119909071.880 7  93435595.79844  22817896.109                    22817906.152
 108820745.903 8  84795490.566 8  20707867.922                    20707875.637
 114222680.716 8  89004776.837 7  21735851.906                    21735862.352
 115502703.217 7  90002187.124 7  21979438.344                    21979446.555
 115393434.685 7  89917115.51745  21958613.477                    21958619.965
 115628382.507 7  90100113.39745  22003350.875                    22003359.434
 11  8 27  2 10 30.0000000  0  8G15G12G26G05G25G29G02G30
 124438813.413 7  96965518.005 6  23679942.617                    23679952.293
 116031170.156 8  90413965.923 7  22079994.094                    22080001.926
 119821896.346 7  93367666.91444  22801307.438                    22801316.957
 108869061.181 8  84833138.857 8  20717062.383                    20717069.891
 114247769.389 8  89024326.453 7  21740626.313                    21740636.918
 115425407.020 8  89941956.345 7  21964729.133                    21964737.289
 115433875.641 8  89948627.94045  21966309.438                    21966315.484
 115658692.854 8  90123731.87045  22009118.563                    22009127.730
 11  8 27  2 11  0.0000000  0  8G15G12G26G05G25G29G02G30
 124342419.130 7  96890405.791 6  23661598.766                    23661608.949
 116109184.845 8  90474756.568 7  22094839.609                    22094847.582
 119734959.878 7  93299924.31544  22784763.531                    22784773.574
 108917798.038 8  84871115.627 8  20726336.688                    20726344.320
 114273385.441 8  89044287.013 7  21745500.648                    21745511.539
 115348275.463 8  89881853.862 7  21950051.578                    21950059.738
 115474400.872 7  89980206.03045  21974021.086                    21974026.941
 115689524.928 7  90147756.86245  22014986.000                    22014994.516
 11  8 27  2 11 30.0000000  0  8G15G12G26G05G25G29G02G30
 124246030.850 7  96815298.234 6  23643256.820                    23643267.461
 116187501.767 8  90535782.734 7  22109743.188                    22109751.027
 119648265.005 7  93232369.98344  22768266.375                    22768275.863
 108966952.588 8  84909417.888 8  20735690.336                    20735697.188
 114299525.987 8  89064656.266 7  21750475.250                    21750485.676
 115271309.059 8  89821880.078 7  21935405.164                    21935413.668
 115515009.358 7  90011848.98445  21981748.258                    21981754.160
 115720875.434 7  90172185.83445  22020951.891                    22020960.418
 11  8 27  2 12  0.0000000  0  9G15G21G12G26G05G25G29G02G30
 124149651.350 7  96740197.529 6  23624916.438                    23624926.203
 132392626.07316                  25193493.734
 116266117.911 7  90597042.060 7  22124703.234                    22124711.156
 119561815.029 7  93165006.45444  22751815.813                    22751825.293
 109016522.170 8  84948043.544 8  20745123.133                    20745130.621
 114326189.071 8  89085432.698 7  21755548.844                    21755559.461
 115194509.924 8  89762036.630 7  21920790.680                    21920799.172
 115555700.951 7  90043556.70745  21989491.750                    21989497.875
 115752742.036 7  90197016.96945  22027016.211                    22027024.605
 11  8 27  2 12 30.0000000  0  9G15G21G12G26G05G25G29G02G30
 124053283.647 7  96665106.022 6  23606578.180                    23606587.891
 132337108.796 6 103119921.10053  25182927.953                    25182938.992
 116345030.571 8  90658532.423 7  22139719.695                    22139727.801
 119475613.797 7  93097836.76844  22735412.063                    22735421.430
 109066505.049 8  84986991.253 8  20754634.352                    20754641.969
 114353373.248 8  89106615.168 7  21760721.859                    21760732.797
 115117880.792 8  89702325.665 7  21906208.930                    21906216.809
 115596475.952 7  90075329.43145  21997251.297                    21997256.766
 115785122.946 7  90222248.83745  22033177.898                    22033186.340
 11  8 27  2 13  0.0000000  0  9G15G21G12G26G05G25G29G02G30
 123956930.973 7  96590026.212 6  23588242.180                    23588252.340
 132281593.044 6 103076662.19143  25172364.094                    25172373.543
 116424236.605 7  90720251.406 7  22154792.016                    22154800.277
 119389665.120 7  93030863.86544  22719056.398                    22719065.723
 109116898.963 8  85026259.237 8  20764224.242                    20764231.223
 114381077.051 8  89128202.549 7  21765993.734                    21766004.141
 115041423.570 8  89642748.658 7  21891659.555                    21891667.363
 115637334.765 7  90107167.45645  22005026.461                    22005032.148
 115818016.272 8  90247880.00845  22039437.117                    22039445.770
 11  8 27  2 13 30.0000000  0  9G15G21G12G26G05G25G29G02G30
 123860596.054 6  96514960.238 6  23569910.008                    23569920.660
 132226078.791 6 103033404.38342  25161799.836                    25161809.688
 116503733.290 7  90782196.867 7  22169919.461                    22169927.652
 119303972.763 7  92964090.68944  22702749.727                    22702758.902
 109167701.918 8  85065845.972 8  20773891.484                    20773899.086
 114409299.000 8  89150193.669 7  21771364.383                    21771374.832
 114965140.803 8  89583307.601 7  21877143.492                    21877151.328
 115678277.821 7  90139071.14445  22012817.383                    22012823.496
 115851420.176 7  90273909.01245  22045793.891                    22045802.605
 11  8 27  2 14  0.0000000  0  9G15G21G12G26G05G25G29G02G30
 123764282.277 6  96439910.727 6  23551581.977                    23551591.570
 132170564.962 6 102990147.04842  25151234.813                    25151246.414
 116583517.846 7  90844366.636 7  22185102.383                    22185110.570
 119218540.972 7  92897520.56844  22686492.141                    22686501.543
 109218912.146 8  85105750.052 8  20783636.602                    20783643.910
 114438037.587 8  89172587.374 7  21776833.008                    21776843.652
 114889035.199 8  89524004.598 7  21862660.867                    21862668.809
 115719305.667 7  90171040.91445  22020624.820                    22020630.730
 115885332.790 8  90300334.43245  22052246.969                    22052255.598
 11  8 27  2 14 30.0000000  0  9G15G21G12G26G05G25G29G02G30
 123667992.217 6  96364879.706 6  23533258.820                    23533268.098
 132115050.884 6 102946889.46243  25140672.359                    25140682.148
 116663586.925 7  90906758.121 7  22200338.844                    22200347.359
 119133372.498 7  92831155.60344  22670285.266                    22670294.125
 109270526.119 8  85145968.747 8  20793458.320                    20793466.449
 114467290.578 8  89195381.906 7  21782399.766                    21782409.891
 114813108.236 8  89464840.794 7  21848212.578                    21848220.492
 115760417.867 8  90203076.37745  22028448.570                    22028454.648
 115919751.404 8  90327154.12345  22058796.828                    22058805.113
 11  8 27  2 15  0.0000000  0  9G15G21G12G26G05G25G29G02G30
 123571728.803 6  96289869.443 6  23514940.234                    23514949.605
 132059535.965 6 102903631.30143  25130107.359                    25130117.957
 116743937.811 7  90969369.200 7  22215629.000                    22215636.945
 119048471.592 7  92764999.14944  22654129.531                    22654137.770
 109322542.236 8  85186500.786 8  20803356.922                    20803364.301
 114497056.555 8  89218576.180 7  21788063.813                    21788074.242
 114737362.494 8  89405818.211 7  21833798.516                    21833806.430
 115801614.874 7  90235177.94245  22036288.023                    22036294.023
 115954674.324 8  90354366.79045  22065442.063                    22065451.512
 11  8 27  2 15 30.0000000  0  9G15G21G12G26G05G25G29G02G30
 123475494.575 6  96214881.918 6  23496626.875                    23496636.938
 132004019.396 6 102860371.72942  25119543.070                    25119553.594
 116824566.997 7  91032197.129 7  22230972.461                    22230980.344
 118963841.406 7  92699053.63644  22638024.195                    22638033.703
 109374957.100 8  85227343.554 8  20813331.039                    20813338.266
 114527333.112 8  89242168.304 7  21793825.734                    21793835.992
 114661800.003 8  89346938.424 7  21819419.500                    21819427.660
 115842896.462 7  90267345.42245  22044143.336                    22044149.488
 115990098.744 8  90381970.23045  22072183.336                    22072191.949
 11  8 27  2 16  0.0000000  0  9G15G21G12G26G05G25G29G02G30
 123379293.681 7  96139920.338 6  23478320.766                    23478330.344
 131948501.056 6 102817110.94443  25108978.188                    25108987.957
 116905472.507 7  91095240.374 7  22246368.336                    22246376.184
 118879486.431 7  92633322.55245  22621972.367                    22621981.656
 109427770.348 8  85268496.737 8  20823381.164                    20823388.469
 114558119.579 8  89266157.759 7  21799684.109                    21799694.191
 114586423.816 8  89288203.808 7  21805075.539                    21805083.746
 115884263.792 7  90299579.69345  22052015.555                    22052021.656
 116026023.619 7  90409963.62645  22079019.773                    22079028.219
 11  8 27  2 16 30.0000000  0  9G15G21G12G26G05G25G29G02G30
 123283127.811 7  96064986.079 6  23460020.797                    23460030.316
 131892979.899 6 102773847.89843  25098411.922                    25098422.953
 116986650.320 7  91158495.801 7  22261815.633                    22261823.758
 118795409.620 7  92567808.23844  22605973.094                    22605981.320
 109480978.167 8  85309957.383 8  20833506.063                    20833513.789
 114589413.124 8  89290542.335 7  21805638.789                    21805649.547
 114511235.413 8  89229615.525 7  21790767.594                    21790775.906
 115925716.172 7  90331880.28145  22059903.555                    22059909.285
 116062445.713 7  90438344.47345  22085950.594                    22085959.090
 11  8 27  2 17  0.0000000  0  9G15G21G12G26G05G25G29G02G30
 123187000.446 7  95990081.787 6  23441728.352                    23441738.371
 131837455.475 6 102730582.29043  25087847.313                    25087856.719
 117068097.561 7  91221961.174 7  22277314.594                    22277322.586
 118711614.809 7  92502513.66444  22590027.023                    22590036.527
 109534578.406 8  85351723.810 7  20843706.180                    20843713.586
 114621212.180 8  89315320.816 7  21811690.172                    21811700.523
 114436237.249 8  89171175.479 7  21776495.820                    21776504.391
 115967254.128 7  90364247.51745  22067808.078                    22067814.152
 116099363.164 7  90467111.31545  22092975.563                    22092984.152
 11  8 27  2 17 30.0000000  0  9G15G21G12G26G05G25G29G02G30
 123090914.670 7  95915209.914 6  23423444.094                    23423453.281
 131781927.135 6 102687313.63043  25077279.172                    25077289.621
 117149811.536 7  91285634.387 7  22292864.625                    22292872.301
 118628105.851 7  92437441.83644  22574135.898                    22574145.000
 109588569.085 8  85393794.466 7  20853980.031                    20853987.699
 114653515.053 8  89340491.878 7  21817837.102                    21817847.586
 114361431.677 8  89112885.490 7  21762260.750                    21762268.637
 116008878.042 7  90396681.74545  22075728.469                    22075735.082
 116136773.835 7  90496262.49045  22100094.727                    22100103.141
 11  8 27  2 18  0.0000000  0  9G15G21G12G26G05G25G29G02G30
 122994873.362 7  95840372.714 6  23405167.695                    23405177.383
 131726394.649 6 102644041.75443  25066711.430                    25066721.871
 117231789.343 7  91349513.197 7  22308464.258                    22308472.254
 118544886.608 7  92372595.76744  22558299.336                    22558309.180
 109642948.053 8  85436167.694 7  20864327.867                    20864335.008
 114686320.079 8  89366054.231 7  21824079.648                    21824090.066
 114286821.302 8  89054747.592 7  21748063.414                    21748070.750
 116050588.481 7  90429183.37845  22083666.281                    22083672.336
 116174675.771 7  90525796.46045  22107307.156                    22107315.973
 11  8 27  2 18 30.0000000  0  9G15G21G12G26G05G25G29G02G30
 122898879.495 7  95765572.469 6  23386900.234                    23386909.992
 131670857.053 6 102600765.93143  25056143.375                    25056154.125
 117314027.809 7  91413595.123 7  22324113.617                    22324121.973
 118461960.491 7  92307978.09044  22542519.211                    22542528.398
 109697712.470 8  85478841.261 8  20874749.313                    20874756.430
 114719625.088 8  89392006.189 7  21830417.234                    21830427.719
 114212408.107 8  88996763.360 7  21733902.789                    21733910.684
 116092385.294 7  90461752.33445  22091619.391                    22091626.180
 116213066.413 7  90555711.24045  22114612.805                    22114621.602
 11  8 27  2 19  0.0000000  0  9G15G21G12G26G05G25G29G02G30
 122802935.862 7  95690811.364 6  23368642.492                    23368652.035
 131615313.723 6 102557485.56042  25045573.531                    25045583.590
 117396523.376 7  91477877.372 7  22339812.242                    22339819.984
 118379330.969 7  92243591.52345  22526795.039                    22526804.063
 109752859.808 8  85521813.217 7  20885243.625                    20885250.824
 114753427.944 8  89418346.064 7  21836849.914                    21836860.273
 114138194.158 8  88938934.371 7  21719780.055                    21719788.047
 116134268.639 7  90494388.71145  22099589.352                    22099596.172
 116251943.243 7  90586004.86545  22122010.883                    22122019.395
 11  8 27  2 19 30.0000000  0  9G15G21G12G26G05G25G29G02G30
 122707045.824 7  95616092.018 6  23350395.453                    23350405.184
 131559764.432 6 102514200.54643  25035003.055                    25035013.254
 117479273.613 7  91542358.063 7  22355559.172                    22355567.172
 118297001.959 7  92179439.12544  22511128.578                    22511137.770
 109808388.370 8  85565082.225 7  20895810.586                    20895817.449
 114787727.142 8  89445072.702 7  21843376.883                    21843387.352
 114064182.201 8  88881262.780 7  21705695.969                    21705704.129
 116176239.232 7  90527093.08145  22107576.570                    22107582.477
 116291304.413 7  90616675.89945  22129500.758                    22129510.133
 11  8 27  2 20  0.0000000  0  9G15G21G12G26G05G25G29G02G30
 122611212.330 7  95541416.753 6  23332159.070                    23332168.383
 131504208.287 6 102470910.19042  25024430.680                    25024440.555
 117562275.291 7  91607034.689 7  22371353.508                    22371361.602
 118214977.179 7  92115523.81245  22495519.711                    22495528.578
 109864295.315 8  85608646.075 7  20906448.781                    20906456.531
 114822520.490 8  89472184.402 7  21849997.680                    21850008.223
 113990374.253 8  88823750.141 7  21691650.891                    21691658.504
 116218296.777 7  90559865.19245  22115580.133                    22115585.871
 116331147.335 7  90647722.32845  22137082.508                    22137090.887
 11  8 27  2 20 30.0000000  0  9G15G21G12G26G05G25G29G02G30
 122515438.176 7  95466787.679 6  23313933.195                    23313942.980
 131448644.634 6 102427613.96443  25013856.508                    25013866.328
 117645525.093 7  91671904.663 7  22387195.625                    22387203.543
 118133259.938 7  92051848.10745  22479969.531                    22479978.984
 109920578.110 8  85652502.804 7  20917158.984                    20917166.547
 114857805.852 8  89499679.476 7  21856712.227                    21856722.918
 113916772.916 8  88766398.497 7  21677644.773                    21677652.898
 116260441.622 7  90592705.33345  22123599.688                    22123605.875
 116371469.567 7  90679142.24045  22144755.805                    22144764.297
 11  8 27  2 21  0.0000000  0  9G15G21G12G26G05G25G29G02G30
 122419726.380 7  95392207.204 6  23295720.563                    23295729.355
 131393072.918 6 102384311.50042  25003282.000                    25003291.824
 117729020.377 7  91736965.925 7  22403084.219                    22403092.512
 118051854.080 7  91988415.06245  22464478.109                    22464487.531
 109977234.715 8  85696650.812 7  20927940.773                    20927948.059
 114893581.467 8  89527556.585 7  21863520.070                    21863530.855
 113843380.230 8  88709209.430 7  21663678.852                    21663686.949
 116302674.594 7  90625614.14145  22131636.766                    22131642.781
 116412268.874 7  90710933.91145  22152519.773                    22152528.191
 11  8 27  2 21 30.0000000  0  9G15G21G12G26G05G25G29G02G30
 122324079.922 7  95317677.654 6  23277519.297                    23277528.391
 131337492.348 6 102341002.01042  24992705.047                    24992715.340
 117812757.980 7  91802216.003 7  22419018.922                    22419026.742
 117970763.261 7  91925227.49545  22449047.133                    22449055.984
 110034262.263 8  85741087.860 7  20938792.750                    20938799.883
 114929845.061 8  89555813.921 7  21870420.828                    21870431.414
 113770198.617 8  88652184.824 7  21649752.430                    21649760.484
 116344995.514 7  90658591.48745  22139689.711                    22139696.164
 116453542.731 7  90743095.34945  22160373.891                    22160382.578
 11  8 27  2 22  0.0000000  0  9G15G21G12G26G05G25G29G02G30
 122228501.540 7  95243201.131 6  23259331.352                    23259339.961
 131281902.524 6 102297685.36842  24982127.008                    24982136.664
 117896734.749 7  91867652.441 7  22434998.969                    22435007.215
 117889991.163 7  91862288.27845  22433677.094                    22433686.113
 110091658.494 8  85785812.198 7  20949714.688                    20949722.195
 114966594.707 8  89584450.026 7  21877414.141                    21877424.492
 113697230.207 8  88595326.363 7  21635867.469                    21635874.957
 116387404.703 7  90691637.61045  22147759.602                    22147766.020
 116495288.928 7  90775624.83945  22168317.820                    22168326.102
 11  8 27  2 22 30.0000000  0  9G15G21G12G26G05G25G29G02G30
 122132994.545 7  95168780.247 6  23241156.609                    23241165.633
 131226303.152 6 102254361.33642  24971546.453                    24971556.375
 117980947.373 7  91933272.657 7  22451024.461                    22451032.844
 117809541.439 7  91799600.27245  22418367.648                    22418376.484
 110149421.354 8  85830822.221 7  20960706.719                    20960714.262
 115003828.522 8  89613463.376 7  21884499.289                    21884509.887
 113624477.485 8  88538635.966 7  21622022.641                    21622030.848
 116429902.501 8  90724752.77645  22155846.617                    22155853.328
 116537505.151 7  90808520.60345  22176351.250                    22176360.004
 11  8 27  2 23  0.0000000  0  9G15G21G12G26G05G25G29G02G30
 122037562.226 7  95094417.546 6  23222996.117                    23223005.410
 131170693.549 6 102211029.26643  24960965.008                    24960974.535
 118065393.239 7  91999074.614 7  22467094.055                    22467101.785
 117729417.473 7  91737166.10745  22403120.602                    22403129.336
 110207548.331 8  85876115.979 7  20971767.711                    20971775.004
 115041544.085 8  89642852.128 7  21891676.711                    21891687.172
 113551943.102 8  88482115.695 7  21608220.070                    21608227.977
 116472489.193 7  90757937.20645  22163950.922                    22163956.547
 116580188.576 7  90841780.41245  22184473.398                    22184482.273
 11  8 27  2 23 30.0000000  0  9G15G21G12G26G05G25G29G02G30
 121942207.159 7  95020115.043 6  23204850.461                    23204859.590
 131115073.111 6 102167688.80043  24950379.563                    24950390.066
 118150069.094 7  92065055.794 7  22483207.492                    22483215.246
 117649622.975 7  91674988.65845  22387935.766                    22387945.105
 110266036.766 8  85921691.395 7  20982897.609                    20982904.902
 115079739.316 8  89672614.647 7  21898944.813                    21898955.227
 113479628.603 8  88425766.770 7  21594459.133                    21594466.801
 116515164.919 7  90791191.01845  22172072.039                    22172077.563
 116623336.891 7  90875402.46645  22192684.711                    22192693.160
 11  8 27  2 24  0.0000000  0  9G15G21G12G26G05G25G29G02G30
 121846932.611 7  94945875.288 6  23186719.961                    23186729.379
 131059441.244 6 102124339.40943  24939793.711                    24939802.988
 118234972.030 7  92131213.922 7  22499363.969                    22499371.680
 117570161.773 7  91613070.92745  22372814.938                    22372823.961
 110324884.427 8  85967546.723 7  20994096.203                    20994103.531
 115118412.371 8  89702749.504 7  21906304.227                    21906314.293
 113407536.953 8  88369591.475 7  21580739.969                    21580748.266
 116557930.317 7  90824514.70245  22180210.055                    22180215.836
 116666947.873 7  90909385.05345  22200983.398                    22200992.191
 11  8 27  2 24 30.0000000  0  9G15G21G12G26G05G25G29G02G30
 121751741.844 7  94871700.781 6  23168606.180                    23168614.875
 131003797.543 6 102080980.84243  24929203.953                    24929213.793
 118320099.195 7  92197546.769 7  22515563.070                    22515570.855
 117491037.918 7  91551416.07245  22357758.391                    22357767.164
 110384089.647 8  86013680.667 7  21005362.250                    21005369.602
 115157561.414 8  89733255.252 7  21913753.906                    21913764.516
 113335670.937 8  88313592.008 7  21567065.055                    21567072.449
 116600785.851 7  90857908.62545  22188364.867                    22188370.824
 116711019.288 7  90943726.40645  22209369.742                    22209378.602
 11  8 27  2 25  0.0000000  0  9G15G21G12G26G05G25G29G02G30
 121656637.214 7  94797593.396 6  23150508.141                    23150516.750
 130948140.797 6 102037612.05943  24918613.875                    24918623.117
 118405446.550 7  92264051.194 7  22531803.766                    22531812.035
 117412253.800 7  91490025.93745  22342765.781                    22342774.934
 110443648.167 8  86060089.911 7  21016695.820                    21016703.129
 115197183.265 8  89764129.426 7  21921293.719                    21921304.348
 113264032.030 8  88257769.509 7  21553432.078                    21553439.887
 116643731.219 8  90891372.54445  22196537.750                    22196543.188
 116755547.682 7  90978423.84845  22217843.633                    22217852.441
 11  8 27  2 25 30.0000000  0  9G15G21G12G26G05G25G29G02G30
 121561622.264 7  94723555.895 6  23132427.086                    23132435.730
 130892470.853 6 101994233.01143  24908020.648                    24908029.926
 118491011.635 7  92330725.274 7  22548086.164                    22548094.117
 117333813.967 7  91428904.08145  22327839.406                    22327847.777
 110503558.544 8  86106773.334 7  21028096.469                    21028103.969
 115237276.420 8  89795370.836 7  21928923.055                    21928933.695
 113192622.812 8  88202125.999 7  21539843.805                    21539851.234
 116686766.925 7  90924906.85445  22204726.734                    22204732.848
 116800531.175 7  91013475.91845  22226403.516                    22226412.172
 11  8 27  2 26  0.0000000  0  9G15G21G12G26G05G25G29G02G30
 121466699.819 7  94649590.474 6  23114364.188                    23114373.293
 130836787.142 6 101950843.26443  24897423.898                    24897432.813
 118576791.527 7  92397566.741 7  22564409.883                    22564417.563
 117255721.655 7  91368053.00245  22312978.617                    22312987.168
 110563818.384 8  86153729.056 7  21039563.961                    21039570.941
 115277838.589 8  89826977.715 7  21936641.938                    21936652.891
 113121445.750 8  88146663.393 7  21526298.984                    21526306.523
 116729893.361 8  90958511.86445  22212933.555                    22212939.699
 116845967.136 7  91048880.55045  22235049.547                    22235058.750
 11  8 27  2 26 30.0000000  0  9G15G21G12G26G05G25G29G02G30
 121371873.175 7  94575699.705 6  23096319.422                    23096328.129
 130781089.265 6 101907442.49543  24886824.352                    24886834.137
 118662783.156 7  92464573.186 7  22580774.094                    22580781.387
 117177980.716 7  91307475.72645  22298184.977                    22298193.379
 110624425.525 8  86200955.404 7  21051096.688                    21051104.086
 115318867.658 8  89858948.413 7  21944449.805                    21944460.098
 113050503.283 8  88091383.579 7  21512798.867                    21512806.480
 116773111.124 8  90992188.03945  22221157.563                    22221163.238
 116891853.176 7  91084635.90345  22243781.602                    22243790.516
 11  8 27  2 27  0.0000000  0  9G15G21G12G26G05G25G29G02G30
 121277145.037 7  94501885.685 6  23078292.391                    23078302.188
 130725376.318 6 101864029.93543  24876222.969                    24876232.355
 118748982.945 7  92531741.839 7  22597176.656                    22597184.852
 117100594.458 7  91247174.81945  22283458.727                    22283468.070
 110685376.731 8  86248449.854 7  21062695.461                    21062702.891
 115360360.932 8  89891280.807 7  21952345.352                    21952356.125
 112979797.469 8  88036288.190 7  21499343.977                    21499351.645
 116816420.107 7  91025935.28745  22229398.445                    22229405.301
 116938186.224 7  91120739.58445  22252598.820                    22252607.129
 11  8 27  2 27 30.0000000  0  9G15G21G12G26G05G25G29G02G30
 121182519.040 7  94428151.279 6  23060286.281                    23060294.328
 130669648.226 6 101820605.56343  24865618.117                    24865626.902
 118835388.285 7  92599070.663 7  22613619.359                    22613627.648
 117023566.822 7  91187153.35145  22268800.703                    22268809.750
 110746670.473 8  86296211.214 7  21074359.336                    21074366.805
 115402316.913 8  89923973.778 7  21960329.758                    21960340.121
 112909331.281 8  87981379.520 7  21485934.883                    21485942.578
 116859820.941 7  91059754.12945  22237657.813                    22237663.945
 116984964.463 7  91157190.15245  22261499.883                    22261508.508
 11  8 27  2 28  0.0000000  0  9G15G21G12G26G05G25G29G02G30
 121087997.789 7  94354498.474 7  23042299.547                    23042308.160
 130613904.073 6 101777168.72943  24855009.914                    24855019.250
 118921996.031 7  92666557.211 7  22630100.188                    22630107.992
 116946901.074 7  91127413.89045  22254212.000                    22254220.316
 110808303.722 8  86344237.123 7  21086087.766                    21086094.934
 115444732.751 8  89957025.072 7  21968400.680                    21968411.297
 112839106.225 8  87926658.741 7  21472571.227                    21472579.313
 116903313.826 7  91093644.67445  22245934.148                    22245940.254
 117032184.686 7  91193985.12545  22270485.586                    22270494.578
 11  8 27  2 28 30.0000000  0  9G15G21G12G26G05G25G29G02G30
 120993584.630 7  94280929.896 7  23024332.938                    23024341.457
 130558143.293 6 101733718.90643  24844398.711                    24844408.676
 119008803.004 7  92734198.990 7  22646619.039                    22646626.938
 116870600.977 7  91067959.32345  22239692.469                    22239701.352
 110870274.294 8  86392525.880 7  21097880.469                    21097887.770
 115487606.424 8  89990433.107 7  21976559.242                    21976569.859
 112769125.381 8  87872128.270 7  21459254.008                    21459261.680
 116946899.314 7  91127607.37845  22254228.445                    22254234.539
 117079844.497 7  91231122.64345  22279555.227                    22279563.625
 11  8 27  2 29  0.0000000  0  9G15G21G12G26G05G25G29G02G30
 120899282.414 7  94207447.783 6  23006387.555                    23006396.074
 130502365.485 6 101690255.81043  24833784.586                    24833794.031
 119095806.289 7  92801993.748 7  22663175.469                    22663183.391
 116794670.155 7  91008792.51945  22225243.008                    22225251.324
 110932579.695 8  86441075.538 7  21109736.844                    21109744.234
 115530935.643 8  90024196.131 7  21984804.375                    21984815.406
 112699390.922 8  87817789.777 7  21445984.094                    21445991.727
 116990577.855 7  91161642.59245  22262539.984                    22262545.996
 117127941.367 7  91268600.72645  22288707.336                    22288715.984
 11  8 27  2 29 30.0000000  0  9G15G21G12G26G05G25G29G02G30
 120805094.508 7  94134054.714 6  22988464.180                    22988472.305
 130446570.116 6 101646779.05643  24823166.344                    24823176.313
 119183002.749 7  92869939.039 7  22679768.734                    22679776.133
 116719112.440 7  90949916.45145  22210864.898                    22210873.348
 110995217.407 8  86489884.139 7  21121656.188                    21121663.648
 115574718.170 8  90058312.385 7  21993136.406                    21993146.949
 112629905.424 8  87763645.287 7  21432761.305                    21432769.227
 117034349.494 7  91195750.37045  22270869.523                    22270875.617
 117176472.764 7  91306417.38345  22297942.883                    22297951.477
 11  8 27  2 30  0.0000000  0  9G15G21G12G26G05G25G29G02G30
 120711023.653 7  94060752.864 7  22970562.547                    22970571.828
 130390756.430 6 101603287.98743  24812546.070                    24812555.008
 119270389.282 7  92938032.449 6  22696397.195                    22696405.109
 116643930.772 7  90891333.39945  22196558.289                    22196566.844
 111058184.842 8  86538949.664 7  21133638.805                    21133646.109
 115618951.447 8  90092779.870 7  22001553.523                    22001563.621
 112560671.002 8  87709696.433 7  21419586.781                    21419594.578
 117078214.747 7  91229931.09145  22279216.602                    22279222.844
 117225435.817 7  91344570.41245  22307260.438                    22307268.984
 11  8 27  2 30 30.0000000  0  9G15G21G12G26G05G25G29G02G30
 120617073.383 7  93987544.965 6  22952684.609                    22952693.766
 130334924.235 6 101559782.51343  24801920.250                    24801930.824
 119357963.382 7  93006271.994 7  22713061.969                    22713069.992
 116569129.386 7  90833046.65745  22182324.336                    22182332.973
 111121480.009 8  86588270.571 7  21145683.414                    21145690.789
 115663633.527 8  90127597.078 7  22010056.422                    22010067.070
 112491690.565 8  87655945.489 7  21406460.016                    21406467.730
 117122174.206 7  91264185.20845  22287581.625                    22287587.855
 117274828.124 7  91383057.91945  22316659.188                    22316667.875
 11  8 27  2 31  0.0000000  0 10G15G21G12G26G05G25G29G02G30G18
 120523246.357 7  93914433.101 6  22934829.648                    22934838.734
 130279072.725 6 101516261.95643  24791294.086                    24791301.285
 119445720.821 7  93074654.389 7  22729761.328                    22729769.938
 116494711.386 7  90775058.67445  22168162.977                    22168171.508
 111185100.046 8  86637844.618 7  21157789.766                    21157796.586
 115708761.580 8  90162761.794 7  22018643.969                    22018654.270
 112422965.554 8  87602393.578 7  21393381.992                    21393389.824
 117166227.913 7  91298512.77145  22295964.992                    22295971.355
 117324646.700 7  91421877.57645  22326139.031                    22326147.859
 129782172.08516                  24696732.641
 11  8 27  2 31 30.0000000  0 10G15G21G12G26G05G25G29G02G30G18
 120429544.927 7  93841419.103 7  22916999.195                    22917007.941
 130223200.704 6 101472725.43343  24780660.602                    24780669.738
 119533658.283 7  93143177.085 7  22746495.430                    22746503.789
 116420679.480 7  90717371.53345  22154075.367                    22154083.613
 111249041.601 8  86687669.207 7  21169957.531                    21169965.254
 115754332.574 8  90198271.670 7  22027315.609                    22027326.273
 112354498.172 8  87549042.417 7  21380352.945                    21380360.777
 117210375.663 7  91332913.64245  22304366.336                    22304372.555
 117374888.066 7  91461026.69945  22335700.391                    22335709.238
 129693123.259 6 101059646.69553  24679786.914                    24679798.578
 11  8 27  2 32  0.0000000  0 10G15G21G12G26G05G25G29G02G30G18
 120335973.108 7  93768506.101 7  22899193.453                    22899202.043
 130167308.222 6 101429172.94843  24770024.727                    24770034.090
 119621773.611 7  93211838.363 7  22763263.000                    22763271.688
 116347038.214 7  90659988.80645  22140061.406                    22140069.898
 111313303.127 8  86737743.114 7  21182185.945                    21182193.336
 115800344.907 8  90234125.446 7  22036071.320                    22036082.215
 112286291.655 8  87495894.523 7  21367373.836                    21367381.715
 117254618.445 7  91367388.54945  22312784.945                    22312791.242
 117425550.462 7  91500503.87545  22345340.820                    22345349.465
 129604240.452 6 100990387.68443  24662873.500                    24662884.730
 11  8 27  2 32 30.0000000  0 10G15G21G12G26G05G25G29G02G30G18
 120242533.232 7  93695695.905 7  22881411.727                    22881420.785
 130111394.459 6 101385603.89843  24759384.570                    24759393.422
 119710062.785 7  93280635.109 7  22780064.320                    22780072.695
 116273790.181 7  90602912.48045  22126122.609                    22126131.078
 111377881.440 8  86788063.864 7  21194474.680                    21194482.047
 115846795.461 8  90270320.683 7  22044910.711                    22044921.043
 112218347.358 8  87442950.951 7  21354444.477                    21354452.355
 117298956.223 7  91401937.48845  22321222.602                    22321228.340
 117476630.309 7  91540306.34345  22355061.188                    22355069.926
 129515524.515 6 100921258.72943  24645991.383                    24646002.168
 11  8 27  2 33  0.0000000  0 10G15G21G12G26G05G25G29G02G30G18
 120149229.903 7  93622992.098 7  22863656.609                    22863665.289
 130055459.957 6 101342018.68843  24748740.633                    24748749.328
 119798524.037 7  93349565.933 7  22796898.125                    22796906.418
 116200940.332 8  90546146.43145  22112259.609                    22112268.035
 111442775.681 8  86838630.794 7  21206823.703                    21206830.773
 115893683.176 8  90306856.581 7  22053832.898                    22053843.660
 112150669.292 8  87390214.830 7  21341566.156                    21341573.887
 117343389.972 7  91436561.20045  22329677.859                    22329683.820
 117528126.288 7  91580433.07145  22364860.094                    22364869.578
 129426977.676 6 100852261.52443  24629140.992                    24629151.172
 11  8 27  2 33 30.0000000  0 10G15G21G12G26G05G25G29G02G30G18
 120056065.350 7  93550396.440 6  22845928.055                    22845936.227
 129999503.605 6 101298416.41343  24738092.484                    24738101.066
 119887154.137 7  93418628.342 7  22813763.633                    22813771.824
 116128491.705 7  90489693.02245  22098473.313                    22098481.719
 111507982.770 8  86889441.515 7  21219232.164                    21219239.602
 115941005.140 8  90343730.855 7  22062838.164                    22062848.609
 112083259.433 8  87337687.710 7  21328738.438                    21328746.133
 117387920.373 7  91471260.22845  22338152.078                    22338157.828
 117580035.258 7  91620881.61145  22374738.359                    22374747.008
 129338600.762 6 100783396.64043  24612323.344                    24612333.531
 11  8 27  2 34  0.0000000  0 10G15G21G12G26G05G25G29G02G30G18
 119963042.733 7  93477911.384 7  22828226.336                    22828234.953
 129943524.721 7 101254796.61943  24727440.359                    24727448.594
 119975949.375 7  93487819.426 7  22830660.469                    22830669.102
 116056447.660 7  90433554.88045  22084763.219                    22084771.996
 111573499.779 8  86940493.714 7  21231699.930                    21231707.344
 115988758.497 8  90380941.264 7  22071924.984                    22071935.500
 112016119.530 8  87285370.937 7  21315961.953                    21315969.656
 117432547.410 7  91506034.56645  22346644.305                    22346650.082
 117632353.987 7  91661649.45045  22384693.953                    22384702.367
 129250394.697 6 100714664.92143  24595537.570                    24595548.051
 11  8 27  2 34 30.0000000  0 10G15G21G12G26G05G25G29G02G30G18
 119870165.280 7  93405539.415 7  22810552.141                    22810560.953
 129887522.718 6 101211158.81343  24716782.695                    24716791.043
 120064906.908 7  93557136.955 7  22847589.281                    22847597.520
 115984811.539 7  90377734.59245  22071131.648                    22071140.059
 111639324.380 8  86991785.597 7  21244226.188                    21244233.262
 116036940.889 8  90418486.002 7  22081094.500                    22081104.871
 111949252.133 8  87233266.506 7  21303237.266                    21303244.793
 117477271.485 7  91540884.52645  22355154.695                    22355160.594
 117685079.889 7  91702734.56145  22394727.344                    22394736.238
 129162360.998 6 100646067.46542  24578786.031                    24578795.492
 11  8 27  2 35  0.0000000  0 10G15G21G12G26G05G25G29G02G30G18
 119777435.966 7  93333282.897 6  22792905.961                    22792914.582
 129831497.535 6 101167502.88843  24706121.891                    24706130.422
 120154023.895 7  93626578.736 7  22864547.430                    22864555.332
 115913587.125 8  90322235.12145  22057577.563                    22057586.348
 111705454.358 8  87043315.455 7  21256809.859                    21256817.195
 116085550.101 8  90456363.326 7  22090344.070                    22090354.391
 111882660.201 8  87181376.714 7  21290565.047                    21290572.867
 117522093.104 7  91575810.48545  22363684.242                    22363689.555
 117738210.386 7  91744134.95245  22404837.852                    22404846.703
 129074501.180 5 100577605.49642  24562066.086                    24562077.172
 11  8 27  2 35 30.0000000  0 10G15G21G12G26G05G25G29G02G30G18
 119684857.881 7  93261144.217 6  22775289.227                    22775297.320
 129775448.353 6 101123828.26043  24695456.898                    24695464.633
 120243297.617 7  93696142.663 6  22881535.453                    22881543.395
 115842777.751 7  90267059.04845  22044103.750                    22044111.914
 111771887.087 8  87095081.208 7  21269451.766                    21269458.703
 116134583.459 8  90494571.144 7  22099674.992                    22099685.781
 111816345.739 8  87129703.141 7  21277946.328                    21277953.969
 117567012.708 7  91610812.78645  22372231.977                    22372237.637
 117791742.571 7  91785848.34445  22415025.039                    22415033.625
 128986816.237 5 100509279.82742  24545380.039                    24545391.203
 11  8 27  2 36  0.0000000  0 10G15G21G12G26G05G25G29G02G30G18
 119592434.450 7  93189126.039 6  22757701.828                    22757709.805
 129719374.955 6 101080134.85743  24684784.969                    24684794.273
 120332724.350 7  93765825.816 6  22898553.180                    22898560.660
 115772386.823 7  90212209.03645  22030708.625                    22030717.148
 111838620.388 8  87147081.173 7  21282150.672                    21282158.012
 116184038.610 8  90533107.644 7  22109086.367                    22109096.797
 111750311.250 8  87078247.732 7  21265380.203                    21265387.742
 117612030.618 7  91645891.69045  22380798.594                    22380804.727
 117845673.772 7  91827872.66145  22425287.414                    22425296.289
 128899307.707 5 100441091.67142  24528727.758                    24528738.633
 11  8 27  2 36 30.0000000  0 10G15G21G12G26G05G25G29G02G30G18
 119500168.270 7  93117230.402 7  22740144.133                    22740152.395
 129663276.513 6 101036421.85843  24674110.570                    24674118.863
 120422300.876 7  93835625.695 6  22915598.594                    22915606.832
 115702417.793 8  90157687.78245  22017394.297                    22017401.754
 111905651.334 8  87199313.083 7  21294906.398                    21294913.809
 116233912.688 8  90571970.565 7  22118576.695                    22118587.090
 111684558.879 8  87027012.154 7  21252867.805                    21252875.293
 117657147.052 7  91681047.36945  22389383.953                    22389389.469
 117900000.751 7  91870205.38745  22435625.844                    22435634.293
 128811976.586 5 100373041.73642  24512108.250                    24512120.188
 11  8 27  2 37  0.0000000  0 10G15G21G12G26G05G25G29G02G30G18
 119408062.746 7  93045459.945 7  22722616.758                    22722625.582
 129607152.667 6 100992689.07843  24663429.523                    24663439.293
 120512024.543 7  93905540.225 6  22932672.719                    22932680.695
 115632874.082 8  90103497.93945  22004160.227                    22004168.094
 111972977.558 8  87251775.066 7  21307717.727                    21307725.434
 116284203.402 8  90611158.153 7  22128146.984                    22128157.039
 111619091.473 8  86975998.631 7  21240409.609                    21240417.414
 117702362.791 7  91716280.42145  22397988.047                    22397993.742
 117954721.057 7  91912844.59845  22446038.359                    22446047.059
 128724824.186 6 100305130.98842  24495523.328                    24495534.672
 11  8 27  2 37 30.0000000  0 10G15G21G12G26G05G25G29G02G30G18
 119316121.102 7  92973817.201 7  22705120.625                    22705128.957
 129551002.935 6 100948936.18143  24652745.133                    24652753.492
 120601891.966 7  93975566.790 7  22949773.906                    22949782.000
 115563759.164 7  90049642.21745  21991008.102                    21991016.148
 112040596.606 8  87304465.230 7  21320585.180                    21320592.594
 116334908.017 8  90650668.246 7  22137795.508                    22137805.793
 111553911.352 8  86925208.956 7  21228006.383                    21228014.113
 117747678.039 7  91751591.01045  22406610.828                    22406617.395
 118009831.712 7  91955787.97945  22456525.508                    22456534.332
 128637851.506 6 100237360.33343  24478973.094                    24478984.277
 11  8 27  2 38  0.0000000  0 10G15G21G12G26G05G25G29G02G30G18
 119224346.194 7  92902304.385 7  22687656.375                    22687665.047
 129494826.682 6 100905162.58943  24642054.508                    24642063.980
 120691900.237 7  94045703.099 7  22966901.867                    22966910.602
 115495076.376 7  89996123.22045  21977937.461                    21977945.727
 112108506.081 8  87357381.726 7  21333508.469                    21333515.398
 116386023.941 8  90690498.856 7  22147522.320                    22147532.645
 111489020.420 8  86874644.642 7  21215657.914                    21215665.914
 117793093.054 7  91786979.34945  22415253.695                    22415259.281
 118065329.701 7  91999033.18245  22467087.109                    22467095.656
 128551059.947 6 100169730.74543  24462458.414                    24462467.605
 11  8 27  2 38 30.0000000  0 10G15G21G12G26G05G25G29G02G30G18
 119132741.292 7  92830924.018 7  22670224.617                    22670233.191
 129438623.151 6 100861367.76843  24631359.078                    24631369.043
 120782045.933 7  94115946.487 7  22984055.438                    22984064.223
 115426828.752 7  89942943.30645  21964950.664                    21964959.332
 112176703.175 8  87410522.319 7  21346485.328                    21346493.070
 116437548.289 8  90730647.711 7  22157327.461                    22157337.590
 111424420.877 8  86824307.370 7  21203365.016                    21203372.352
 117838608.423 7  91822445.87145  22423914.609                    22423920.305
 118121211.923 7  92042577.79045  22477720.766                    22477729.313
 128464450.419 7 100102243.04843  24445976.594                    24445986.074
 11  8 27  2 39  0.0000000  0 10G15G21G12G26G05G25G29G02G30G18
 119041308.960 7  92759678.145 7  22652825.523                    22652834.012
 129382392.052 6 100817551.42643  24620658.609                    24620668.371
 120872326.002 7  94186294.563 7  23001235.219                    23001244.043
 115359019.918 7  89890105.30745  21952047.438                    21952055.965
 112245185.471 8  87463885.138 7  21359517.672                    21359525.117
 116489478.573 8  90771112.883 7  22167209.094                    22167219.625
 111360115.617 8  86774199.423 7  21191127.977                    21191135.723
 117884224.590 7  91857990.92745  22432595.555                    22432601.375
 118177475.663 7  92086419.66245  22488427.383                    22488436.438
 128378024.198 7 100034898.12743  24429529.984                    24429539.387
 11  8 27  2 39 30.0000000  0 10G15G21G12G26G05G25G29G02G30G18
 118950052.664 7  92688569.419 7  22635459.992                    22635468.430
 129326133.173 6 100773713.45543  24609953.500                    24609962.234
 120962737.758 7  94256745.256 7  23018440.469                    23018448.738
 115291653.496 7  89837612.02645  21939227.953                    21939236.078
 112313950.739 8  87517468.477 7  21372602.984                    21372610.512
 116541812.471 8  90811892.549 7  22177168.133                    22177178.516
 111296106.871 8  86724322.519 7  21178947.641                    21178955.008
 117929941.768 7  91893614.70045  22441295.070                    22441300.410
 118234118.192 7  92130556.71045  22499205.992                    22499214.688
 128291782.801 7  99967697.23644  24413118.617                    24413128.648
 11  8 27  2 40  0.0000000  0 10G15G21G12G26G05G25G29G02G30G18
 118858976.126 7  92617600.764 7  22618128.969                    22618137.039
 129269845.925 6 100729853.39143  24599242.641                    24599250.625
 121053278.385 7  94327296.367 7  23035669.125                    23035678.047
 115224732.828 7  89785466.11845  21926493.063                    21926500.941
 112382996.779 8  87571270.606 7  21385741.758                    21385749.156
 116594547.328 8  90852984.654 7  22187203.156                    22187213.926
 111232397.426 7  86674678.835 7  21166824.109                    21166831.566
 117975760.550 7  91929317.64845  22450013.594                    22450019.668
 118291136.759 7  92174986.76945  22510055.602                    22510064.906
 128205727.527 6  99900641.37643  24396741.969                    24396751.855
 11  8 27  2 40 30.0000000  0 10G15G21G12G26G05G25G29G02G30G18
 118768082.202 7  92546774.401 7  22600831.938                    22600840.254
 129213529.966 6 100685970.96243  24588524.711                    24588534.094
 121143944.712 7  94397945.421 6  23052923.078                    23052931.441
 115158261.341 7  89733670.19045  21913843.992                    21913852.094
 112452320.885 8  87625289.385 7  21398933.797                    21398941.359
 116647680.610 8  90894387.223 7  22197313.906                    22197324.211
 111168989.724 8  86625270.282 7  21154757.852                    21154765.191
 118021681.568 7  91965100.27745  22458752.586                    22458758.262
 118348528.395 7  92219707.52945  22520977.344                    22520986.469
 128119859.055 6  99833731.07143  24380401.750                    24380411.461
 11  8 27  2 41  0.0000000  0 10G15G21G12G26G05G25G29G02G30G18
 118677373.643 7  92476092.489 7  22583571.008                    22583578.781
 129157184.548 6 100642065.56743  24577802.922                    24577811.898
 121234733.017 7  94468689.560 6  23070199.336                    23070207.805
 115092242.087 7  89682226.66945  21901280.945                    21901288.629
 112521920.160 8  87679522.594 7  21412178.031                    21412185.504
 116701209.353 8  90936097.939 7  22207500.336                    22207510.512
 111105885.779 7  86576098.425 7  21142749.719                    21142756.941
 118067705.191 7  92000962.83245  22467510.594                    22467516.230
 118406289.998 7  92264716.57145  22531969.273                    22531978.523
 128034178.761 6  99766967.40442  24364097.273                    24364106.773
 11  8 27  2 41 30.0000000  0 10G15G21G12G26G05G25G29G02G30G18
 118586853.881 7  92405557.689 7  22566345.195                    22566353.531
 129100809.444 6 100598137.06243  24567075.664                    24567084.133
 121325640.599 7  94539526.655 7  23087498.219                    23087506.531
 115026678.599 7  89631138.29345  21888804.844                    21888812.449
 112591792.719 8  87733968.753 7  21425474.656                    21425481.953
 116755131.006 8  90978114.822 7  22217761.383                    22217772.035
 111043088.119 8  86527165.225 7  21130799.781                    21130807.195
 118113831.709 7  92036905.56345  22476287.836                    22476293.676
 118464418.728 7  92310011.69045  22543030.367                    22543039.676
 127948687.663 6  99700351.12642  24347829.078                    24347838.691
 11  8 27  2 42  0.0000000  0 10G15G21G12G26G05G25G29G02G30G18
 118496525.882 7  92335172.317 7  22549156.516                    22549164.773
 129044404.018 6 100554184.90643  24556341.883                    24556350.238
 121416664.571 7  94610454.427 6  23104820.297                    23104828.199
 114961574.037 7  89580407.52845  21876415.328                    21876423.594
 112661935.892 8  87788625.791 7  21438822.273                    21438829.457
 116809442.802 7  91020435.709 7  22228096.289                    22228106.520
 110980599.354 8  86478472.715 7  21118908.828                    21118915.586
 118160061.737 7  92072928.97145  22485084.570                    22485091.070
 118522911.545 7  92355590.50545  22554161.906                    22554170.129
 127863387.287 6  99633883.53142  24331596.227                    24331606.020
 11  8 27  2 42 30.0000000  0 10G15G21G12G26G05G25G29G02G30G18
 118406392.778 7  92264938.799 7  22532004.625                    22532013.129
 128987967.736 7 100510208.72443  24545601.289                    24545610.063
 121507802.082 7  94681470.668 6  23122162.953                    23122170.895
 114896931.612 7  89530036.84445  21864114.469                    21864122.645
 112732347.104 8  87843491.684 7  21452221.250                    21452228.262
 116864142.065 8  91063058.511 7  22238505.055                    22238515.133
 110918421.284 7  86430022.318 7  21107076.320                    21107084.000
 118206395.493 7  92109033.18845  22493901.648                    22493908.219
 118581765.409 7  92401450.67945  22565361.719                    22565370.047
 127778278.299 6  99567564.97942  24315400.289                    24315410.191
 11  8 27  2 43  0.0000000  0 10G15G21G12G26G05G25G29G02G30G18
 118316457.782 7  92194859.663 7  22514890.656                    22514898.961
 128931500.353 6 100466208.27243  24534856.234                    24534865.191
 121599049.496 7  94752572.532 6  23139526.617                    23139534.770
 114832754.869 7  89480029.04845  21851902.055                    21851909.809
 112803024.093 8  87898564.675 7  21465670.703                    21465677.883
 116919226.184 7  91105981.221 7  22248987.266                    22248997.910
 110856556.882 8  86381816.332 7  21095304.242                    21095311.598
 118252833.715 7  92145218.82045  22502738.844                    22502745.523
 118640977.629 7  92447590.08245  22576628.680                    22576637.191
 127693362.130 6  99501396.71342  24299240.859                    24299250.512
 11  8 27  2 43 30.0000000  0 10G15G21G12G26G05G25G29G02G30G18
 118226723.898 7  92124937.227 7  22497814.648                    22497822.863
 128875001.589 6 100422183.36743  24524105.773                    24524113.797
 121690404.057 6  94823757.886 6  23156910.688                    23156919.414
 114769047.287 7  89430386.81445  21839778.781                    21839787.195
 112873964.540 8  87953842.951 7  21479169.805                    21479177.422
 116974692.526 7  91149201.756 7  22259541.898                    22259552.543
 110795008.346 8  86333856.476 7  21083591.617                    21083599.152
 118299376.665 7  92181486.04445  22511595.914                    22511602.016
 118700545.267 7  92494006.42745  22587964.516                    22587972.906
 127608640.050 6  99435379.70843  24283119.078                    24283127.832
 11  8 27  2 44  0.0000000  0 10G15G21G12G26G05G25G29G02G30G18
 118137194.261 7  92055173.939 7  22480778.133                    22480785.500
 128818470.676 6 100378133.40443  24513347.680                    24513355.949
 121781863.206 6  94895024.722 7  23174314.703                    23174323.355
 114705811.829 7  89381112.48245  21827745.352                    21827753.336
 112945165.661 8  88009324.364 7  21492718.953                    21492725.969
 117030538.144 7  91192717.823 7  22270169.500                    22270180.105
 110733778.146 8  86286144.671 7  21071939.742                    21071947.168
 118346024.804 7  92217835.24445  22520472.695                    22520479.105
 118760465.135 7  92540697.25445  22599366.641                    22599375.352
 127524112.730 7  99369514.43843  24267033.727                    24267043.203
 11  8 27  2 44 30.0000000  0 10G15G21G12G26G05G25G29G02G30G18
 118047872.241 7  91985572.447 7  22463780.367                    22463788.223
 128761907.038 6 100334057.96943  24502583.898                    24502591.789
 121873423.061 6  94966370.033 7  23191737.938                    23191747.121
 114643051.476 7  89332208.36645  21815802.508                    21815810.207
 113016624.964 8  88065006.958 7  21506317.289                    21506324.633
 117086760.269 7  91236527.267 7  22280867.852                    22280878.402
 110672868.355 8  86238682.519 7  21060349.078                    21060356.488
 118392778.741 7  92254266.88545  22529369.508                    22529375.598
 118820734.174 7  92587660.14845  22610835.781                    22610844.273
 127439781.585 6  99303802.06343  24250986.109                    24250995.602
 11  8 27  2 45  0.0000000  0 10G15G21G12G26G05G25G29G02G30G18
 117958760.308 7  91916134.648 7  22446822.891                    22446830.652
 128705310.342 6 100289956.77443  24491813.742                    24491822.203
 121965080.605 6  95037791.468 7  23209180.258                    23209189.043
 114580769.524 7  89283677.02045  21803950.578                    21803958.668
 113088340.059 8  88120888.867 7  21519964.141                    21519971.691
 117143356.002 8  91280627.843 7  22291638.039                    22291648.363
 110612281.106 8  86191471.718 7  21048819.883                    21048827.234
 118439638.597 7  92290781.05845  22538287.016                    22538293.145
 118881349.291 7  92634892.73445  22622370.023                    22622378.445
 127355647.667 6  99238243.38643  24234975.852                    24234984.785
 11  8 27  2 45 30.0000000  0 10G15G21G12G26G05G25G29G02G30G18
 117869862.531 7  91846863.717 7  22429905.859                    22429913.754
 128648680.520 6 100245829.74043  24481037.469                    24481045.508
 122056833.588 7  95109287.279 6  23226639.883                    23226648.402
 114518969.966 7  89235521.58645  21792190.242                    21792198.285
 113160308.780 8  88176968.397 7  21533659.688                    21533666.797
 117200323.342 7  91325017.973 7  22302478.461                    22302489.109
 110552020.014 8  86144515.074 7  21037352.086                    21037360.035
 118486605.646 7  92327378.77945  22547224.234                    22547230.332
 118942308.189 7  92682393.19545  22633970.227                    22633978.988
 127271712.288 6  99172839.35943  24219003.617                    24219012.855
 11  8 27  2 46  0.0000000  0 10G15G21G12G26G05G25G29G02G30G18
 117781181.149 7  91777761.407 7  22413030.375                    22413038.313
 128592016.568 6 100201676.10943  24470254.063                    24470262.051
 122148678.361 7  95180854.594 6  23244117.500                    23244125.898
 114457655.187 7  89187743.88445  21780522.680                    21780530.891
 113232527.959 8  88233243.094 7  21547402.305                    21547409.367
 117257658.594 7  91369694.793 7  22313388.977                    22313399.395
 110492086.363 7  86097813.567 7  21025947.477                    21025954.602
 118533679.672 7  92364059.86745  22556182.445                    22556188.148
 119003606.967 7  92730158.48244  22645634.852                    22645643.770
 127187975.951 6  99107590.44743  24203068.773                    24203078.668
 11  8 27  2 46 30.0000000  0 10G15G21G12G26G05G25G29G02G30G18
 117692719.975 7  91708830.699 7  22396196.539                    22396204.449
 128535318.667 6 100157496.03743  24459464.969                    24459473.516
 122240612.454 7  95252491.517 6  23261612.664                    23261620.520
 114396828.717 7  89140346.67645  21768947.281                    21768955.566
 113304996.391 8  88289712.038 7  21561192.563                    21561199.750
 117315359.548 7  91414656.569 7  22324369.188                    22324379.797
 110432483.055 8  86051369.464 7  21014605.039                    21014612.473
 118580861.182 7  92400824.67245  22565160.617                    22565166.418
 119065243.173 7  92778186.70145  22657363.641                    22657372.406
 127104440.259 7  99042497.83943  24187171.594                    24187181.230
 11  8 27  2 47  0.0000000  0 10G15G21G12G26G05G25G29G02G30G18
 117604481.881 7  91640073.809 7  22379405.992                    22379413.660
 128478586.177 6 100113289.00943  24448669.008                    24448677.547
 122332632.135 7  95324195.163 6  23279123.227                    23279131.215
 114336493.800 7  89093332.50645  21757465.984                    21757474.453
 113377711.014 8  88346372.794 7  21575029.711                    21575037.277
 117373423.431 7  91459901.167 7  22335418.359                    22335428.941
 110373212.545 7  86005184.700 7  21003326.500                    21003333.672
 118628151.025 7  92437673.88545  22574159.367                    22574165.266
 119127213.836 7  92826475.52145  22669156.648                    22669165.297
 127021106.375 6  98977562.54243  24171314.250                    24171323.293
 11  8 27  2 47 30.0000000  0 10G15G21G12G26G05G25G29G02G30G18
 117516469.694 7  91571492.956 7  22362657.359                    22362665.684
 128421818.499 6 100069054.56443  24437866.672                    24437875.012
 122424734.527 7  95395963.239 6  23296649.594                    23296657.480
 114276653.228 7  89046703.54945  21746078.734                    21746087.074
 113450668.868 8  88403223.079 7  21588913.406                    21588920.133
 117431846.998 7  91505426.006 7  22346535.844                    22346546.203
 110314276.781 8  85959260.773 7  20992111.094                    20992118.688
 118675549.225 7  92474607.56945  22583179.055                    22583185.324
 119189515.421 7  92875022.23245  22681012.328                    22681020.680
 126937974.793 6  98912784.88043  24155494.063                    24155504.387
 11  8 27  2 48  0.0000000  0 10G15G21G12G26G05G25G29G02G30G18
 117428686.817 7  91503090.771 7  22345952.961                    22345960.918
 128365015.434 6 100024792.54843  24427056.945                    24427065.652
 122516917.068 7  95467793.775 6  23314191.414                    23314199.641
 114217310.445 7  89000462.46545  21734786.250                    21734794.777
 113523868.017 8  88460261.394 7  21602842.539                    21602849.656
 117490627.695 7  91551229.145 7  22357721.211                    22357732.320
 110255678.403 8  85913599.748 7  20980960.188                    20980967.488
 118723056.511 7  92511626.23845  22592219.414                    22592225.574
 119252145.194 7  92923824.65345  22692930.016                    22692938.969
 126855046.956 6  98848166.00443  24139713.602                    24139723.156
 11  8 27  2 48 30.0000000  0 10G15G21G12G26G05G25G29G02G30G18
 117341136.526 7  91434869.834 7  22329292.258                    22329300.082
 128308176.614 6  99980502.65343  24416241.695                    24416249.211
 122609176.838 7  95539684.486 6  23331747.031                    23331756.371
 114158468.543 7  88954611.68345  21723588.641                    21723597.258
 113597306.217 8  88517485.980 7  21616816.742                    21616824.566
 117549762.848 7  91597308.477 7  22368974.398                    22368984.977
 110197419.815 7  85868203.502 7  20969873.828                    20969881.234
 118770673.345 7  92548730.28245  22601280.609                    22601286.879
 119315100.171 7  92972880.49145  22704910.047                    22704918.520
 126772323.820 6  98783706.59143  24123971.625                    24123981.266
 11  8 27  2 49  0.0000000  0 10G15G21G12G26G05G25G29G02G30G18
 117253821.696 7  91366832.366 7  22312676.859                    22312684.723
 128251301.522 7  99936184.53043  24405418.531                    24405425.750
 122701510.098 6  95611632.446 6  23349318.102                    23349326.750
 114100130.410 7  88909153.45545  21712487.305                    21712495.770
 113670980.494 8  88574894.507 7  21630836.563                    21630843.582
 117609249.183 7  91643661.450 7  22380294.469                    22380305.324
 110139503.031 8  85823073.586 7  20958852.711                    20958859.973
 118818400.035 7  92585919.92845  22610362.188                    22610368.840
 119378377.017 7  93022187.12645  22716951.156                    22716959.727
 126689806.209 6  98719407.34043  24108269.602                    24108278.121
 11  8 27  2 49 30.0000000  0 10G15G21G12G26G05G25G29G02G30G18
 117166745.442 7  91298980.810 7  22296106.234                    22296114.719
 128194389.703 6  99891837.76543  24394588.125                    24394596.043
 122793914.283 7  95683635.659 6  23366901.875                    23366910.992
 114042299.282 7  88864090.30345  21701482.563                    21701490.820
 113744888.944 8  88632485.527 7  21644900.969                    21644908.043
 117669084.183 7  91690286.140 7  22391681.039                    22391691.082
 110081930.843 8  85778212.187 7  20947896.906                    20947904.336
 118866237.354 7  92623195.75045  22619466.305                    22619471.969
 119441972.866 7  93071742.34644  22729053.047                    22729061.688
 126607495.404 7  98655269.20343  24092606.125                    24092614.758
 11  8 27  2 50  0.0000000  0 10G15G21G12G26G05G25G29G02G30G18
 117079911.119 7  91231317.740 7  22279583.328                    22279590.660
 128137440.902 6  99847462.15243  24383750.813                    24383758.840
 122886386.535 6  95755691.919 6  23384498.750                    23384507.434
 113984978.377 7  88819424.71745  21690574.984                    21690582.863
 113819028.739 8  88690256.809 7  21659009.516                    21659016.672
 117729265.000 7  91737180.279 7  22403132.625                    22403143.000
 110024705.358 8  85733620.942 7  20937007.211                    20937014.324
 118914185.613 7  92660558.05045  22628589.945                    22628595.824
 119505884.607 7  93121543.70645  22741214.867                    22741223.926
 126525392.300 7  98591292.89943  24076982.984                    24076990.977
 11  8 27  2 50 30.0000000  0 10G15G21G12G26G05G25G29G02G30G18
 116993321.661 7  91163845.509 7  22263105.242                    22263112.777
 128080454.837 6  99803057.54243  24372906.133                    24372914.613
 122978923.819 7  95827798.866 6  23402108.469                    23402116.828
 113928170.767 7  88775159.08745  21679764.758                    21679772.477
 113893398.299 8  88748207.131 7  21673161.031                    21673168.805
 117789788.999 7  91784341.844 7  22414649.914                    22414660.578
 109967829.490 8  85689302.130 7  20926184.086                    20926191.188
 118962245.424 7  92698007.25945  22637735.711                    22637741.262
 119570109.504 7  93171589.09344  22753436.438                    22753445.633
 126443498.122 7  98527479.38643  24061398.195                    24061407.129
 11  8 27  2 51  0.0000000  0 10G15G21G12G26G05G25G29G02G30G18
 116906979.897 7  91096566.259 7  22246674.961                    22246683.051
 128023430.699 7  99758623.23243  24362055.406                    24362063.234
 123071522.472 7  95899953.647 6  23419729.289                    23419737.426
 113871879.345 7  88731295.69745  21669052.797                    21669060.660
 113967994.247 8  88806333.863 7  21687356.758                    21687363.551
 117850652.734 7  91831768.135 7  22426232.148                    22426242.410
 109911304.823 7  85645256.975 7  20915427.867                    20915434.949
 119010417.261 7  92735543.74845  22646902.227                    22646908.684
 119634643.898 7  93221875.62844  22765717.047                    22765725.656
 126361813.597 7  98463829.28143  24045853.977                    24045862.613
 11  8 27  2 51 30.0000000  0 10G15G21G12G26G05G25G29G02G30G18
 116820889.083 7  91029482.552 7  22230292.336                    22230300.324
 127966368.306 6  99714159.11743  24351196.586                    24351204.441
 123164180.355 6  95972154.564 6  23437361.305                    23437370.172
 113816106.749 8  88687836.57745  21658439.430                    21658447.676
 114042814.485 8  88864635.359 7  21701594.563                    21701601.945
 117911853.434 7  91879456.992 7  22437878.234                    22437888.512
 109855133.728 8  85601487.345 7  20904738.773                    20904745.789
 119058701.211 7  92773167.61345  22656090.422                    22656096.855
 119699484.726 7  93272400.95944  22778055.469                    22778064.465
 126280339.715 6  98400343.25943  24030349.750                    24030358.398
 11  8 27  2 52  0.0000000  0 10G15G21G12G26G05G25G29G02G30G18
 116735052.641 7  90962597.082 7  22213958.289                    22213966.246
 127909267.407 6  99669665.00243  24340331.109                    24340338.395
 123256894.075 6  96044399.003 6  23455004.430                    23455013.086
 113760856.424 7  88644784.42445  21647925.859                    21647933.641
 114117856.563 8  88923109.714 7  21715874.680                    21715881.645
 117973388.431 7  91927406.335 7  22449587.547                    22449598.570
 109799319.061 8  85557995.434 7  20894117.258                    20894124.727
 119107098.322 7  92810879.64945  22665300.492                    22665306.637
 119764629.206 7  93323162.87644  22790452.391                    22790461.332
 126199077.517 6  98337022.23343  24014886.305                    24014894.969
 11  8 27  2 52 30.0000000  0 10G15G21G12G26G05G25G29G02G30G18
 116649473.260 7  90895911.901 7  22197673.266                    22197680.988
 127852127.331 6  99625140.38143  24329456.734                    24329464.934
 123349660.599 6  96116684.580 6  23472657.422                    23472665.313
 113706131.134 7  88602141.39045  21637511.773                    21637519.777
 114193118.114 8  88981755.101 7  21730196.188                    21730202.719
 118035254.597 7  91975613.733 7  22461360.469                    22461371.176
 109743862.766 8  85514782.772 7  20883564.609                    20883571.367
 119155608.945 7  92848680.13845  22674531.578                    22674537.012
 119830073.879 7  93374158.74144  22802906.086                    22802914.961
 126118027.825 7  98273866.78943  23999462.992                    23999471.816
 11  8 27  2 53  0.0000000  0 10G15G21G12G26G05G25G29G02G30G18
 116564154.053 7  90829429.468 7  22181436.625                    22181445.199
 127794948.261 6  99580585.31543  24318576.070                    24318584.258
 123442477.139 6  96189009.122 6  23490318.781                    23490327.871
 113651934.051 7  88559909.94445  21627197.992                    21627206.234
 114268596.720 8  89040569.610 7  21744559.445                    21744566.840
 118097449.082 7  92024076.964 7  22473195.305                    22473206.238
 109688767.386 7  85471851.346 7  20873080.461                    20873087.262
 119204233.398 7  92886569.32845  22683784.516                    22683790.566
 119895815.816 7  93425386.20945  22815416.500                    22815425.027
 126037192.117 6  98210878.09343  23984079.234                    23984089.309
 11  8 27  2 53 30.0000000  0 10G15G21G12G26G05G25G29G02G30G18
 116479098.487 7  90763152.454 7  22165251.734                    22165259.090
 127737729.783 6  99535999.57143  24307687.594                    24307695.824
 123535340.762 6  96261370.347 6  23507990.648                    23507999.441
 113598267.856 8  88518092.17945  21616986.258                    21616994.133
 114344290.100 8  89099551.467 7  21758963.469                    21758970.629
 118159969.162 7  92072793.908 7  22485093.148                    22485103.578
 109634034.884 8  85429202.678 7  20862664.773                    20862671.656
 119252972.255 7  92924547.66544  22693058.742                    22693065.125
 119961852.044 7  93476843.01245  22827982.867                    22827991.469
 125956570.677 6  98148056.37743  23968738.242                    23968747.438
 11  8 27  2 54  0.0000000  0 10G15G21G12G26G05G25G29G02G30G18
 116394309.542 7  90697083.205 7  22149116.875                    22149124.313
 127680471.320 6  99491382.69043  24296792.031                    24296799.977
 123628248.525 6  96333765.951 6  23525670.164                    23525679.875
 113545135.979 7  88476690.74745  21606875.352                    21606883.844
 114420195.910 8  89158698.866 7  21773407.750                    21773414.926
 118222811.893 7  92121762.265 7  22497051.484                    22497061.977
 109579668.232 8  85386839.100 7  20852319.422                    20852326.738
 119301826.157 7  92962615.65345  22702355.719                    22702361.930
 120028179.465 7  93528526.71545  22840604.555                    22840613.352
 125876164.687 6  98085402.51743  23953437.367                    23953446.273
 11  8 27  2 54 30.0000000  0 10G15G21G12G26G05G25G29G02G30G18
 116309790.088 7  90631223.954 7  22133033.016                    22133040.887
 127623172.531 6  99446734.39943  24285887.844                    24285895.621
 123721197.478 6  96406193.665 6  23543358.117                    23543366.855
 113492540.958 7  88435707.65845  21596866.953                    21596874.699
 114496312.045 8  89218010.151 7  21787892.211                    21787899.887
 118285974.175 7  92170979.636 7  22509070.992                    22509081.539
 109525669.524 8  85344762.220 7  20842043.414                    20842050.777
 119350795.473 7  93000773.55645  22711674.414                    22711680.219
 120094794.785 7  93580434.76745  22853280.641                    22853289.648
 125795975.223 6  98022917.36043  23938177.688                    23938186.438
 11  8 27  2 55  0.0000000  0 10G15G21G12G26G05G25G29G02G30G18
 116225543.143 7  90565577.029 7  22117001.461                    22117009.094
 127565833.261 6  99402054.53043  24274976.859                    24274984.371
 123814184.112 6  96478650.762 6  23561053.633                    23561062.133
 113440485.656 8  88395145.13645  21586960.891                    21586968.758
 114572635.234 8  89277482.765 7  21802416.086                    21802422.926
 118349452.899 7  92220443.575 7  22521150.703                    22521160.859
 109472040.596 8  85302973.490 7  20831837.844                    20831845.430
 119399880.522 7  93039021.66045  22721015.000                    22721020.738
 120161694.674 7  93632564.54345  22866011.445                    22866020.055
 125716002.992 6  97960601.46643  23922959.461                    23922967.746
 11  8 27  2 55 30.0000000  0 10G15G21G12G26G05G25G29G02G30G18
 116141572.368 7  90500145.301 7  22101022.125                    22101030.156
 127508452.997 6  99357342.70943  24264057.688                    24264065.969
 123907206.546 7  96551135.737 6  23578754.688                    23578763.195
 113388973.252 7  88355005.64745  21577158.422                    21577166.531
 114649163.963 8  89337115.550 7  21816978.891                    21816986.055
 118413245.731 7  92270152.276 7  22533289.570                    22533299.789
 109418784.700 8  85261475.423 7  20821703.875                    20821711.148
 119449082.347 7  93077360.75745  22730377.523                    22730383.484
 120228876.627 7  93684914.10844  22878796.164                    22878804.840
 125636249.267 6  97898455.86243  23907782.445                    23907791.258
 11  8 27  2 56  0.0000000  0 10G15G21G12G26G05G25G29G02G30G18
 116057880.086 7  90434930.598 7  22085096.047                    22085103.594
 127451031.378 6  99312598.67443  24253130.320                    24253138.344
 124000261.002 6  96623645.663 6  23596462.719                    23596470.965
 113338006.078 8  88315291.01445  21567459.773                    21567467.309
 114725895.217 8  89396906.142 7  21831580.227                    21831587.402
 118477349.036 7  92320102.898 7  22545488.227                    22545498.762
 109365903.235 8  85220269.125 7  20811640.945                    20811647.984
 119498400.951 7  93115790.84745  22739762.805                    22739768.629
 120296336.834 7  93737480.49944  22891632.672                    22891641.691
 125556714.426 7  97836480.78643  23892648.258                    23892656.422
 11  8 27  2 56 30.0000000  0 10G15G21G12G26G05G25G29G02G30G18
 115974470.046 7  90369935.817 7  22069223.523                    22069231.527
 127393568.077 6  99267822.16643  24242195.672                    24242202.797
 124093345.168 7  96696178.744 6  23614175.641                    23614184.500
 113287587.369 8  88276003.75345  21557865.242                    21557873.047
 114802827.242 8  89456853.174 7  21846220.094                    21846227.227
 118541760.393 7  92370293.566 7  22557745.242                    22557756.121
 109313399.217 8  85179356.945 8  20801649.664                    20801656.848
 119547837.256 7  93154312.65944  22749170.180                    22749175.898
 120364072.656 7  93790261.65444  22904522.789                    22904531.105
 125477399.813 7  97774677.33043  23877554.430                    23877563.133
 11  8 27  2 57  0.0000000  0 10G15G21G12G26G05G25G29G02G30G18
 115891345.239 7  90305163.290 7  22053405.508                    22053413.305
 127336063.244 6  99223013.30843  24231252.383                    24231260.199
 124186456.117 7  96768732.692 6  23631894.922                    23631902.996
 113237720.352 8  88237146.38545  21548375.500                    21548383.695
 114879957.663 8  89516954.805 7  21860897.867                    21860904.352
 118606476.893 7  92420722.023 7  22570060.500                    22570071.191
 109261275.086 8  85138740.779 8  20791731.078                    20791738.098
 119597391.754 7  93192926.55945  22758600.180                    22758605.746
 120432081.066 7  93843255.21144  22917464.359                    22917472.969
 125398306.229 7  97713046.08843  23862503.109                    23862511.836
 11  8 27  2 57 30.0000000  0 10G15G21G12G26G05G25G29G02G30G18
 115808508.250 7  90240615.042 7  22037642.367                    22037650.324
 127278515.971 6  99178171.36843  24220301.523                    24220309.512
 124279590.094 7  96841304.579 6  23649617.055                    23649626.285
 113188406.869 7  88198720.34145  21538991.680                    21538999.324
 114957283.860 8  89577208.999 7  21875612.422                    21875619.008
 118671495.108 7  92471385.546 7  22582432.742                    22582443.824
 109209532.269 7  85098421.735 7  20781884.570                    20781891.535
 119647064.702 7  93231632.77145  22768052.734                    22768058.270
 120500358.379 7  93896458.31544  22930457.609                    22930465.664
 125319434.281 6  97651587.55943  23847494.859                    23847502.453
 11  8 27  2 58  0.0000000  0 10G15G21G12G26G05G25G29G02G30G18
 115725962.179 7  90176293.477 7  22021933.844                    22021941.898
 127220926.288 6  99133296.37744  24209343.125                    24209350.895
 124372744.420 7  96913892.315 6  23667344.273                    23667352.641
 113139649.977 8  88160727.99445  21529713.156                    21529721.660
 115034803.235 8  89637613.705 7  21890363.484                    21890370.641
 118736812.010 7  92522281.827 7  22594862.336                    22594873.031
 109158173.064 8  85058401.616 7  20772111.094                    20772118.297
 119696856.437 7  93270431.52944  22777527.383                    22777532.945
 120568901.438 7  93949868.49444  22943500.492                    22943508.938
 125240785.019 6  97590302.55543  23832527.750                    23832536.328
 11  8 27  2 58 30.0000000  0 10G15G21G12G26G05G25G29G02G30G18
 115643710.100 7  90112200.994 7  22006282.313                    22006289.648
 127163293.365 7  99088387.69044  24198375.227                    24198383.301
 124465916.051 6  96986493.552 6  23685073.953                    23685082.301
 113091452.117 8  88123171.25445  21520541.813                    21520549.680
 115112513.492 8  89698167.149 7  21905151.266                    21905158.492
 118802424.495 7  92573408.436 7  22607348.133                    22607358.742
 109107199.478 8  85018681.979 8  20762411.266                    20762418.422
 119746767.526 7  93309323.28945  22787025.414                    22787031.285
 120637706.982 7  94003483.19644  22956593.578                    22956602.551
 125162359.002 6  97529191.47643  23817604.211                    23817611.863
 11  8 27  2 59  0.0000000  0 10G15G21G12G26G05G25G29G02G30G18
 115561755.559 7  90048340.360 7  21990686.586                    21990694.109
 127105617.632 6  99043445.65244  24187400.320                    24187407.777
 124559102.873 7  97059106.604 6  23702806.672                    23702815.441
 113043816.588 7  88086052.70345  21511476.953                    21511484.859
 115190412.869 8  89758867.963 7  21919975.297                    21919982.582
 118868330.224 7  92624763.541 7  22619889.336                    22619899.949
 109056614.916 7  84979265.475 8  20752784.922                    20752792.426
 119796798.787 7  93348308.69444  22796545.719                    22796551.828
 120706772.497 7  94057300.49444  22969736.648                    22969745.082
 125084157.650 6  97468255.45843  23802722.313                    23802730.555
 11  8 27  2 59 30.0000000  0 10G15G21G12G26G05G25G29G02G30G18
 115480101.320 7  89984713.728 7  21975148.203                    21975156.102
 127047898.567 6  98998469.84144  24176416.453                    24176423.930
 124652301.473 7  97131728.853 6  23720541.930                    23720550.223
 112996746.192 8  88049374.51545  21502520.078                    21502527.949
 115268498.553 8  89819713.955 7  21934834.367                    21934841.609
 118934525.809 7  92676344.523 7  22632486.359                    22632496.863
 109006421.068 8  84940153.428 8  20743233.508                    20743240.711
 119846950.643 7  93387388.05645  22806089.406                    22806095.402
 120776094.348 7  94111317.52044  22982927.813                    22982936.281
 125006181.466 6  97407494.92043  23787883.859                    23787892.004
 11  8 27  3  0  0.0000000  0 10G15G21G12G26G05G25G29G02G30G18
 115398750.502 7  89921323.532 7  21959667.602                    21959675.207
 126990136.100 7  98953460.19643  24165424.805                    24165432.328
 124745509.320 7  97204358.314 6  23738278.859                    23738287.758
 112950243.321 7  88013138.55945  21493670.492                    21493678.699
 115346768.546 8  89880703.560 7  21949728.328                    21949736.402
 119001008.436 7  92728149.168 7  22645137.656                    22645148.285
 108956620.527 7  84901347.834 8  20733756.836                    20733764.363
 119897223.710 7  93426561.88744  22815655.773                    22815661.922
 120845669.720 7  94165532.07344  22996167.828                    22996176.750
 124928431.664 6  97346910.76043  23773088.414                    23773096.813
 11  8 27  3  0 30.0000000  0 10G15G21G12G26G05G25G29G02G30G18
 115317705.792 7  89858171.853 7  21944245.711                    21944253.074
 126932329.681 7  98908416.33744  24154424.781                    24154432.262
 124838723.210 7  97276992.471 6  23756016.773                    23756025.039
 112904310.583 7  87977346.84945  21484930.063                    21484938.102
 115425220.560 8  89941834.995 7  21964657.781                    21964664.219
 119067774.951 7  92780175.029 7  22657842.828                    22657853.656
 108907215.258 7  84862850.268 8  20724355.359                    20724362.441
 119947618.229 7  93465830.35844  22825245.930                    22825251.547
 120915495.162 7  94219941.50544  23009455.242                    23009464.105
 124850908.482 6  97286503.20343  23758336.297                    23758344.465
 11  8 27  3  1  0.0000000  0 10G15G21G12G26G05G25G29G02G30G18
 115236970.567 7  89795261.339 7  21928882.133                    21928889.973
 126874478.981 7  98863337.94944  24143416.070                    24143423.730
 124931940.239 7  97349629.073 6  23773755.594                    23773763.977
 112858950.684 8  87942001.52345  21476297.953                    21476306.004
 115503851.989 8  90003106.268 7  21979620.586                    21979627.773
 119134822.355 7  92832419.761 7  22670601.391                    22670611.969
 108858207.564 8  84824662.485 7  20715029.414                    20715036.762
 119998134.928 7  93505194.02444  22834859.047                    22834864.195
 120985567.655 7  94274543.43944  23022789.133                    23022798.074
 124773613.075 6  97226273.12544  23743627.313                    23743635.492
 11  8 27  3  1 30.0000000  0 10G15G21G12G26G05G25G29G02G30G18
 115156547.683 7  89732594.207 7  21913578.234                    21913585.473
 126816583.956 7  98818225.00944  24132398.289                    24132406.434
 125025157.721 7  97422266.042 6  23791494.445                    23791502.875
 112814166.082 8  87907104.46645  21467775.961                    21467783.715
 115582660.601 7  90064515.556 7  21994617.500                    21994624.633
 119202147.530 7  92884880.960 7  22683412.898                    22683422.805
 108809599.372 8  84786786.007 8  20705779.555                    20705786.773
 120048774.175 7  93544653.17644  22844495.492                    22844501.496
 121055883.816 7  94329335.23744  23036169.891                    23036178.930
 124696545.704 7  97166220.74544  23728962.305                    23728970.020
 11  8 27  3  2  0.0000000  0 10G15G21G12G26G05G25G29G02G30G18
 115076440.233 7  89670172.862 7  21898333.906                    21898341.609
 126758643.984 7  98773077.04244  24121372.828                    24121380.711
 125118372.592 7  97494900.973 6  23809232.977                    23809240.871
 112769959.442 7  87872657.76445  21459363.711                    21459371.582
 115661644.187 8  90126061.216 7  22009647.492                    22009654.711
 119269747.463 7  92937556.227 7  22696276.836                    22696287.148
 108761393.210 8  84749222.794 8  20696605.938                    20696613.555
 120099536.405 7  93584208.17945  22854154.484                    22854160.949
 121126440.520 7  94384314.45644  23049596.602                    23049605.410
 124619707.836 7  97106347.16144  23714340.430                    23714348.570
 11  8 27  3  2 30.0000000  0 10G15G21G12G26G05G25G29G02G30G18
 114996651.076 7  89607999.543 7  21883150.617                    21883158.215
 126700659.192 7  98727894.16444  24110338.969                    24110346.320
 125211582.009 7  97567531.639 6  23826969.688                    23826978.164
 112726333.365 8  87838663.45945  21451061.938                    21451069.207
 115740800.513 7  90187741.467 7  22024710.648                    22024717.395
 119337619.245 7  92990443.337 7  22709192.086                    22709202.543
 108713591.199 8  84711974.502 8  20687509.906                    20687517.152
 120150422.536 7  93623859.69544  22863838.258                    22863843.992
 121197234.694 7  94439478.73544  23063067.992                    23063077.117
 124543099.951 7  97046652.83143  23699762.273                    23699770.180
 11  8 27  3  3  0.0000000  0 10G15G21G12G26G05G25G29G02G30G18
 114917183.353 7  89546076.682 7  21868028.281                    21868035.922
 126642628.998 7  98682675.91943  24099296.094                    24099303.289
 125304783.295 6  97640155.972 6  23844705.672                    23844714.074
 112683290.355 7  87805123.50445  21442871.086                    21442879.227
 115820126.935 8  90249554.278 7  22039806.023                    22039813.109
 119405759.751 7  93043539.832 7  22722158.602                    22722169.656
 108666195.584 8  84675042.885 8  20678490.695                    20678497.711
 120201432.947 7  93663608.05345  22873545.594                    22873551.262
 121268263.062 7  94494825.51544  23076584.766                    23076593.578
 124466722.822 7  96987138.28344  23685227.984                    23685235.805
 11  8 27  3  3 30.0000000  0 10G15G21G12G26G05G25G29G02G30G18
 114838040.357 7  89484406.866 7  21852968.070                    21852975.645
 126584553.607 7  98637422.43744  24088244.484                    24088251.699
 125397973.588 7  97712771.756 6  23862438.219                    23862447.313
 112640833.133 8  87772039.98145  21434791.711                    21434799.625
 115899621.594 8  90311498.164 7  22054933.352                    22054940.602
 119474166.105 7  93096843.479 7  22735176.492                    22735187.164
 108619208.736 8  84638429.786 8  20669549.414                    20669556.645
 120252568.032 7  93703453.57045  22883276.203                    22883282.508
 121339522.641 7  94550352.44744  23090144.195                    23090153.574
 124390577.587 7  96927804.41443  23670737.727                    23670745.941
 11  8 27  3  4  0.0000000  0 10G15G21G12G26G05G25G29G02G30G18
 114759224.590 7  89422992.032 7  21837970.000                    21837977.211
 126526432.690 7  98592133.48843  24077184.438                    24077192.098
 125491150.063 6  97785376.724 6  23880169.711                    23880178.746
 112598963.940 8  87739414.66045  21426824.391                    21426831.805
 115979282.383 7  90373571.504 7  22070091.992                    22070099.125
 119542835.114 7  93150351.794 7  22748243.391                    22748254.086
 108572632.864 8  84602136.924 8  20660686.258                    20660693.473
 120303828.265 7  93743396.61144  22893030.328                    22893036.313
 121411010.056 7  94606056.91544  23103748.750                    23103757.055
 124314664.487 7  96868651.42343  23656292.188                    23656299.879
 11  8 27  3  4 30.0000000  0 10G15G21G12G26G05G25G29G02G30G18
 114680738.937 7  89361834.434 7  21823034.531                    21823041.648
 126468265.950 6  98546808.83244  24066115.766                    24066123.242
 125584309.573 6  97857968.487 6  23897896.992                    23897906.656
 112557685.022 8  87707249.30945  21418968.813                    21418976.652
 116059106.556 8  90435772.170 7  22085281.898                    22085288.813
 119611763.465 7  93204062.191 7  22761360.250                    22761370.637
 108526469.566 8  84566165.541 8  20651901.492                    20651908.563
 120355214.119 7  93783437.51945  22902808.977                    22902814.793
 121482721.903 7  94661936.29044  23117395.047                    23117402.652
 124238984.094 6  96809679.80643  23641889.938                    23641898.301
 11  8 27  3  5  0.0000000  0 10G15G21G12G26G05G25G29G02G30G18
 114602586.859 7  89300936.761 7  21808162.305                    21808169.492
 126410053.132 7  98501448.27044  24055038.234                    24055045.113
 125677449.507 6  97930544.967 6  23915621.977                    23915630.441
 112516999.253 8  87675546.15545  21411226.945                    21411234.031
 116139092.099 8  90498098.565 7  22100502.984                    22100509.977
 119680948.472 8  93257972.581 7  22774525.820                    22774536.484
 108480721.499 8  84530517.723 8  20643196.141                    20643203.359
 120406726.276 7  93823576.84045  22912611.516                    22912617.270
 121554655.308 7  94717988.29344  23131083.203                    23131091.434
 124163537.658 7  96750890.46043  23627533.094                    23627541.762
 11  8 27  3  5 30.0000000  0 10G15G21G12G26G05G25G29G02G30G18
 114524771.107 7  89240301.160 7  21793354.805                    21793362.176
 126351794.265 6  98456051.83243  24043951.438                    24043958.895
 125770567.005 6  98003104.011 6  23933341.656                    23933349.777
 112476908.897 8  87644306.95145  21403597.727                    21403605.707
 116219236.552 8  90560548.785 7  22115754.148                    22115760.594
 119750387.045 8  93312080.533 7  22787739.625                    22787750.289
 108435390.853 8  84495195.162 8  20634569.883                    20634576.797
 120458365.259 7  93863815.00944  22922437.664                    22922443.676
 121626807.069 7  94774210.44144  23144813.617                    23144821.773
 124088325.818 6  96692283.95643  23613220.398                    23613229.102
 11  8 27  3  6  0.0000000  0 10G15G21G12G26G05G25G29G02G30G18
 114447294.826 7  89179930.071 7  21778611.453                    21778618.898
 126293489.009 7  98410619.23843  24032857.078                    24032863.523
 125863659.470 7  98075643.539 6  23951056.016                    23951064.734
 112437416.467 8  87613533.66745  21396082.828                    21396090.270
 116299537.881 8  90623121.273 7  22131034.805                    22131041.773
 119820076.168 7  93366383.751 7  22801001.078                    22801011.754
 108390479.830 8  84460199.582 8  20626023.703                    20626030.684
 120510131.705 7  93904152.48444  22932288.750                    22932293.988
 121699174.082 7  94830600.32744  23158584.773                    23158592.586
 124013349.020 6  96633860.55343  23598953.438                    23598961.199
 11  8 27  3  6 30.0000000  0 10G15G21G12G26G05G25G29G02G30G18
 114370160.622 7  89119825.537 7  21763933.086                    21763940.617
 126235136.728 7  98365150.02243  24021752.500                    24021759.574
 125956723.712 7  98148161.110 6  23968765.938                    23968773.738
 112398524.094 8  87583227.95745  21388681.805                    21388689.121
 116379993.904 7  90685814.279 7  22146344.594                    22146352.039
 119890012.564 7  93420879.623 7  22814309.305                    22814320.199
 108345990.278 8  84425532.423 8  20617557.734                    20617564.484
 120562025.895 7  93944589.50345  22942163.891                    22942169.109
 121771752.833 7  94887155.20344  23172395.633                    23172404.047
 123938608.217 7  96575621.06544  23584730.500                    23584738.891
 11  8 27  3  7  0.0000000  0 10G15G21G12G26G05G25G29G02G30G18
 114293371.790 8  89059990.124 7  21749320.844                    21749327.711
 126176737.547 6  98319644.25443  24010638.789                    24010646.559
 126049757.256 7  98220654.742 6  23986469.422                    23986477.832
 112360234.433 8  87553391.90045  21381395.391                    21381402.680
 116460602.527 7  90748626.176 7  22161684.320                    22161691.250
 119960193.354 7  93475565.939 7  22827664.016                    22827674.664
 108301924.641 8  84391195.575 8  20609172.016                    20609179.238
 120614048.444 7  93985126.55344  22952063.477                    22952069.254
 121844540.432 7  94943872.81744  23186246.563                    23186255.105
 123864104.306 7  96517566.16344  23570553.414                    23570560.926
 11  8 27  3  7 30.0000000  0 10G15G21G12G26G05G25G29G02G30G18
 114216930.974 7  89000425.897 7  21734774.297                    21734781.637
 126118291.450 6  98274101.94343  23999516.891                    23999524.453
 126142757.294 7  98293122.275 6  24004167.219                    24004175.012
 112322549.175 8  87524026.79545  21374223.883                    21374231.711
 116541361.220 7  90811555.023 7  22177052.352                    22177059.488
 120030615.204 7  93530440.092 7  22841065.234                    22841075.367
 108258284.771 8  84357190.509 8  20600867.883                    20600875.090
 120666199.724 7  94025763.89344  22961987.719                    22961992.715
 121917533.353 7  95000750.41944  23200136.555                    23200145.688
 123789837.308 7  96459695.86544  23556420.352                    23556428.848
 11  8 27  3  8  0.0000000  0 10G15G21G12G26G05G25G29G02G30G18
 114140841.003 8  88941135.051 7  21720294.836                    21720302.461
 126059797.995 7  98228522.70043  23988386.422                    23988393.121
 126235720.720 7  98365561.271 6  24021857.547                    24021865.996
 112285470.960 8  87495134.71545  21367168.047                    21367176.195
 116622267.746 7  90874599.072 7  22192448.328                    22192455.117
 120101275.189 7  93585499.794 7  22854510.602                    22854522.023
 108215072.811 8  84323518.868 8  20592644.609                    20592651.617
 120718480.316 7  94066502.00144  22971936.336                    22971942.398
 121990728.604 7  95057785.66344  23214065.234                    23214074.109
 123715808.202 7  96402010.93344  23542333.055                    23542341.203
 11  8 27  3  8 30.0000000  0 10G15G21G12G26G05G25G29G02G30G18
 114065105.205 7  88882120.191 7  21705882.891                    21705890.234
 126001257.123 7  98182906.52643  23977245.852                    23977253.660
 126328644.902 6  98437969.702 6  24039539.984                    24039548.418
 112249002.294 8  87466717.61245  21360228.563                    21360235.363
 116703320.355 7  90937756.958 7  22207871.703                    22207879.004
 120172170.460 7  93640742.857 7  22868002.148                    22868012.039
 108172291.442 8  84290182.764 8  20584503.633                    20584510.660
 120770891.192 7  94107341.62744  22981909.461                    22981915.934
 122064123.302 7  95114976.30344  23228032.180                    23228040.480
 123642017.942 7  96344512.12544  23528291.727                    23528299.656
 11  8 27  3  9  0.0000000  0 10G15G21G12G26G05G25G29G02G30G18
 113989726.494 7  88823383.562 7  21691538.805                    21691546.387
 125942669.065 7  98137253.56644  23966097.484                    23966104.535
 126421527.199 6  98510345.470 6  24057215.047                    24057223.184
 112213145.193 8  87438777.04445  21353405.078                    21353412.711
 116784516.402 7  91001026.606 7  22223322.961                    22223330.082
 120243297.814 7  93696166.749 7  22881536.852                    22881547.719
 108129942.365 8  84257183.508 8  20576444.820                    20576452.008
 120823432.449 7  94148282.87144  22991907.141                    22991913.719
 122137713.802 7  95172319.55244  23242035.336                    23242044.320
 123568467.061 7  96287199.81344  23514294.805                    23514302.805
 11  8 27  3  9 30.0000000  0 10G15G21G12G26G05G25G29G02G30G18
 113914707.743 8  88764927.434 7  21677263.383                    21677270.563
 125884033.169 7  98091563.33244  23954939.391                    23954946.215
 126514364.835 6  98582686.431 6  24074880.977                    24074889.555
 112177901.601 8  87411314.53845  21346698.094                    21346706.023
 116865853.668 7  91064406.292 7  22238800.859                    22238807.723
 120314653.837 7  93751768.813 7  22895115.820                    22895126.066
 108088027.274 8  84224522.419 8  20568468.703                    20568475.527
 120876104.456 7  94189325.98244  23001930.523                    23001936.727
 122211496.946 7  95229812.87144  23256076.305                    23256085.359
 123495155.823 7  96230074.29044  23500343.930                    23500351.500
 11  8 27  3 10  0.0000000  0 10G15G21G12G26G05G25G29G02G30G18
 113840051.432 8  88706753.722 7  21663056.281                    21663063.633
 125825349.454 7  98045835.83344  23943771.688                    23943778.715
 126607154.915 6  98654990.367 6  24092539.055                    24092547.207
 112143273.950 8  87384331.98345  21340109.094                    21340116.625
 116947330.090 7  91127894.413 7  22254305.570                    22254312.199
 120386235.606 7  93807546.811 7  22908737.852                    22908747.828
 108046548.237 8  84192201.114 8  20560575.555                    20560582.668
 120928907.674 7  94230471.34944  23011979.094                    23011985.012
 122285469.502 7  95287453.80144  23270152.695                    23270161.605
 123422084.933 7  96173136.01943  23486438.508                    23486446.598
 11  8 27  3 10 30.0000000  0 10G15G21G12G26G05G25G29G02G30G18
 113765760.802 7  88648864.964 7  21648919.742                    21648926.730
 125766617.638 7  98000070.85344  23932596.063                    23932602.816
 126699895.164 6  98727255.412 6  24110186.297                    24110195.578
 112109264.672 8  87357831.29645  21333637.180                    21333644.875
 117028943.707 7  91191489.445 7  22269836.063                    22269842.797
 120458040.264 7  93863498.480 7  22922401.539                    22922412.145
 108005508.038 8  84160221.756 8  20552765.781                    20552772.770
 120981843.136 7  94271719.75044  23022051.977                    23022058.273
 122359628.515 7  95345240.03744  23284264.883                    23284273.863
 123349255.289 7  96116385.72743  23472579.602                    23472587.770
 11  8 27  3 11  0.0000000  0 10G15G21G12G26G05G25G29G02G30G18
 113691839.010 7  88591263.600 7  21634852.609                    21634859.922
 125707838.041 7  97954268.65544  23921410.000                    23921417.609
 126792582.451 6  98799479.208 6  24127824.352                    24127833.215
 112075875.437 7  87331813.73045  21327283.430                    21327291.680
 117110692.115 7  91255189.493 7  22285392.344                    22285399.352
 120530064.669 8  93919621.377 7  22936107.594                    22936118.035
 107964908.702 8  84128585.948 8  20545040.148                    20545047.293
 121034911.312 7  94313071.56644  23032150.898                    23032156.859
 122433970.773 7  95403169.04844  23298411.680                    23298420.559
 123276667.533 6  96059823.90943  23458766.773                    23458774.277
 11  8 27  3 11 30.0000000  0 10G15G21G12G26G05G25G29G02G30G18
 113618288.201 7  88533951.316 7  21620856.391                    21620863.895
 125649009.721 7  97908428.48544  23910215.844                    23910222.063
 126885213.683 6  98871659.312 6  24145451.914                    24145460.844
 112043108.529 8  87306281.12545  21321048.047                    21321055.535
 117192573.095 7  91318992.849 7  22300973.906                    22300981.082
 120602305.394 8  93975912.838 7  22949854.836                    22949864.688
 107924751.271 8  84097294.457 8  20537398.266                    20537405.051
 121088112.230 7  94354526.84144  23042274.523                    23042280.508
 122508492.774 7  95461238.13344  23312592.711                    23312601.008
 123204322.111 6  96003450.93343  23445000.188                    23445007.199
 11  8 27  3 12  0.0000000  0 10G15G21G12G26G05G25G29G02G30G18
 113545111.471 8  88476930.527 7  21606931.141                    21606938.715
 125590133.118 7  97862550.68644  23899011.555                    23899018.742
 126977786.207 6  98943793.699 6  24163067.750                    24163076.727
 112010965.764 7  87281234.84846  21314931.609                    21314939.176
 117274584.639 7  91382897.956 7  22316579.602                    22316586.871
 120674759.589 8  94032370.618 7  22963642.156                    22963652.984
 107885038.526 8  84066349.489 8  20529841.055                    20529848.242
 121141446.643 7  94396086.10244  23052423.383                    23052429.613
 122583191.596 7  95519444.98844  23326806.859                    23326815.496
 123132219.463 7  95947267.13143  23431279.367                    23431286.461
 11  8 27  3 12 30.0000000  0 10G15G21G12G26G05G25G29G02G30G18
 113472311.864 7  88420203.605 7  21593078.133                    21593085.313
 125531208.186 7  97816635.23244  23887798.820                    23887806.184
 127070297.764 7  99015880.546 6  24180673.125                    24180680.648
 111979449.539 8  87256676.78945  21308933.977                    21308941.633
 117356724.562 7  91446903.103 7  22332210.281                    22332217.598
 120747424.078 7  94088992.278 7  22977469.547                    22977480.570
 107845772.184 8  84035752.355 8  20522368.602                    20522376.078
 121194914.795 7  94437749.59044  23062597.898                    23062604.316
 122658063.860 7  95577787.01044  23341054.953                    23341063.137
 123060360.218 6  95891272.99644  23417604.688                    23417612.133
 11  8 27  3 13  0.0000000  0 10G15G21G12G26G05G25G29G02G30G18
 113399891.778 7  88363772.417 7  21579296.742                    21579304.070
 125472234.716 7  97770681.94744  23876576.078                    23876582.863
 127162745.258 6  99087917.493 6  24198264.719                    24198273.523
 111948561.333 8  87232608.09646  21303056.258                    21303064.055
 117438990.590 7  91511006.487 7  22347865.297                    22347872.340
 120820295.530 7  94145775.215 7  22991336.469                    22991347.430
 107806954.299 8  84005504.673 8  20514982.289                    20514989.328
 121248517.306 7  94479517.78944  23072798.969                    23072804.613
 122733106.269 7  95636261.59944  23355335.461                    23355343.586
 122988744.820 6  95835468.87244  23403976.609                    23403984.313
 11  8 27  3 13 30.0000000  0 10G15G21G12G26G05G25G29G02G30G18
 113327854.859 8  88307639.780 7  21565588.578                    21565595.832
 125413212.837 7  97724690.95144  23865344.625                    23865352.023
 127255126.505 6  99159902.806 6  24215844.516                    24215853.480
 111918303.839 8  87209030.86545  21297298.258                    21297305.859
 117521380.890 7  91575206.717 7  22363543.750                    22363550.855
 120893371.454 7  94202717.481 7  23005241.781                    23005252.820
 107768587.775 8  83975608.701 8  20507681.219                    20507688.254
 121302255.219 7  94521391.48544  23083025.117                    23083030.793
 122808316.091 6  95694866.65644  23369647.711                    23369656.047
 122917374.271 7  95779855.51344  23390395.383                    23390402.953
 11  8 27  3 14  0.0000000  0 10G15G21G12G26G05G25G29G02G30G18
 113256202.903 8  88251807.131 7  21551953.414                    21551960.719
 125354141.615 7  97678661.50344  23854104.047                    23854111.387
 127347438.597 6  99231834.258 6  24233410.594                    24233419.621
 111888678.394 8  87185946.14045  21291660.773                    21291668.090
 117603892.969 7  91639501.847 7  22379245.031                    22379252.383
 120966648.118 7  94259816.148 7  23019186.172                    23019196.691
 107730673.078 8  83946064.810 8  20500466.055                    20500473.117
 121356128.323 7  94563370.50844  23093276.703                    23093282.770
 122883689.611 6  95753599.25044  23383990.203                    23383999.086
 122846248.595 7  95724432.99444  23376860.125                    23376867.879
